Wetterdaten: Sonntag, 01.11.2015
Datum Zeit Temp. A. Feuchte A. Luftdruck Regen Wind Richtung Richtung Sonnenschein ET UV Solar Taupunkt Windchill Windben Empfang
01.11.2015 00:00 8,2 C 76 % 1031,0 hPa 0,0 l/m 9,7 km/h (2 Bft) O-NO 60 0 min 0,000 mm 0,0 UV-I 0 W/m 4,2 C 5,8 C 16,1 km/h (3 Bft) 100,00 %
01.11.2015 00:02 8,2 C 76 % 1031,0 hPa 0,0 l/m 10,0 km/h (2 Bft) O-SO 103 0 min 0,000 mm 0,0 UV-I 0 W/m 4,2 C 5,6 C 16,1 km/h (3 Bft) 97,22 %
01.11.2015 00:03 8,2 C 76 % 1031,0 hPa 0,0 l/m 12,0 km/h (2 Bft) O 90 0 min 0,000 mm 0,0 UV-I 0 W/m 4,2 C 4,4 C 19,3 km/h (3 Bft) 96,30 %
01.11.2015 00:04 8,2 C 76 % 1031,0 hPa 0,0 l/m 10,0 km/h (2 Bft) O 101 0 min 0,000 mm 0,0 UV-I 0 W/m 4,2 C 5,6 C 16,1 km/h (3 Bft) 96,15 %
01.11.2015 00:05 8,2 C 76 % 1031,0 hPa 0,0 l/m 11,5 km/h (2 Bft) O-NO 78 0 min 0,000 mm 0,0 UV-I 0 W/m 4,2 C 4,7 C 17,7 km/h (3 Bft) 95,83 %
01.11.2015 00:06 8,2 C 76 % 1031,0 hPa 0,0 l/m 9,6 km/h (2 Bft) O-SO 111 0 min 0,000 mm 0,0 UV-I 0 W/m 4,2 C 5,9 C 14,5 km/h (3 Bft) 100,00 %
01.11.2015 00:07 8,2 C 76 % 1031,1 hPa 0,0 l/m 10,7 km/h (2 Bft) O-NO 69 0 min 0,000 mm 0,0 UV-I 0 W/m 4,2 C 5,2 C 20,9 km/h (4 Bft) 100,00 %
01.11.2015 00:08 8,2 C 76 % 1031,1 hPa 0,0 l/m 12,7 km/h (3 Bft) O-NO 59 0 min 0,000 mm 0,0 UV-I 0 W/m 4,2 C 4,1 C 17,7 km/h (3 Bft) 100,00 %
01.11.2015 00:09 8,2 C 76 % 1031,1 hPa 0,0 l/m 9,4 km/h (2 Bft) NO 39 0 min 0,000 mm 0,0 UV-I 0 W/m 4,2 C 6,0 C 16,1 km/h (3 Bft) 96,15 %
01.11.2015 00:10 8,2 C 76 % 1031,2 hPa 0,0 l/m 8,0 km/h (2 Bft) O-NO 71 0 min 0,000 mm 0,0 UV-I 0 W/m 4,2 C 7,0 C 12,9 km/h (3 Bft) 100,00 %
01.11.2015 00:11 8,2 C 76 % 1031,1 hPa 0,0 l/m 13,7 km/h (3 Bft) O-NO 70 0 min 0,000 mm 0,0 UV-I 0 W/m 4,2 C 3,6 C 19,3 km/h (3 Bft) 100,00 %
01.11.2015 00:12 8,2 C 76 % 1031,1 hPa 0,0 l/m 13,4 km/h (3 Bft) O 92 0 min 0,000 mm 0,0 UV-I 0 W/m 4,2 C 3,7 C 19,3 km/h (3 Bft) 100,00 %
01.11.2015 00:13 8,2 C 76 % 1031,1 hPa 0,0 l/m 13,5 km/h (3 Bft) O 86 0 min 0,000 mm 0,0 UV-I 0 W/m 4,2 C 3,7 C 19,3 km/h (3 Bft) 100,00 %
01.11.2015 00:14 8,2 C 76 % 1031,1 hPa 0,0 l/m 12,1 km/h (2 Bft) O-NO 76 0 min 0,000 mm 0,0 UV-I 0 W/m 4,2 C 4,4 C 16,1 km/h (3 Bft) 100,00 %
01.11.2015 00:15 8,2 C 76 % 1031,0 hPa 0,0 l/m 10,0 km/h (2 Bft) O-SO 103 0 min 0,000 mm 0,0 UV-I 0 W/m 4,2 C 5,6 C 14,5 km/h (3 Bft) 100,00 %
01.11.2015 00:16 8,2 C 76 % 1031,0 hPa 0,0 l/m 9,8 km/h (2 Bft) O 82 0 min 0,000 mm 0,0 UV-I 0 W/m 4,2 C 5,7 C 12,9 km/h (3 Bft) 100,00 %
01.11.2015 00:17 8,2 C 76 % 1031,1 hPa 0,0 l/m 10,3 km/h (2 Bft) O 84 0 min 0,000 mm 0,0 UV-I 0 W/m 4,2 C 5,4 C 14,5 km/h (3 Bft) 100,00 %
01.11.2015 00:18 8,2 C 76 % 1031,1 hPa 0,0 l/m 10,4 km/h (2 Bft) O-NO 63 0 min 0,000 mm 0,0 UV-I 0 W/m 4,2 C 5,4 C 16,1 km/h (3 Bft) 100,00 %
01.11.2015 00:19 8,2 C 76 % 1031,0 hPa 0,0 l/m 11,4 km/h (2 Bft) NO 48 0 min 0,000 mm 0,0 UV-I 0 W/m 4,2 C 4,8 C 14,5 km/h (3 Bft) 100,00 %
01.11.2015 00:20 8,2 C 76 % 1031,0 hPa 0,0 l/m 11,0 km/h (2 Bft) O 86 0 min 0,000 mm 0,0 UV-I 0 W/m 4,2 C 5,0 C 16,1 km/h (3 Bft) 100,00 %
01.11.2015 00:21 8,2 C 76 % 1031,0 hPa 0,0 l/m 13,0 km/h (3 Bft) O-NO 59 0 min 0,000 mm 0,0 UV-I 0 W/m 4,2 C 3,9 C 16,1 km/h (3 Bft) 100,00 %
01.11.2015 00:22 8,2 C 76 % 1031,1 hPa 0,0 l/m 10,0 km/h (2 Bft) O-NO 74 0 min 0,000 mm 0,0 UV-I 0 W/m 4,2 C 5,6 C 14,5 km/h (3 Bft) 100,00 %
01.11.2015 00:23 8,2 C 76 % 1031,0 hPa 0,0 l/m 14,0 km/h (3 Bft) O 79 0 min 0,000 mm 0,0 UV-I 0 W/m 4,2 C 3,4 C 19,3 km/h (3 Bft) 100,00 %
01.11.2015 00:24 8,2 C 76 % 1031,0 hPa 0,0 l/m 10,7 km/h (2 Bft) O 97 0 min 0,000 mm 0,0 UV-I 0 W/m 4,2 C 5,2 C 16,1 km/h (3 Bft) 100,00 %
01.11.2015 00:25 8,2 C 76 % 1031,1 hPa 0,0 l/m 9,9 km/h (2 Bft) O-NO 61 0 min 0,000 mm 0,0 UV-I 0 W/m 4,2 C 5,7 C 16,1 km/h (3 Bft) 100,00 %
01.11.2015 00:26 8,2 C 76 % 1031,1 hPa 0,0 l/m 8,6 km/h (2 Bft) O-NO 67 0 min 0,000 mm 0,0 UV-I 0 W/m 4,2 C 6,5 C 11,3 km/h (2 Bft) 100,00 %
01.11.2015 00:27 8,2 C 77 % 1031,2 hPa 0,0 l/m 8,0 km/h (2 Bft) O-NO 75 0 min 0,000 mm 0,0 UV-I 0 W/m 4,4 C 7,0 C 12,9 km/h (3 Bft) 100,00 %
01.11.2015 00:28 8,2 C 77 % 1031,2 hPa 0,0 l/m 9,5 km/h (2 Bft) O 81 0 min 0,000 mm 0,0 UV-I 0 W/m 4,4 C 5,9 C 16,1 km/h (3 Bft) 100,00 %
01.11.2015 00:29 8,2 C 77 % 1031,2 hPa 0,0 l/m 6,9 km/h (2 Bft) O-NO 74 0 min 0,000 mm 0,0 UV-I 0 W/m 4,4 C 7,8 C 9,7 km/h (2 Bft) 100,00 %
01.11.2015 00:30 8,1 C 77 % 1031,2 hPa 0,0 l/m 9,2 km/h (2 Bft) NO 48 0 min 0,000 mm 0,0 UV-I 0 W/m 4,3 C 6,0 C 14,5 km/h (3 Bft) 95,65 %
01.11.2015 00:31 8,1 C 77 % 1031,1 hPa 0,0 l/m 9,8 km/h (2 Bft) O 84 0 min 0,000 mm 0,0 UV-I 0 W/m 4,3 C 5,6 C 14,5 km/h (3 Bft) 100,00 %
01.11.2015 00:32 8,1 C 77 % 1031,2 hPa 0,0 l/m 10,4 km/h (2 Bft) O 85 0 min 0,000 mm 0,0 UV-I 0 W/m 4,3 C 5,2 C 16,1 km/h (3 Bft) 100,00 %
01.11.2015 00:33 8,1 C 77 % 1031,1 hPa 0,0 l/m 11,6 km/h (2 Bft) NO 46 0 min 0,000 mm 0,0 UV-I 0 W/m 4,3 C 4,5 C 16,1 km/h (3 Bft) 100,00 %
01.11.2015 00:34 8,1 C 77 % 1031,2 hPa 0,0 l/m 8,3 km/h (2 Bft) O-NO 74 0 min 0,000 mm 0,0 UV-I 0 W/m 4,3 C 6,6 C 12,9 km/h (3 Bft) 100,00 %
01.11.2015 00:35 8,1 C 77 % 1031,2 hPa 0,0 l/m 9,1 km/h (2 Bft) O-NO 74 0 min 0,000 mm 0,0 UV-I 0 W/m 4,3 C 6,1 C 16,1 km/h (3 Bft) 95,83 %
01.11.2015 00:36 8,1 C 77 % 1031,2 hPa 0,0 l/m 9,3 km/h (2 Bft) O 86 0 min 0,000 mm 0,0 UV-I 0 W/m 4,3 C 5,9 C 19,3 km/h (3 Bft) 100,00 %
01.11.2015 00:37 8,0 C 77 % 1031,2 hPa 0,0 l/m 7,8 km/h (2 Bft) NO 55 0 min 0,000 mm 0,0 UV-I 0 W/m 4,2 C 6,9 C 12,9 km/h (3 Bft) 100,00 %
01.11.2015 00:38 8,0 C 77 % 1031,3 hPa 0,0 l/m 9,7 km/h (2 Bft) NO 55 0 min 0,000 mm 0,0 UV-I 0 W/m 4,2 C 5,6 C 14,5 km/h (3 Bft) 100,00 %
01.11.2015 00:39 8,0 C 77 % 1031,2 hPa 0,0 l/m 8,2 km/h (2 Bft) O 84 0 min 0,000 mm 0,0 UV-I 0 W/m 4,2 C 6,6 C 16,1 km/h (3 Bft) 91,67 %
01.11.2015 00:40 8,0 C 77 % 1031,2 hPa 0,0 l/m 8,0 km/h (2 Bft) O-NO 63 0 min 0,000 mm 0,0 UV-I 0 W/m 4,2 C 6,8 C 12,9 km/h (3 Bft) 100,00 %
01.11.2015 00:41 7,9 C 77 % 1031,2 hPa 0,0 l/m 8,4 km/h (2 Bft) O-NO 76 0 min 0,000 mm 0,0 UV-I 0 W/m 4,1 C 6,4 C 14,5 km/h (3 Bft) 100,00 %
01.11.2015 00:42 7,9 C 77 % 1031,2 hPa 0,0 l/m 7,2 km/h (2 Bft) N-NO 27 0 min 0,000 mm 0,0 UV-I 0 W/m 4,1 C 7,3 C 12,9 km/h (3 Bft) 100,00 %
01.11.2015 00:43 7,9 C 77 % 1031,2 hPa 0,0 l/m 6,4 km/h (2 Bft) O 88 0 min 0,000 mm 0,0 UV-I 0 W/m 4,1 C 7,9 C 12,9 km/h (3 Bft) 100,00 %
01.11.2015 00:44 7,9 C 77 % 1031,2 hPa 0,0 l/m 6,8 km/h (2 Bft) O-NO 67 0 min 0,000 mm 0,0 UV-I 0 W/m 4,1 C 7,6 C 12,9 km/h (3 Bft) 100,00 %
01.11.2015 00:45 7,9 C 77 % 1031,2 hPa 0,0 l/m 8,5 km/h (2 Bft) O 84 0 min 0,000 mm 0,0 UV-I 0 W/m 4,1 C 6,3 C 16,1 km/h (3 Bft) 100,00 %
01.11.2015 00:46 7,9 C 77 % 1031,2 hPa 0,0 l/m 11,6 km/h (2 Bft) NO 41 0 min 0,000 mm 0,0 UV-I 0 W/m 4,1 C 4,3 C 17,7 km/h (3 Bft) 100,00 %
01.11.2015 00:47 7,9 C 77 % 1031,2 hPa 0,0 l/m 10,9 km/h (2 Bft) O 92 0 min 0,000 mm 0,0 UV-I 0 W/m 4,1 C 4,7 C 19,3 km/h (3 Bft) 100,00 %
01.11.2015 00:48 7,8 C 77 % 1031,2 hPa 0,0 l/m 9,3 km/h (2 Bft) O-NO 61 0 min 0,000 mm 0,0 UV-I 0 W/m 4,0 C 5,6 C 12,9 km/h (3 Bft) 100,00 %
01.11.2015 00:49 7,9 C 77 % 1031,2 hPa 0,0 l/m 8,4 km/h (2 Bft) O-NO 77 0 min 0,000 mm 0,0 UV-I 0 W/m 4,1 C 6,4 C 14,5 km/h (3 Bft) 100,00 %
01.11.2015 00:50 7,8 C 77 % 1031,2 hPa 0,0 l/m 9,1 km/h (2 Bft) O 94 0 min 0,000 mm 0,0 UV-I 0 W/m 4,0 C 5,8 C 19,3 km/h (3 Bft) 100,00 %
01.11.2015 00:51 7,8 C 77 % 1031,2 hPa 0,0 l/m 9,0 km/h (2 Bft) O-NO 71 0 min 0,000 mm 0,0 UV-I 0 W/m 4,0 C 5,8 C 12,9 km/h (3 Bft) 100,00 %
01.11.2015 00:52 7,8 C 77 % 1031,2 hPa 0,0 l/m 11,1 km/h (2 Bft) O-NO 76 0 min 0,000 mm 0,0 UV-I 0 W/m 4,0 C 4,5 C 17,7 km/h (3 Bft) 100,00 %
01.11.2015 00:53 7,8 C 77 % 1031,2 hPa 0,0 l/m 11,4 km/h (2 Bft) O-NO 61 0 min 0,000 mm 0,0 UV-I 0 W/m 4,0 C 4,3 C 16,1 km/h (3 Bft) 100,00 %
01.11.2015 00:54 7,8 C 77 % 1031,2 hPa 0,0 l/m 9,2 km/h (2 Bft) O 92 0 min 0,000 mm 0,0 UV-I 0 W/m 4,0 C 5,7 C 14,5 km/h (3 Bft) 100,00 %
01.11.2015 00:55 7,8 C 78 % 1031,2 hPa 0,0 l/m 9,4 km/h (2 Bft) O 91 0 min 0,000 mm 0,0 UV-I 0 W/m 4,2 C 5,6 C 14,5 km/h (3 Bft) 100,00 %
01.11.2015 00:56 7,8 C 78 % 1031,2 hPa 0,0 l/m 10,9 km/h (2 Bft) O 88 0 min 0,000 mm 0,0 UV-I 0 W/m 4,2 C 4,6 C 16,1 km/h (3 Bft) 100,00 %
01.11.2015 00:57 7,8 C 77 % 1031,2 hPa 0,0 l/m 13,0 km/h (3 Bft) NO 51 0 min 0,000 mm 0,0 UV-I 0 W/m 4,0 C 3,4 C 16,1 km/h (3 Bft) 100,00 %
01.11.2015 00:58 7,8 C 77 % 1031,2 hPa 0,0 l/m 11,8 km/h (2 Bft) O-SO 104 0 min 0,000 mm 0,0 UV-I 0 W/m 4,0 C 4,1 C 16,1 km/h (3 Bft) 100,00 %
01.11.2015 00:59 7,8 C 77 % 1031,2 hPa 0,0 l/m 9,7 km/h (2 Bft) O-NO 76 0 min 0,000 mm 0,0 UV-I 0 W/m 4,0 C 5,4 C 17,7 km/h (3 Bft) 100,00 %
01.11.2015 01:00 7,8 C 78 % 1031,2 hPa 0,0 l/m 10,2 km/h (2 Bft) O 83 0 min 0,025 mm 0,0 UV-I 0 W/m 4,2 C 5,0 C 17,7 km/h (3 Bft) 100,00 %
01.11.2015 01:02 7,8 C 78 % 1031,1 hPa 0,0 l/m 10,7 km/h (2 Bft) O-SO 102 0 min 0,000 mm 0,0 UV-I 0 W/m 4,2 C 4,7 C 16,1 km/h (3 Bft) 98,00 %
01.11.2015 01:03 7,8 C 77 % 1031,1 hPa 0,0 l/m 8,3 km/h (2 Bft) O-NO 71 0 min 0,000 mm 0,0 UV-I 0 W/m 4,0 C 6,3 C 14,5 km/h (3 Bft) 96,15 %
01.11.2015 01:04 7,7 C 78 % 1031,1 hPa 0,0 l/m 7,3 km/h (2 Bft) O 92 0 min 0,000 mm 0,0 UV-I 0 W/m 4,1 C 7,0 C 12,9 km/h (3 Bft) 100,00 %
01.11.2015 01:05 7,7 C 78 % 1031,1 hPa 0,0 l/m 7,6 km/h (2 Bft) NO 44 0 min 0,000 mm 0,0 UV-I 0 W/m 4,1 C 6,7 C 12,9 km/h (3 Bft) 100,00 %
01.11.2015 01:06 7,7 C 78 % 1031,1 hPa 0,0 l/m 8,2 km/h (2 Bft) NO 53 0 min 0,000 mm 0,0 UV-I 0 W/m 4,1 C 6,3 C 11,3 km/h (2 Bft) 100,00 %
01.11.2015 01:07 7,7 C 78 % 1031,1 hPa 0,0 l/m 8,6 km/h (2 Bft) O-NO 76 0 min 0,000 mm 0,0 UV-I 0 W/m 4,1 C 6,0 C 12,9 km/h (3 Bft) 100,00 %
01.11.2015 01:08 7,7 C 78 % 1031,1 hPa 0,0 l/m 12,8 km/h (3 Bft) O-NO 78 0 min 0,000 mm 0,0 UV-I 0 W/m 4,1 C 3,4 C 17,7 km/h (3 Bft) 96,15 %
01.11.2015 01:09 7,7 C 78 % 1031,1 hPa 0,0 l/m 9,2 km/h (2 Bft) O-NO 69 0 min 0,000 mm 0,0 UV-I 0 W/m 4,1 C 5,6 C 16,1 km/h (3 Bft) 100,00 %
01.11.2015 01:10 7,6 C 78 % 1031,1 hPa 0,0 l/m 11,9 km/h (2 Bft) O 82 0 min 0,000 mm 0,0 UV-I 0 W/m 4,0 C 3,8 C 17,7 km/h (3 Bft) 100,00 %
01.11.2015 01:11 7,7 C 78 % 1031,1 hPa 0,0 l/m 11,5 km/h (2 Bft) O-NO 72 0 min 0,000 mm 0,0 UV-I 0 W/m 4,1 C 4,1 C 19,3 km/h (3 Bft) 100,00 %
01.11.2015 01:12 7,7 C 78 % 1031,1 hPa 0,0 l/m 10,8 km/h (2 Bft) O 90 0 min 0,000 mm 0,0 UV-I 0 W/m 4,1 C 4,6 C 14,5 km/h (3 Bft) 96,15 %
01.11.2015 01:13 7,7 C 78 % 1031,1 hPa 0,0 l/m 8,0 km/h (2 Bft) O 96 0 min 0,000 mm 0,0 UV-I 0 W/m 4,1 C 6,4 C 12,9 km/h (3 Bft) 100,00 %
01.11.2015 01:14 7,7 C 78 % 1031,1 hPa 0,0 l/m 9,0 km/h (2 Bft) O-NO 76 0 min 0,000 mm 0,0 UV-I 0 W/m 4,1 C 5,7 C 16,1 km/h (3 Bft) 100,00 %
01.11.2015 01:15 7,7 C 78 % 1031,1 hPa 0,0 l/m 7,5 km/h (2 Bft) O-NO 71 0 min 0,000 mm 0,0 UV-I 0 W/m 4,1 C 6,8 C 12,9 km/h (3 Bft) 100,00 %
01.11.2015 01:16 7,6 C 78 % 1031,1 hPa 0,0 l/m 7,2 km/h (2 Bft) NO 42 0 min 0,000 mm 0,0 UV-I 0 W/m 4,0 C 7,0 C 12,9 km/h (3 Bft) 100,00 %
01.11.2015 01:17 7,6 C 78 % 1031,1 hPa 0,0 l/m 5,8 km/h (2 Bft) NO 49 0 min 0,000 mm 0,0 UV-I 0 W/m 4,0 C 7,6 C 11,3 km/h (2 Bft) 100,00 %
01.11.2015 01:18 7,6 C 78 % 1031,0 hPa 0,0 l/m 7,4 km/h (2 Bft) O 86 0 min 0,000 mm 0,0 UV-I 0 W/m 4,0 C 6,8 C 12,9 km/h (3 Bft) 100,00 %
01.11.2015 01:19 7,6 C 78 % 1031,0 hPa 0,0 l/m 7,4 km/h (2 Bft) O-NO 67 0 min 0,000 mm 0,0 UV-I 0 W/m 4,0 C 6,8 C 14,5 km/h (3 Bft) 100,00 %
01.11.2015 01:20 7,5 C 78 % 1031,1 hPa 0,0 l/m 5,5 km/h (1 Bft) O 81 0 min 0,000 mm 0,0 UV-I 0 W/m 3,9 C 7,5 C 9,7 km/h (2 Bft) 100,00 %
01.11.2015 01:21 7,5 C 78 % 1031,0 hPa 0,0 l/m 9,7 km/h (2 Bft) O 91 0 min 0,000 mm 0,0 UV-I 0 W/m 3,9 C 5,0 C 14,5 km/h (3 Bft) 100,00 %
01.11.2015 01:22 7,5 C 78 % 1031,0 hPa 0,0 l/m 7,3 km/h (2 Bft) O-SO 108 0 min 0,000 mm 0,0 UV-I 0 W/m 3,9 C 6,8 C 12,9 km/h (3 Bft) 100,00 %
01.11.2015 01:23 7,5 C 78 % 1031,0 hPa 0,0 l/m 6,3 km/h (2 Bft) O 94 0 min 0,000 mm 0,0 UV-I 0 W/m 3,9 C 7,5 C 11,3 km/h (2 Bft) 100,00 %
01.11.2015 01:24 7,5 C 78 % 1031,1 hPa 0,0 l/m 8,7 km/h (2 Bft) O-SO 102 0 min 0,000 mm 0,0 UV-I 0 W/m 3,9 C 5,7 C 14,5 km/h (3 Bft) 100,00 %
01.11.2015 01:25 7,4 C 78 % 1031,0 hPa 0,0 l/m 9,7 km/h (2 Bft) O-NO 69 0 min 0,000 mm 0,0 UV-I 0 W/m 3,8 C 4,9 C 14,5 km/h (3 Bft) 100,00 %
01.11.2015 01:26 7,4 C 78 % 1031,0 hPa 0,0 l/m 7,9 km/h (2 Bft) O-NO 71 0 min 0,000 mm 0,0 UV-I 0 W/m 3,8 C 6,2 C 11,3 km/h (2 Bft) 100,00 %
01.11.2015 01:27 7,4 C 78 % 1031,0 hPa 0,0 l/m 6,1 km/h (2 Bft) O 80 0 min 0,000 mm 0,0 UV-I 0 W/m 3,8 C 7,4 C 9,7 km/h (2 Bft) 100,00 %
01.11.2015 01:28 7,4 C 78 % 1031,0 hPa 0,0 l/m 6,9 km/h (2 Bft) NO 46 0 min 0,000 mm 0,0 UV-I 0 W/m 3,8 C 7,0 C 11,3 km/h (2 Bft) 100,00 %
01.11.2015 01:29 7,4 C 78 % 1031,0 hPa 0,0 l/m 7,4 km/h (2 Bft) O 89 0 min 0,000 mm 0,0 UV-I 0 W/m 3,8 C 6,6 C 12,9 km/h (3 Bft) 100,00 %
01.11.2015 01:30 7,4 C 78 % 1031,0 hPa 0,0 l/m 8,6 km/h (2 Bft) O 82 0 min 0,000 mm 0,0 UV-I 0 W/m 3,8 C 5,7 C 14,5 km/h (3 Bft) 100,00 %
01.11.2015 01:31 7,4 C 78 % 1031,0 hPa 0,0 l/m 6,0 km/h (2 Bft) O 85 0 min 0,000 mm 0,0 UV-I 0 W/m 3,8 C 7,4 C 12,9 km/h (3 Bft) 100,00 %
01.11.2015 01:32 7,4 C 78 % 1031,0 hPa 0,0 l/m 6,6 km/h (2 Bft) O 86 0 min 0,000 mm 0,0 UV-I 0 W/m 3,8 C 7,3 C 9,7 km/h (2 Bft) 100,00 %
01.11.2015 01:33 7,4 C 78 % 1031,0 hPa 0,0 l/m 9,5 km/h (2 Bft) O-NO 75 0 min 0,000 mm 0,0 UV-I 0 W/m 3,8 C 5,1 C 14,5 km/h (3 Bft) 100,00 %
01.11.2015 01:34 7,4 C 78 % 1031,0 hPa 0,0 l/m 10,3 km/h (2 Bft) O 91 0 min 0,000 mm 0,0 UV-I 0 W/m 3,8 C 4,5 C 14,5 km/h (3 Bft) 100,00 %
01.11.2015 01:35 7,4 C 78 % 1031,1 hPa 0,0 l/m 5,2 km/h (1 Bft) O 99 0 min 0,000 mm 0,0 UV-I 0 W/m 3,8 C 7,4 C 11,3 km/h (2 Bft) 100,00 %
01.11.2015 01:36 7,4 C 78 % 1031,1 hPa 0,0 l/m 7,8 km/h (2 Bft) NO 56 0 min 0,000 mm 0,0 UV-I 0 W/m 3,8 C 6,3 C 12,9 km/h (3 Bft) 100,00 %
01.11.2015 01:37 7,4 C 78 % 1031,1 hPa 0,0 l/m 11,7 km/h (2 Bft) O 90 0 min 0,000 mm 0,0 UV-I 0 W/m 3,8 C 3,7 C 17,7 km/h (3 Bft) 100,00 %
01.11.2015 01:38 7,3 C 78 % 1031,1 hPa 0,0 l/m 7,1 km/h (2 Bft) O 95 0 min 0,000 mm 0,0 UV-I 0 W/m 3,7 C 6,7 C 12,9 km/h (3 Bft) 100,00 %
01.11.2015 01:39 7,3 C 78 % 1031,1 hPa 0,0 l/m 8,8 km/h (2 Bft) O 94 0 min 0,000 mm 0,0 UV-I 0 W/m 3,7 C 5,4 C 14,5 km/h (3 Bft) 100,00 %
01.11.2015 01:40 7,4 C 78 % 1031,1 hPa 0,0 l/m 5,8 km/h (2 Bft) NO 55 0 min 0,000 mm 0,0 UV-I 0 W/m 3,8 C 7,4 C 8,0 km/h (2 Bft) 96,30 %
01.11.2015 01:41 7,3 C 78 % 1031,0 hPa 0,0 l/m 7,3 km/h (2 Bft) O 101 0 min 0,000 mm 0,0 UV-I 0 W/m 3,7 C 6,6 C 12,9 km/h (3 Bft) 100,00 %
01.11.2015 01:42 7,3 C 78 % 1031,0 hPa 0,0 l/m 7,8 km/h (2 Bft) O-NO 72 0 min 0,000 mm 0,0 UV-I 0 W/m 3,7 C 6,2 C 12,9 km/h (3 Bft) 100,00 %
01.11.2015 01:43 7,3 C 78 % 1031,0 hPa 0,0 l/m 7,0 km/h (2 Bft) O 92 0 min 0,000 mm 0,0 UV-I 0 W/m 3,7 C 6,8 C 12,9 km/h (3 Bft) 100,00 %
01.11.2015 01:44 7,3 C 78 % 1031,0 hPa 0,0 l/m 6,4 km/h (2 Bft) O-NO 73 0 min 0,000 mm 0,0 UV-I 0 W/m 3,7 C 7,3 C 9,7 km/h (2 Bft) 100,00 %
01.11.2015 01:45 7,3 C 78 % 1031,1 hPa 0,0 l/m 8,1 km/h (2 Bft) O 98 0 min 0,000 mm 0,0 UV-I 0 W/m 3,7 C 5,9 C 17,7 km/h (3 Bft) 100,00 %
01.11.2015 01:46 7,3 C 78 % 1031,0 hPa 0,0 l/m 8,9 km/h (2 Bft) O 87 0 min 0,000 mm 0,0 UV-I 0 W/m 3,7 C 5,4 C 14,5 km/h (3 Bft) 100,00 %
01.11.2015 01:47 7,3 C 78 % 1031,0 hPa 0,0 l/m 6,3 km/h (2 Bft) O 101 0 min 0,000 mm 0,0 UV-I 0 W/m 3,7 C 7,3 C 9,7 km/h (2 Bft) 100,00 %
01.11.2015 01:48 7,3 C 78 % 1031,1 hPa 0,0 l/m 6,1 km/h (2 Bft) N-NO 15 0 min 0,000 mm 0,0 UV-I 0 W/m 3,7 C 7,3 C 11,3 km/h (2 Bft) 100,00 %
01.11.2015 01:49 7,3 C 78 % 1031,1 hPa 0,0 l/m 6,7 km/h (2 Bft) O 90 0 min 0,000 mm 0,0 UV-I 0 W/m 3,7 C 7,1 C 11,3 km/h (2 Bft) 96,15 %
01.11.2015 01:50 7,3 C 78 % 1031,1 hPa 0,0 l/m 6,8 km/h (2 Bft) O-NO 67 0 min 0,000 mm 0,0 UV-I 0 W/m 3,7 C 7,0 C 12,9 km/h (3 Bft) 100,00 %
01.11.2015 01:51 7,3 C 78 % 1031,1 hPa 0,0 l/m 7,8 km/h (2 Bft) O-SO 103 0 min 0,000 mm 0,0 UV-I 0 W/m 3,7 C 6,2 C 12,9 km/h (3 Bft) 100,00 %
01.11.2015 01:52 7,3 C 78 % 1031,1 hPa 0,0 l/m 11,6 km/h (2 Bft) O-NO 60 0 min 0,000 mm 0,0 UV-I 0 W/m 3,7 C 3,6 C 14,5 km/h (3 Bft) 96,15 %
01.11.2015 01:53 7,3 C 78 % 1031,1 hPa 0,0 l/m 9,0 km/h (2 Bft) O 88 0 min 0,000 mm 0,0 UV-I 0 W/m 3,7 C 5,3 C 12,9 km/h (3 Bft) 100,00 %
01.11.2015 01:54 7,3 C 78 % 1031,2 hPa 0,0 l/m 7,9 km/h (2 Bft) O-NO 76 0 min 0,000 mm 0,0 UV-I 0 W/m 3,7 C 6,1 C 12,9 km/h (3 Bft) 96,55 %
01.11.2015 01:55 7,3 C 78 % 1031,2 hPa 0,0 l/m 7,1 km/h (2 Bft) NO 50 0 min 0,000 mm 0,0 UV-I 0 W/m 3,7 C 6,7 C 9,7 km/h (2 Bft) 100,00 %
01.11.2015 01:56 7,3 C 78 % 1031,1 hPa 0,0 l/m 6,0 km/h (2 Bft) O-NO 71 0 min 0,000 mm 0,0 UV-I 0 W/m 3,7 C 7,3 C 9,7 km/h (2 Bft) 96,15 %
01.11.2015 01:57 7,3 C 78 % 1031,1 hPa 0,0 l/m 5,9 km/h (2 Bft) O 89 0 min 0,000 mm 0,0 UV-I 0 W/m 3,7 C 7,3 C 8,0 km/h (2 Bft) 100,00 %
01.11.2015 01:58 7,3 C 78 % 1031,1 hPa 0,0 l/m 5,3 km/h (1 Bft) O 94 0 min 0,000 mm 0,0 UV-I 0 W/m 3,7 C 7,3 C 9,7 km/h (2 Bft) 100,00 %
01.11.2015 01:59 7,3 C 78 % 1031,1 hPa 0,0 l/m 7,6 km/h (2 Bft) NO 50 0 min 0,000 mm 0,0 UV-I 0 W/m 3,7 C 6,3 C 11,3 km/h (2 Bft) 100,00 %
01.11.2015 02:00 7,2 C 78 % 1031,1 hPa 0,0 l/m 6,4 km/h (2 Bft) O 86 0 min 0,026 mm 0,0 UV-I 0 W/m 3,6 C 7,2 C 9,7 km/h (2 Bft) 100,00 %
01.11.2015 02:01 7,2 C 78 % 1031,1 hPa 0,0 l/m 6,9 km/h (2 Bft) O 82 0 min 0,000 mm 0,0 UV-I 0 W/m 3,6 C 6,8 C 12,9 km/h (3 Bft) 95,83 %
01.11.2015 02:02 7,2 C 78 % 1031,1 hPa 0,0 l/m 6,5 km/h (2 Bft) O-NO 77 0 min 0,000 mm 0,0 UV-I 0 W/m 3,6 C 7,1 C 11,3 km/h (2 Bft) 95,65 %
01.11.2015 02:03 7,2 C 78 % 1031,1 hPa 0,0 l/m 6,6 km/h (2 Bft) NO 35 0 min 0,000 mm 0,0 UV-I 0 W/m 3,6 C 7,1 C 11,3 km/h (2 Bft) 100,00 %
01.11.2015 02:04 7,2 C 78 % 1031,1 hPa 0,0 l/m 6,4 km/h (2 Bft) O 87 0 min 0,000 mm 0,0 UV-I 0 W/m 3,6 C 7,2 C 11,3 km/h (2 Bft) 100,00 %
01.11.2015 02:05 7,2 C 78 % 1031,1 hPa 0,0 l/m 4,3 km/h (1 Bft) O-NO 57 0 min 0,000 mm 0,0 UV-I 0 W/m 3,6 C 7,2 C 8,0 km/h (2 Bft) 100,00 %
01.11.2015 02:06 7,2 C 78 % 1031,1 hPa 0,0 l/m 8,6 km/h (2 Bft) O-NO 67 0 min 0,000 mm 0,0 UV-I 0 W/m 3,6 C 5,5 C 11,3 km/h (2 Bft) 100,00 %
01.11.2015 02:07 7,2 C 78 % 1031,1 hPa 0,0 l/m 6,3 km/h (2 Bft) O-NO 77 0 min 0,000 mm 0,0 UV-I 0 W/m 3,6 C 7,2 C 9,7 km/h (2 Bft) 100,00 %
01.11.2015 02:08 7,2 C 79 % 1031,1 hPa 0,0 l/m 6,3 km/h (2 Bft) O 90 0 min 0,000 mm 0,0 UV-I 0 W/m 3,8 C 7,2 C 11,3 km/h (2 Bft) 100,00 %
01.11.2015 02:09 7,2 C 79 % 1031,1 hPa 0,0 l/m 6,0 km/h (2 Bft) O 87 0 min 0,000 mm 0,0 UV-I 0 W/m 3,8 C 7,2 C 12,9 km/h (3 Bft) 95,83 %
01.11.2015 02:10 7,2 C 79 % 1031,1 hPa 0,0 l/m 7,8 km/h (2 Bft) O 83 0 min 0,000 mm 0,0 UV-I 0 W/m 3,8 C 6,1 C 14,5 km/h (3 Bft) 100,00 %
01.11.2015 02:11 7,1 C 79 % 1031,1 hPa 0,0 l/m 7,2 km/h (2 Bft) O-NO 64 0 min 0,000 mm 0,0 UV-I 0 W/m 3,7 C 6,4 C 11,3 km/h (2 Bft) 97,37 %
01.11.2015 02:12 7,1 C 79 % 1031,1 hPa 0,0 l/m 5,7 km/h (1 Bft) O-NO 71 0 min 0,000 mm 0,0 UV-I 0 W/m 3,7 C 7,1 C 9,7 km/h (2 Bft) 100,00 %
01.11.2015 02:13 7,1 C 79 % 1031,0 hPa 0,0 l/m 7,2 km/h (2 Bft) O 92 0 min 0,000 mm 0,0 UV-I 0 W/m 3,7 C 6,4 C 11,3 km/h (2 Bft) 100,00 %
01.11.2015 02:14 7,1 C 78 % 1031,0 hPa 0,0 l/m 5,8 km/h (2 Bft) O 84 0 min 0,000 mm 0,0 UV-I 0 W/m 3,5 C 7,1 C 9,7 km/h (2 Bft) 96,67 %
01.11.2015 02:15 7,1 C 78 % 1031,0 hPa 0,0 l/m 7,5 km/h (2 Bft) O-SO 107 0 min 0,000 mm 0,0 UV-I 0 W/m 3,5 C 6,2 C 11,3 km/h (2 Bft) 100,00 %
01.11.2015 02:16 7,1 C 78 % 1031,0 hPa 0,0 l/m 7,8 km/h (2 Bft) O 96 0 min 0,000 mm 0,0 UV-I 0 W/m 3,5 C 6,0 C 14,5 km/h (3 Bft) 100,00 %
01.11.2015 02:17 7,1 C 78 % 1031,0 hPa 0,0 l/m 7,4 km/h (2 Bft) O 95 0 min 0,000 mm 0,0 UV-I 0 W/m 3,5 C 6,3 C 11,3 km/h (2 Bft) 100,00 %
01.11.2015 02:18 7,1 C 78 % 1031,0 hPa 0,0 l/m 6,6 km/h (2 Bft) O-NO 77 0 min 0,000 mm 0,0 UV-I 0 W/m 3,5 C 7,0 C 11,3 km/h (2 Bft) 100,00 %
01.11.2015 02:19 7,1 C 78 % 1031,0 hPa 0,0 l/m 6,7 km/h (2 Bft) O 89 0 min 0,000 mm 0,0 UV-I 0 W/m 3,5 C 6,9 C 11,3 km/h (2 Bft) 100,00 %
01.11.2015 02:20 7,1 C 78 % 1031,0 hPa 0,0 l/m 8,4 km/h (2 Bft) O 88 0 min 0,000 mm 0,0 UV-I 0 W/m 3,5 C 5,5 C 11,3 km/h (2 Bft) 100,00 %
01.11.2015 02:21 7,1 C 78 % 1031,0 hPa 0,0 l/m 8,0 km/h (2 Bft) O-NO 74 0 min 0,000 mm 0,0 UV-I 0 W/m 3,5 C 5,8 C 12,9 km/h (3 Bft) 100,00 %
01.11.2015 02:22 7,2 C 78 % 1031,0 hPa 0,0 l/m 8,3 km/h (2 Bft) O 84 0 min 0,000 mm 0,0 UV-I 0 W/m 3,6 C 5,7 C 12,9 km/h (3 Bft) 100,00 %
01.11.2015 02:23 7,2 C 78 % 1031,0 hPa 0,0 l/m 9,1 km/h (2 Bft) O 86 0 min 0,000 mm 0,0 UV-I 0 W/m 3,6 C 5,1 C 14,5 km/h (3 Bft) 100,00 %
01.11.2015 02:24 7,2 C 78 % 1030,9 hPa 0,0 l/m 7,6 km/h (2 Bft) O-NO 57 0 min 0,000 mm 0,0 UV-I 0 W/m 3,6 C 6,2 C 12,9 km/h (3 Bft) 100,00 %
01.11.2015 02:25 7,2 C 78 % 1030,8 hPa 0,0 l/m 7,3 km/h (2 Bft) O 82 0 min 0,000 mm 0,0 UV-I 0 W/m 3,6 C 6,5 C 11,3 km/h (2 Bft) 96,15 %
01.11.2015 02:26 7,1 C 78 % 1030,8 hPa 0,0 l/m 5,2 km/h (1 Bft) O 100 0 min 0,000 mm 0,0 UV-I 0 W/m 3,5 C 7,1 C 9,7 km/h (2 Bft) 100,00 %
01.11.2015 02:27 7,1 C 78 % 1030,8 hPa 0,0 l/m 7,3 km/h (2 Bft) NO 51 0 min 0,000 mm 0,0 UV-I 0 W/m 3,5 C 6,4 C 12,9 km/h (3 Bft) 100,00 %
01.11.2015 02:28 7,1 C 78 % 1030,9 hPa 0,0 l/m 6,5 km/h (2 Bft) O-NO 75 0 min 0,000 mm 0,0 UV-I 0 W/m 3,5 C 7,0 C 11,3 km/h (2 Bft) 100,00 %
01.11.2015 02:29 7,1 C 78 % 1030,9 hPa 0,0 l/m 7,4 km/h (2 Bft) O-SO 117 0 min 0,000 mm 0,0 UV-I 0 W/m 3,5 C 6,3 C 12,9 km/h (3 Bft) 100,00 %
01.11.2015 02:30 7,1 C 78 % 1030,8 hPa 0,0 l/m 7,6 km/h (2 Bft) O 88 0 min 0,000 mm 0,0 UV-I 0 W/m 3,5 C 6,1 C 11,3 km/h (2 Bft) 100,00 %
01.11.2015 02:31 7,2 C 78 % 1030,9 hPa 0,0 l/m 8,9 km/h (2 Bft) O 92 0 min 0,000 mm 0,0 UV-I 0 W/m 3,6 C 5,2 C 12,9 km/h (3 Bft) 100,00 %
01.11.2015 02:32 7,1 C 77 % 1030,9 hPa 0,0 l/m 4,6 km/h (1 Bft) O-NO 78 0 min 0,000 mm 0,0 UV-I 0 W/m 3,3 C 7,1 C 8,0 km/h (2 Bft) 100,00 %
01.11.2015 02:33 7,1 C 78 % 1030,9 hPa 0,0 l/m 4,8 km/h (1 Bft) O 84 0 min 0,000 mm 0,0 UV-I 0 W/m 3,5 C 7,1 C 6,4 km/h (2 Bft) 100,00 %
01.11.2015 02:34 7,1 C 78 % 1030,9 hPa 0,0 l/m 4,5 km/h (1 Bft) O 90 0 min 0,000 mm 0,0 UV-I 0 W/m 3,5 C 7,1 C 6,4 km/h (2 Bft) 100,00 %
01.11.2015 02:35 7,1 C 78 % 1030,8 hPa 0,0 l/m 5,6 km/h (1 Bft) O-NO 65 0 min 0,000 mm 0,0 UV-I 0 W/m 3,5 C 7,1 C 11,3 km/h (2 Bft) 100,00 %
01.11.2015 02:36 7,1 C 78 % 1030,9 hPa 0,0 l/m 4,7 km/h (1 Bft) O 91 0 min 0,000 mm 0,0 UV-I 0 W/m 3,5 C 7,1 C 9,7 km/h (2 Bft) 100,00 %
01.11.2015 02:37 7,1 C 78 % 1030,9 hPa 0,0 l/m 4,3 km/h (1 Bft) O-NO 64 0 min 0,000 mm 0,0 UV-I 0 W/m 3,5 C 7,1 C 6,4 km/h (2 Bft) 100,00 %
01.11.2015 02:38 7,1 C 78 % 1030,9 hPa 0,0 l/m 5,9 km/h (2 Bft) NO 52 0 min 0,000 mm 0,0 UV-I 0 W/m 3,5 C 7,1 C 14,5 km/h (3 Bft) 100,00 %
01.11.2015 02:39 7,0 C 78 % 1030,8 hPa 0,0 l/m 5,8 km/h (2 Bft) O 82 0 min 0,000 mm 0,0 UV-I 0 W/m 3,4 C 7,0 C 9,7 km/h (2 Bft) 100,00 %
01.11.2015 02:40 7,0 C 78 % 1030,8 hPa 0,0 l/m 4,6 km/h (1 Bft) O-NO 74 0 min 0,000 mm 0,0 UV-I 0 W/m 3,4 C 7,0 C 9,7 km/h (2 Bft) 100,00 %
01.11.2015 02:41 7,0 C 78 % 1030,9 hPa 0,0 l/m 4,8 km/h (1 Bft) O 101 0 min 0,000 mm 0,0 UV-I 0 W/m 3,4 C 7,0 C 9,7 km/h (2 Bft) 100,00 %
01.11.2015 02:42 7,0 C 78 % 1030,8 hPa 0,0 l/m 3,2 km/h (1 Bft) O 85 0 min 0,000 mm 0,0 UV-I 0 W/m 3,4 C 7,0 C 4,8 km/h (1 Bft) 100,00 %
01.11.2015 02:43 6,9 C 78 % 1030,8 hPa 0,0 l/m 3,6 km/h (1 Bft) O 89 0 min 0,000 mm 0,0 UV-I 0 W/m 3,3 C 6,9 C 8,0 km/h (2 Bft) 95,83 %
01.11.2015 02:44 6,9 C 78 % 1030,8 hPa 0,0 l/m 4,1 km/h (1 Bft) O 86 0 min 0,000 mm 0,0 UV-I 0 W/m 3,3 C 6,9 C 6,4 km/h (2 Bft) 99,35 %
01.11.2015 02:45 6,9 C 78 % 1030,8 hPa 0,0 l/m 4,0 km/h (1 Bft) O 82 0 min 0,000 mm 0,0 UV-I 0 W/m 3,3 C 6,9 C 6,4 km/h (2 Bft) 100,00 %
01.11.2015 02:46 6,9 C 78 % 1030,8 hPa 0,0 l/m 2,5 km/h (1 Bft) O 101 0 min 0,000 mm 0,0 UV-I 0 W/m 3,3 C 6,9 C 3,2 km/h (1 Bft) 100,00 %
01.11.2015 02:47 6,9 C 78 % 1030,8 hPa 0,0 l/m 3,4 km/h (1 Bft) O 94 0 min 0,000 mm 0,0 UV-I 0 W/m 3,3 C 6,9 C 6,4 km/h (2 Bft) 100,00 %
01.11.2015 02:48 6,8 C 78 % 1030,7 hPa 0,0 l/m 4,5 km/h (1 Bft) O-NO 72 0 min 0,000 mm 0,0 UV-I 0 W/m 3,2 C 6,8 C 6,4 km/h (2 Bft) 100,00 %
01.11.2015 02:49 6,8 C 78 % 1030,8 hPa 0,0 l/m 3,0 km/h (1 Bft) O 80 0 min 0,000 mm 0,0 UV-I 0 W/m 3,2 C 6,8 C 4,8 km/h (1 Bft) 95,65 %
01.11.2015 02:50 6,8 C 78 % 1030,7 hPa 0,0 l/m 4,8 km/h (1 Bft) O 88 0 min 0,000 mm 0,0 UV-I 0 W/m 3,2 C 6,8 C 9,7 km/h (2 Bft) 91,67 %
01.11.2015 02:51 6,8 C 78 % 1030,8 hPa 0,0 l/m 4,2 km/h (1 Bft) O 87 0 min 0,000 mm 0,0 UV-I 0 W/m 3,2 C 6,8 C 9,7 km/h (2 Bft) 91,30 %
01.11.2015 02:52 6,8 C 78 % 1030,8 hPa 0,0 l/m 8,5 km/h (2 Bft) O 94 0 min 0,000 mm 0,0 UV-I 0 W/m 3,2 C 5,1 C 12,9 km/h (3 Bft) 100,00 %
01.11.2015 02:53 6,8 C 78 % 1030,9 hPa 0,0 l/m 4,0 km/h (1 Bft) O 84 0 min 0,000 mm 0,0 UV-I 0 W/m 3,2 C 6,8 C 4,8 km/h (1 Bft) 100,00 %
01.11.2015 02:54 6,8 C 78 % 1030,9 hPa 0,0 l/m 7,1 km/h (2 Bft) NO 42 0 min 0,000 mm 0,0 UV-I 0 W/m 3,2 C 6,2 C 11,3 km/h (2 Bft) 95,83 %
01.11.2015 02:55 6,8 C 78 % 1030,9 hPa 0,0 l/m 7,8 km/h (2 Bft) O-NO 76 0 min 0,000 mm 0,0 UV-I 0 W/m 3,2 C 5,6 C 11,3 km/h (2 Bft) 92,86 %
01.11.2015 02:56 6,8 C 78 % 1030,8 hPa 0,0 l/m 8,6 km/h (2 Bft) O-SO 113 0 min 0,000 mm 0,0 UV-I 0 W/m 3,2 C 5,0 C 12,9 km/h (3 Bft) 100,00 %
01.11.2015 02:57 6,8 C 78 % 1030,8 hPa 0,0 l/m 6,0 km/h (2 Bft) O-NO 64 0 min 0,000 mm 0,0 UV-I 0 W/m 3,2 C 6,8 C 11,3 km/h (2 Bft) 100,00 %
01.11.2015 02:58 6,9 C 78 % 1030,8 hPa 0,0 l/m 7,8 km/h (2 Bft) O 80 0 min 0,000 mm 0,0 UV-I 0 W/m 3,3 C 5,8 C 12,9 km/h (3 Bft) 100,00 %
01.11.2015 02:59 6,9 C 78 % 1030,8 hPa 0,0 l/m 10,2 km/h (2 Bft) O-NO 78 0 min 0,000 mm 0,0 UV-I 0 W/m 3,3 C 4,0 C 14,5 km/h (3 Bft) 100,00 %
01.11.2015 03:00 6,9 C 78 % 1030,7 hPa 0,0 l/m 6,8 km/h (2 Bft) O 86 0 min 0,025 mm 0,0 UV-I 0 W/m 3,3 C 6,6 C 11,3 km/h (2 Bft) 100,00 %
01.11.2015 03:02 6,9 C 78 % 1030,7 hPa 0,0 l/m 7,6 km/h (2 Bft) NO 36 0 min 0,000 mm 0,0 UV-I 0 W/m 3,3 C 5,9 C 12,9 km/h (3 Bft) 100,00 %
01.11.2015 03:03 6,9 C 78 % 1030,8 hPa 0,0 l/m 7,4 km/h (2 Bft) O 84 0 min 0,000 mm 0,0 UV-I 0 W/m 3,3 C 6,1 C 11,3 km/h (2 Bft) 100,00 %
01.11.2015 03:04 6,9 C 78 % 1030,8 hPa 0,0 l/m 8,1 km/h (2 Bft) O-SO 103 0 min 0,000 mm 0,0 UV-I 0 W/m 3,3 C 5,5 C 12,9 km/h (3 Bft) 100,00 %
01.11.2015 03:05 6,9 C 78 % 1030,8 hPa 0,0 l/m 6,5 km/h (2 Bft) O-NO 72 0 min 0,000 mm 0,0 UV-I 0 W/m 3,3 C 6,8 C 12,9 km/h (3 Bft) 100,00 %
01.11.2015 03:06 6,9 C 78 % 1030,8 hPa 0,0 l/m 6,8 km/h (2 Bft) O-NO 65 0 min 0,000 mm 0,0 UV-I 0 W/m 3,3 C 6,6 C 11,3 km/h (2 Bft) 100,00 %
01.11.2015 03:07 6,9 C 78 % 1030,8 hPa 0,0 l/m 7,2 km/h (2 Bft) O-NO 67 0 min 0,000 mm 0,0 UV-I 0 W/m 3,3 C 6,2 C 11,3 km/h (2 Bft) 100,00 %
01.11.2015 03:08 6,8 C 78 % 1030,8 hPa 0,0 l/m 5,4 km/h (1 Bft) O-NO 75 0 min 0,000 mm 0,0 UV-I 0 W/m 3,2 C 6,8 C 6,4 km/h (2 Bft) 100,00 %
01.11.2015 03:09 6,8 C 78 % 1030,8 hPa 0,0 l/m 5,6 km/h (1 Bft) O-NO 68 0 min 0,000 mm 0,0 UV-I 0 W/m 3,2 C 6,8 C 6,4 km/h (2 Bft) 100,00 %
01.11.2015 03:10 6,8 C 78 % 1030,8 hPa 0,0 l/m 6,7 km/h (2 Bft) O-NO 78 0 min 0,000 mm 0,0 UV-I 0 W/m 3,2 C 6,6 C 9,7 km/h (2 Bft) 100,00 %
01.11.2015 03:11 6,7 C 78 % 1030,8 hPa 0,0 l/m 5,8 km/h (2 Bft) O 82 0 min 0,000 mm 0,0 UV-I 0 W/m 3,1 C 6,7 C 8,0 km/h (2 Bft) 100,00 %
01.11.2015 03:12 6,7 C 78 % 1030,8 hPa 0,0 l/m 6,9 km/h (2 Bft) O-NO 78 0 min 0,000 mm 0,0 UV-I 0 W/m 3,1 C 6,3 C 9,7 km/h (2 Bft) 100,00 %
01.11.2015 03:13 6,7 C 78 % 1030,8 hPa 0,0 l/m 7,5 km/h (2 Bft) NO 49 0 min 0,000 mm 0,0 UV-I 0 W/m 3,1 C 5,8 C 11,3 km/h (2 Bft) 95,83 %
01.11.2015 03:14 6,7 C 78 % 1030,8 hPa 0,0 l/m 6,6 km/h (2 Bft) O 92 0 min 0,000 mm 0,0 UV-I 0 W/m 3,1 C 6,6 C 9,7 km/h (2 Bft) 100,00 %
01.11.2015 03:15 6,7 C 78 % 1030,8 hPa 0,0 l/m 6,1 km/h (2 Bft) O-NO 67 0 min 0,000 mm 0,0 UV-I 0 W/m 3,1 C 6,7 C 8,0 km/h (2 Bft) 100,00 %
01.11.2015 03:16 6,7 C 78 % 1030,8 hPa 0,0 l/m 4,4 km/h (1 Bft) O 88 0 min 0,000 mm 0,0 UV-I 0 W/m 3,1 C 6,7 C 6,4 km/h (2 Bft) 100,00 %
01.11.2015 03:17 6,7 C 78 % 1030,8 hPa 0,0 l/m 4,6 km/h (1 Bft) O-NO 67 0 min 0,000 mm 0,0 UV-I 0 W/m 3,1 C 6,7 C 6,4 km/h (2 Bft) 100,00 %
01.11.2015 03:18 6,7 C 78 % 1030,8 hPa 0,0 l/m 3,5 km/h (1 Bft) O-NO 57 0 min 0,000 mm 0,0 UV-I 0 W/m 3,1 C 6,7 C 6,4 km/h (2 Bft) 100,00 %
01.11.2015 03:19 6,7 C 78 % 1030,8 hPa 0,0 l/m 4,3 km/h (1 Bft) O 84 0 min 0,000 mm 0,0 UV-I 0 W/m 3,1 C 6,7 C 6,4 km/h (2 Bft) 100,00 %
01.11.2015 03:20 6,7 C 78 % 1030,8 hPa 0,0 l/m 3,4 km/h (1 Bft) O 93 0 min 0,000 mm 0,0 UV-I 0 W/m 3,1 C 6,7 C 6,4 km/h (2 Bft) 100,00 %
01.11.2015 03:21 6,7 C 78 % 1030,8 hPa 0,0 l/m 4,8 km/h (1 Bft) O 88 0 min 0,000 mm 0,0 UV-I 0 W/m 3,1 C 6,7 C 6,4 km/h (2 Bft) 100,00 %
01.11.2015 03:22 6,7 C 78 % 1030,8 hPa 0,0 l/m 5,9 km/h (2 Bft) O 95 0 min 0,000 mm 0,0 UV-I 0 W/m 3,1 C 6,7 C 8,0 km/h (2 Bft) 100,00 %
01.11.2015 03:23 6,7 C 78 % 1030,9 hPa 0,0 l/m 3,6 km/h (1 Bft) O 90 0 min 0,000 mm 0,0 UV-I 0 W/m 3,1 C 6,7 C 6,4 km/h (2 Bft) 100,00 %
01.11.2015 03:24 6,7 C 78 % 1030,9 hPa 0,0 l/m 5,6 km/h (1 Bft) O-NO 76 0 min 0,000 mm 0,0 UV-I 0 W/m 3,1 C 6,7 C 11,3 km/h (2 Bft) 100,00 %
01.11.2015 03:25 6,7 C 78 % 1030,9 hPa 0,0 l/m 6,6 km/h (2 Bft) O-NO 76 0 min 0,000 mm 0,0 UV-I 0 W/m 3,1 C 6,6 C 11,3 km/h (2 Bft) 95,83 %
01.11.2015 03:26 6,7 C 78 % 1030,9 hPa 0,0 l/m 5,6 km/h (1 Bft) O 95 0 min 0,000 mm 0,0 UV-I 0 W/m 3,1 C 6,7 C 11,3 km/h (2 Bft) 100,00 %
01.11.2015 03:27 6,7 C 78 % 1030,8 hPa 0,0 l/m 5,4 km/h (1 Bft) O-NO 61 0 min 0,000 mm 0,0 UV-I 0 W/m 3,1 C 6,7 C 8,0 km/h (2 Bft) 100,00 %
01.11.2015 03:28 6,7 C 78 % 1030,8 hPa 0,0 l/m 5,1 km/h (1 Bft) O-NO 76 0 min 0,000 mm 0,0 UV-I 0 W/m 3,1 C 6,7 C 9,7 km/h (2 Bft) 91,30 %
01.11.2015 03:29 6,8 C 78 % 1030,8 hPa 0,0 l/m 5,2 km/h (1 Bft) O-NO 77 0 min 0,000 mm 0,0 UV-I 0 W/m 3,2 C 6,8 C 9,7 km/h (2 Bft) 100,00 %
01.11.2015 03:30 6,8 C 78 % 1030,8 hPa 0,0 l/m 5,5 km/h (1 Bft) O-NO 65 0 min 0,000 mm 0,0 UV-I 0 W/m 3,2 C 6,8 C 9,7 km/h (2 Bft) 100,00 %
01.11.2015 03:31 6,8 C 78 % 1030,9 hPa 0,0 l/m 6,0 km/h (2 Bft) O-NO 67 0 min 0,000 mm 0,0 UV-I 0 W/m 3,2 C 6,8 C 11,3 km/h (2 Bft) 100,00 %
01.11.2015 03:32 6,8 C 78 % 1030,9 hPa 0,0 l/m 5,9 km/h (2 Bft) O 79 0 min 0,000 mm 0,0 UV-I 0 W/m 3,2 C 6,8 C 12,9 km/h (3 Bft) 100,00 %
01.11.2015 03:33 6,8 C 78 % 1030,8 hPa 0,0 l/m 6,3 km/h (2 Bft) O-NO 70 0 min 0,000 mm 0,0 UV-I 0 W/m 3,2 C 6,8 C 9,7 km/h (2 Bft) 100,00 %
01.11.2015 03:34 6,8 C 78 % 1030,8 hPa 0,0 l/m 9,0 km/h (2 Bft) O-NO 65 0 min 0,000 mm 0,0 UV-I 0 W/m 3,2 C 4,7 C 12,9 km/h (3 Bft) 100,00 %
01.11.2015 03:35 6,8 C 78 % 1030,8 hPa 0,0 l/m 9,2 km/h (2 Bft) N-NO 21 0 min 0,000 mm 0,0 UV-I 0 W/m 3,2 C 4,6 C 12,9 km/h (3 Bft) 100,00 %
01.11.2015 03:36 6,8 C 78 % 1030,9 hPa 0,0 l/m 8,8 km/h (2 Bft) N-NO 32 0 min 0,000 mm 0,0 UV-I 0 W/m 3,2 C 4,9 C 14,5 km/h (3 Bft) 100,00 %
01.11.2015 03:37 6,8 C 78 % 1030,9 hPa 0,0 l/m 7,7 km/h (2 Bft) O-NO 71 0 min 0,000 mm 0,0 UV-I 0 W/m 3,2 C 5,7 C 11,3 km/h (2 Bft) 100,00 %
01.11.2015 03:38 6,7 C 78 % 1030,9 hPa 0,0 l/m 5,8 km/h (2 Bft) O 88 0 min 0,000 mm 0,0 UV-I 0 W/m 3,1 C 6,7 C 8,0 km/h (2 Bft) 91,67 %
01.11.2015 03:39 6,7 C 78 % 1030,9 hPa 0,0 l/m 4,2 km/h (1 Bft) O 79 0 min 0,000 mm 0,0 UV-I 0 W/m 3,1 C 6,7 C 6,4 km/h (2 Bft) 96,15 %
01.11.2015 03:40 6,7 C 78 % 1030,9 hPa 0,0 l/m 6,1 km/h (2 Bft) O-NO 78 0 min 0,000 mm 0,0 UV-I 0 W/m 3,1 C 6,7 C 9,7 km/h (2 Bft) 100,00 %
01.11.2015 03:41 6,7 C 78 % 1031,0 hPa 0,0 l/m 5,6 km/h (1 Bft) O 94 0 min 0,000 mm 0,0 UV-I 0 W/m 3,1 C 6,7 C 9,7 km/h (2 Bft) 100,00 %
01.11.2015 03:42 6,7 C 78 % 1031,0 hPa 0,0 l/m 4,3 km/h (1 Bft) O-SO 111 0 min 0,000 mm 0,0 UV-I 0 W/m 3,1 C 6,7 C 6,4 km/h (2 Bft) 100,00 %
01.11.2015 03:43 6,7 C 78 % 1031,0 hPa 0,0 l/m 3,1 km/h (1 Bft) O-NO 70 0 min 0,000 mm 0,0 UV-I 0 W/m 3,1 C 6,7 C 6,4 km/h (2 Bft) 96,15 %
01.11.2015 03:44 6,7 C 78 % 1031,0 hPa 0,0 l/m 3,6 km/h (1 Bft) O 84 0 min 0,000 mm 0,0 UV-I 0 W/m 3,1 C 6,7 C 8,0 km/h (2 Bft) 100,00 %
01.11.2015 03:45 6,6 C 78 % 1030,9 hPa 0,0 l/m 3,0 km/h (1 Bft) O-NO 72 0 min 0,000 mm 0,0 UV-I 0 W/m 3,0 C 6,6 C 4,8 km/h (1 Bft) 100,00 %
01.11.2015 03:46 6,6 C 78 % 1031,0 hPa 0,0 l/m 2,3 km/h (1 Bft) O 86 0 min 0,000 mm 0,0 UV-I 0 W/m 3,0 C 6,6 C 4,8 km/h (1 Bft) 96,15 %
01.11.2015 03:47 6,5 C 79 % 1030,9 hPa 0,0 l/m 1,4 km/h (1 Bft) O 86 0 min 0,000 mm 0,0 UV-I 0 W/m 3,1 C 6,5 C 3,2 km/h (1 Bft) 100,00 %
01.11.2015 03:48 6,4 C 79 % 1030,9 hPa 0,0 l/m 1,7 km/h (1 Bft) O 85 0 min 0,000 mm 0,0 UV-I 0 W/m 3,0 C 6,4 C 4,8 km/h (1 Bft) 100,00 %
01.11.2015 03:49 6,4 C 79 % 1030,9 hPa 0,0 l/m 2,8 km/h (1 Bft) O 82 0 min 0,000 mm 0,0 UV-I 0 W/m 3,0 C 6,4 C 3,2 km/h (1 Bft) 100,00 %
01.11.2015 03:50 6,4 C 79 % 1030,9 hPa 0,0 l/m 0,5 km/h (0 Bft) O 82 0 min 0,000 mm 0,0 UV-I 0 W/m 3,0 C 6,4 C 1,6 km/h (1 Bft) 95,65 %
01.11.2015 03:51 6,3 C 79 % 1030,9 hPa 0,0 l/m 3,8 km/h (1 Bft) O 86 0 min 0,000 mm 0,0 UV-I 0 W/m 2,9 C 6,3 C 9,7 km/h (2 Bft) 100,00 %
01.11.2015 03:52 6,3 C 79 % 1030,9 hPa 0,0 l/m 1,0 km/h (0 Bft) O-NO 69 0 min 0,000 mm 0,0 UV-I 0 W/m 2,9 C 6,3 C 3,2 km/h (1 Bft) 100,00 %
01.11.2015 03:53 6,3 C 79 % 1030,9 hPa 0,0 l/m 0,9 km/h (0 Bft) O-NO 69 0 min 0,000 mm 0,0 UV-I 0 W/m 2,9 C 6,3 C 3,2 km/h (1 Bft) 100,00 %
01.11.2015 03:54 6,3 C 79 % 1030,9 hPa 0,0 l/m 0,9 km/h (0 Bft) O-NO 67 0 min 0,000 mm 0,0 UV-I 0 W/m 2,9 C 6,3 C 1,6 km/h (1 Bft) 100,00 %
01.11.2015 03:55 6,2 C 80 % 1030,9 hPa 0,0 l/m 0,9 km/h (0 Bft) O-NO 67 0 min 0,000 mm 0,0 UV-I 0 W/m 3,0 C 6,2 C 3,2 km/h (1 Bft) 100,00 %
01.11.2015 03:56 6,2 C 80 % 1030,9 hPa 0,0 l/m 1,5 km/h (1 Bft) NO 56 0 min 0,000 mm 0,0 UV-I 0 W/m 3,0 C 6,2 C 4,8 km/h (1 Bft) 100,00 %
01.11.2015 03:57 6,2 C 80 % 1030,9 hPa 0,0 l/m 1,5 km/h (1 Bft) O-NO 63 0 min 0,000 mm 0,0 UV-I 0 W/m 3,0 C 6,2 C 3,2 km/h (1 Bft) 100,00 %
01.11.2015 03:58 6,2 C 80 % 1030,8 hPa 0,0 l/m 0,0 km/h (0 Bft) O-NO 63 0 min 0,000 mm 0,0 UV-I 0 W/m 3,0 C 6,2 C 0,0 km/h (0 Bft) 96,15 %
01.11.2015 03:59 6,2 C 80 % 1030,9 hPa 0,0 l/m 1,9 km/h (1 Bft) O-NO 78 0 min 0,000 mm 0,0 UV-I 0 W/m 3,0 C 6,2 C 3,2 km/h (1 Bft) 100,00 %
01.11.2015 04:00 6,2 C 80 % 1030,9 hPa 0,0 l/m 1,2 km/h (1 Bft) O-NO 78 0 min 0,026 mm 0,0 UV-I 0 W/m 3,0 C 6,2 C 1,6 km/h (1 Bft) 100,00 %
01.11.2015 04:03 6,3 C 80 % 1030,9 hPa 0,0 l/m 2,3 km/h (1 Bft) O 84 0 min 0,000 mm 0,0 UV-I 0 W/m 3,1 C 6,3 C 4,8 km/h (1 Bft) 100,00 %
01.11.2015 04:04 6,3 C 80 % 1030,9 hPa 0,0 l/m 2,4 km/h (1 Bft) O-NO 78 0 min 0,000 mm 0,0 UV-I 0 W/m 3,1 C 6,3 C 4,8 km/h (1 Bft) 100,00 %
01.11.2015 04:05 6,3 C 80 % 1030,9 hPa 0,0 l/m 4,8 km/h (1 Bft) O 94 0 min 0,000 mm 0,0 UV-I 0 W/m 3,1 C 6,3 C 9,7 km/h (2 Bft) 100,00 %
01.11.2015 04:06 6,4 C 79 % 1030,9 hPa 0,0 l/m 4,8 km/h (1 Bft) O 93 0 min 0,000 mm 0,0 UV-I 0 W/m 3,0 C 6,4 C 8,0 km/h (2 Bft) 100,00 %
01.11.2015 04:07 6,4 C 79 % 1030,9 hPa 0,0 l/m 6,3 km/h (2 Bft) O 93 0 min 0,000 mm 0,0 UV-I 0 W/m 3,0 C 6,4 C 11,3 km/h (2 Bft) 100,00 %
01.11.2015 04:08 6,4 C 79 % 1030,8 hPa 0,0 l/m 6,1 km/h (2 Bft) O 83 0 min 0,000 mm 0,0 UV-I 0 W/m 3,0 C 6,4 C 8,0 km/h (2 Bft) 100,00 %
01.11.2015 04:09 6,5 C 79 % 1030,8 hPa 0,0 l/m 4,1 km/h (1 Bft) O 85 0 min 0,000 mm 0,0 UV-I 0 W/m 3,1 C 6,5 C 4,8 km/h (1 Bft) 100,00 %
01.11.2015 04:10 6,5 C 79 % 1030,8 hPa 0,0 l/m 3,9 km/h (1 Bft) O-NO 66 0 min 0,000 mm 0,0 UV-I 0 W/m 3,1 C 6,5 C 4,8 km/h (1 Bft) 100,00 %
01.11.2015 04:11 6,6 C 79 % 1030,8 hPa 0,0 l/m 5,6 km/h (1 Bft) O-NO 67 0 min 0,000 mm 0,0 UV-I 0 W/m 3,2 C 6,6 C 8,0 km/h (2 Bft) 100,00 %
01.11.2015 04:12 6,6 C 79 % 1030,8 hPa 0,0 l/m 4,4 km/h (1 Bft) O-NO 67 0 min 0,000 mm 0,0 UV-I 0 W/m 3,2 C 6,6 C 6,4 km/h (2 Bft) 100,00 %
01.11.2015 04:13 6,6 C 79 % 1030,8 hPa 0,0 l/m 4,9 km/h (1 Bft) O 80 0 min 0,000 mm 0,0 UV-I 0 W/m 3,2 C 6,6 C 6,4 km/h (2 Bft) 96,15 %
01.11.2015 04:14 6,6 C 79 % 1030,8 hPa 0,0 l/m 3,2 km/h (1 Bft) O-NO 73 0 min 0,000 mm 0,0 UV-I 0 W/m 3,2 C 6,6 C 4,8 km/h (1 Bft) 100,00 %
01.11.2015 04:15 6,6 C 79 % 1030,8 hPa 0,0 l/m 3,4 km/h (1 Bft) O 87 0 min 0,000 mm 0,0 UV-I 0 W/m 3,2 C 6,6 C 6,4 km/h (2 Bft) 96,55 %
01.11.2015 04:16 6,6 C 79 % 1030,8 hPa 0,0 l/m 5,0 km/h (1 Bft) O-NO 71 0 min 0,000 mm 0,0 UV-I 0 W/m 3,2 C 6,6 C 11,3 km/h (2 Bft) 100,00 %
01.11.2015 04:17 6,6 C 79 % 1030,8 hPa 0,0 l/m 4,1 km/h (1 Bft) O-NO 74 0 min 0,000 mm 0,0 UV-I 0 W/m 3,2 C 6,6 C 6,4 km/h (2 Bft) 100,00 %
01.11.2015 04:18 6,6 C 79 % 1030,8 hPa 0,0 l/m 4,5 km/h (1 Bft) O 94 0 min 0,000 mm 0,0 UV-I 0 W/m 3,2 C 6,6 C 6,4 km/h (2 Bft) 100,00 %
01.11.2015 04:19 6,5 C 79 % 1030,8 hPa 0,0 l/m 4,2 km/h (1 Bft) O 88 0 min 0,000 mm 0,0 UV-I 0 W/m 3,1 C 6,5 C 6,4 km/h (2 Bft) 100,00 %
01.11.2015 04:20 6,5 C 79 % 1030,8 hPa 0,0 l/m 5,1 km/h (1 Bft) O 80 0 min 0,000 mm 0,0 UV-I 0 W/m 3,1 C 6,5 C 8,0 km/h (2 Bft) 100,00 %
01.11.2015 04:21 6,5 C 79 % 1030,8 hPa 0,0 l/m 4,0 km/h (1 Bft) O-SO 109 0 min 0,000 mm 0,0 UV-I 0 W/m 3,1 C 6,5 C 9,7 km/h (2 Bft) 100,00 %
01.11.2015 04:22 6,4 C 79 % 1030,8 hPa 0,0 l/m 2,7 km/h (1 Bft) O 88 0 min 0,000 mm 0,0 UV-I 0 W/m 3,0 C 6,4 C 4,8 km/h (1 Bft) 100,00 %
01.11.2015 04:23 6,3 C 79 % 1030,8 hPa 0,0 l/m 2,4 km/h (1 Bft) O 90 0 min 0,000 mm 0,0 UV-I 0 W/m 2,9 C 6,3 C 4,8 km/h (1 Bft) 100,00 %
01.11.2015 04:24 6,3 C 79 % 1030,8 hPa 0,0 l/m 2,5 km/h (1 Bft) O-NO 73 0 min 0,000 mm 0,0 UV-I 0 W/m 2,9 C 6,3 C 4,8 km/h (1 Bft) 100,00 %
01.11.2015 04:25 6,2 C 80 % 1030,9 hPa 0,0 l/m 3,2 km/h (1 Bft) O 90 0 min 0,000 mm 0,0 UV-I 0 W/m 3,0 C 6,2 C 4,8 km/h (1 Bft) 100,00 %
01.11.2015 04:26 6,2 C 80 % 1030,9 hPa 0,0 l/m 3,5 km/h (1 Bft) O-NO 69 0 min 0,000 mm 0,0 UV-I 0 W/m 3,0 C 6,2 C 4,8 km/h (1 Bft) 100,00 %
01.11.2015 04:27 6,2 C 80 % 1031,0 hPa 0,0 l/m 3,6 km/h (1 Bft) O 90 0 min 0,000 mm 0,0 UV-I 0 W/m 3,0 C 6,2 C 4,8 km/h (1 Bft) 95,83 %
01.11.2015 04:28 6,2 C 80 % 1030,9 hPa 0,0 l/m 4,0 km/h (1 Bft) O 86 0 min 0,000 mm 0,0 UV-I 0 W/m 3,0 C 6,2 C 6,4 km/h (2 Bft) 100,00 %
01.11.2015 04:29 6,2 C 80 % 1031,0 hPa 0,0 l/m 3,4 km/h (1 Bft) O 86 0 min 0,000 mm 0,0 UV-I 0 W/m 3,0 C 6,2 C 4,8 km/h (1 Bft) 100,00 %
01.11.2015 04:30 6,2 C 80 % 1031,0 hPa 0,0 l/m 3,0 km/h (1 Bft) O 84 0 min 0,000 mm 0,0 UV-I 0 W/m 3,0 C 6,2 C 4,8 km/h (1 Bft) 100,00 %
01.11.2015 04:31 6,2 C 80 % 1031,0 hPa 0,0 l/m 2,8 km/h (1 Bft) O 79 0 min 0,000 mm 0,0 UV-I 0 W/m 3,0 C 6,2 C 4,8 km/h (1 Bft) 100,00 %
01.11.2015 04:32 6,2 C 80 % 1031,0 hPa 0,0 l/m 3,2 km/h (1 Bft) O-NO 59 0 min 0,000 mm 0,0 UV-I 0 W/m 3,0 C 6,2 C 4,8 km/h (1 Bft) 100,00 %
01.11.2015 04:33 6,2 C 80 % 1031,0 hPa 0,0 l/m 2,3 km/h (1 Bft) O-NO 73 0 min 0,000 mm 0,0 UV-I 0 W/m 3,0 C 6,2 C 3,2 km/h (1 Bft) 100,00 %
01.11.2015 04:34 6,2 C 80 % 1031,0 hPa 0,0 l/m 0,8 km/h (0 Bft) O-NO 73 0 min 0,000 mm 0,0 UV-I 0 W/m 3,0 C 6,2 C 3,2 km/h (1 Bft) 100,00 %
01.11.2015 04:35 6,2 C 80 % 1031,0 hPa 0,0 l/m 3,2 km/h (1 Bft) O-NO 71 0 min 0,000 mm 0,0 UV-I 0 W/m 3,0 C 6,2 C 4,8 km/h (1 Bft) 100,00 %
01.11.2015 04:36 6,2 C 80 % 1031,0 hPa 0,0 l/m 1,8 km/h (1 Bft) O 90 0 min 0,000 mm 0,0 UV-I 0 W/m 3,0 C 6,2 C 4,8 km/h (1 Bft) 100,00 %
01.11.2015 04:37 6,2 C 80 % 1031,0 hPa 0,0 l/m 3,6 km/h (1 Bft) O 79 0 min 0,000 mm 0,0 UV-I 0 W/m 3,0 C 6,2 C 4,8 km/h (1 Bft) 95,83 %
01.11.2015 04:38 6,1 C 80 % 1031,0 hPa 0,0 l/m 3,2 km/h (1 Bft) O-NO 71 0 min 0,000 mm 0,0 UV-I 0 W/m 2,9 C 6,1 C 4,8 km/h (1 Bft) 95,65 %
01.11.2015 04:39 6,1 C 80 % 1031,0 hPa 0,0 l/m 3,9 km/h (1 Bft) O 82 0 min 0,000 mm 0,0 UV-I 0 W/m 2,9 C 6,1 C 6,4 km/h (2 Bft) 100,00 %
01.11.2015 04:40 6,1 C 80 % 1031,0 hPa 0,0 l/m 3,9 km/h (1 Bft) O 82 0 min 0,000 mm 0,0 UV-I 0 W/m 2,9 C 6,1 C 6,4 km/h (2 Bft) 96,15 %
01.11.2015 04:41 6,1 C 80 % 1031,0 hPa 0,0 l/m 3,3 km/h (1 Bft) O-NO 71 0 min 0,000 mm 0,0 UV-I 0 W/m 2,9 C 6,1 C 4,8 km/h (1 Bft) 100,00 %
01.11.2015 04:42 6,1 C 80 % 1031,0 hPa 0,0 l/m 4,2 km/h (1 Bft) O 82 0 min 0,000 mm 0,0 UV-I 0 W/m 2,9 C 6,1 C 6,4 km/h (2 Bft) 100,00 %
01.11.2015 04:43 6,1 C 80 % 1031,0 hPa 0,0 l/m 2,5 km/h (1 Bft) O 84 0 min 0,000 mm 0,0 UV-I 0 W/m 2,9 C 6,1 C 4,8 km/h (1 Bft) 100,00 %
01.11.2015 04:44 6,1 C 80 % 1031,1 hPa 0,0 l/m 3,0 km/h (1 Bft) O-NO 66 0 min 0,000 mm 0,0 UV-I 0 W/m 2,9 C 6,1 C 4,8 km/h (1 Bft) 95,65 %
01.11.2015 04:45 6,1 C 80 % 1031,1 hPa 0,0 l/m 1,6 km/h (1 Bft) O-NO 66 0 min 0,000 mm 0,0 UV-I 0 W/m 2,9 C 6,1 C 3,2 km/h (1 Bft) 95,83 %
01.11.2015 04:46 6,1 C 80 % 1031,0 hPa 0,0 l/m 1,9 km/h (1 Bft) O 94 0 min 0,000 mm 0,0 UV-I 0 W/m 2,9 C 6,1 C 3,2 km/h (1 Bft) 100,00 %
01.11.2015 04:47 6,1 C 81 % 1031,0 hPa 0,0 l/m 2,6 km/h (1 Bft) O 91 0 min 0,000 mm 0,0 UV-I 0 W/m 3,1 C 6,1 C 4,8 km/h (1 Bft) 95,83 %
01.11.2015 04:48 6,1 C 81 % 1031,1 hPa 0,0 l/m 2,9 km/h (1 Bft) O-NO 76 0 min 0,000 mm 0,0 UV-I 0 W/m 3,1 C 6,1 C 4,8 km/h (1 Bft) 100,00 %
01.11.2015 04:49 6,0 C 81 % 1031,0 hPa 0,0 l/m 2,8 km/h (1 Bft) O 84 0 min 0,000 mm 0,0 UV-I 0 W/m 3,0 C 6,0 C 4,8 km/h (1 Bft) 100,00 %
01.11.2015 04:50 6,0 C 81 % 1031,0 hPa 0,0 l/m 2,9 km/h (1 Bft) N-NO 31 0 min 0,000 mm 0,0 UV-I 0 W/m 3,0 C 6,0 C 4,8 km/h (1 Bft) 100,00 %
01.11.2015 04:51 5,9 C 81 % 1031,1 hPa 0,0 l/m 1,1 km/h (1 Bft) O 97 0 min 0,000 mm 0,0 UV-I 0 W/m 2,9 C 5,9 C 3,2 km/h (1 Bft) 100,00 %
01.11.2015 04:52 5,9 C 81 % 1031,1 hPa 0,0 l/m 1,6 km/h (1 Bft) O 90 0 min 0,000 mm 0,0 UV-I 0 W/m 2,9 C 5,9 C 3,2 km/h (1 Bft) 95,83 %
01.11.2015 04:53 5,8 C 81 % 1031,1 hPa 0,0 l/m 0,7 km/h (0 Bft) O 90 0 min 0,000 mm 0,0 UV-I 0 W/m 2,8 C 5,8 C 1,6 km/h (1 Bft) 100,00 %
01.11.2015 04:54 5,8 C 81 % 1031,1 hPa 0,0 l/m 1,4 km/h (1 Bft) O 90 0 min 0,000 mm 0,0 UV-I 0 W/m 2,8 C 5,8 C 3,2 km/h (1 Bft) 100,00 %
01.11.2015 04:55 5,8 C 81 % 1031,1 hPa 0,0 l/m 1,3 km/h (1 Bft) O 90 0 min 0,000 mm 0,0 UV-I 0 W/m 2,8 C 5,8 C 3,2 km/h (1 Bft) 100,00 %
01.11.2015 04:56 5,7 C 81 % 1031,1 hPa 0,0 l/m 1,1 km/h (1 Bft) O 90 0 min 0,000 mm 0,0 UV-I 0 W/m 2,7 C 5,7 C 3,2 km/h (1 Bft) 100,00 %
01.11.2015 04:57 5,7 C 81 % 1031,0 hPa 0,0 l/m 0,2 km/h (0 Bft) O 90 0 min 0,000 mm 0,0 UV-I 0 W/m 2,7 C 5,7 C 1,6 km/h (1 Bft) 100,00 %
01.11.2015 04:58 5,6 C 82 % 1031,0 hPa 0,0 l/m 0,3 km/h (0 Bft) O 90 0 min 0,000 mm 0,0 UV-I 0 W/m 2,8 C 5,6 C 1,6 km/h (1 Bft) 100,00 %
01.11.2015 04:59 5,6 C 82 % 1031,0 hPa 0,0 l/m 0,4 km/h (0 Bft) O 90 0 min 0,000 mm 0,0 UV-I 0 W/m 2,8 C 5,6 C 1,6 km/h (1 Bft) 100,00 %
01.11.2015 05:00 5,6 C 82 % 1031,1 hPa 0,0 l/m 1,2 km/h (1 Bft) NO 54 0 min 0,000 mm 0,0 UV-I 0 W/m 2,8 C 5,6 C 3,2 km/h (1 Bft) 100,00 %
01.11.2015 05:01 5,5 C 82 % 1031,0 hPa 0,0 l/m 1,4 km/h (1 Bft) NO 53 0 min 0,000 mm 0,0 UV-I 0 W/m 2,7 C 5,5 C 1,6 km/h (1 Bft) 96,15 %
01.11.2015 05:02 5,5 C 82 % 1031,0 hPa 0,0 l/m 2,0 km/h (1 Bft) NO 40 0 min 0,000 mm 0,0 UV-I 0 W/m 2,7 C 5,5 C 4,8 km/h (1 Bft) 100,00 %
01.11.2015 05:03 5,4 C 82 % 1031,0 hPa 0,0 l/m 0,9 km/h (0 Bft) NO 39 0 min 0,000 mm 0,0 UV-I 0 W/m 2,6 C 5,4 C 1,6 km/h (1 Bft) 96,15 %
01.11.2015 05:04 5,3 C 83 % 1031,0 hPa 0,0 l/m 0,6 km/h (0 Bft) NO 39 0 min 0,000 mm 0,0 UV-I 0 W/m 2,7 C 5,3 C 1,6 km/h (1 Bft) 100,00 %
01.11.2015 05:05 5,3 C 83 % 1031,0 hPa 0,0 l/m 0,6 km/h (0 Bft) NO 38 0 min 0,000 mm 0,0 UV-I 0 W/m 2,7 C 5,3 C 1,6 km/h (1 Bft) 96,15 %
01.11.2015 05:06 5,2 C 83 % 1031,0 hPa 0,0 l/m 0,8 km/h (0 Bft) NO 38 0 min 0,000 mm 0,0 UV-I 0 W/m 2,6 C 5,2 C 1,6 km/h (1 Bft) 100,00 %
01.11.2015 05:07 5,1 C 83 % 1031,0 hPa 0,0 l/m 0,6 km/h (0 Bft) O-NO 67 0 min 0,000 mm 0,0 UV-I 0 W/m 2,5 C 5,1 C 1,6 km/h (1 Bft) 91,67 %
01.11.2015 05:08 5,1 C 83 % 1031,0 hPa 0,0 l/m 0,9 km/h (0 Bft) O-NO 67 0 min 0,000 mm 0,0 UV-I 0 W/m 2,5 C 5,1 C 1,6 km/h (1 Bft) 100,00 %
01.11.2015 05:09 5,1 C 84 % 1031,0 hPa 0,0 l/m 2,7 km/h (1 Bft) O 86 0 min 0,000 mm 0,0 UV-I 0 W/m 2,6 C 5,1 C 4,8 km/h (1 Bft) 100,00 %
01.11.2015 05:10 5,2 C 84 % 1031,0 hPa 0,0 l/m 4,2 km/h (1 Bft) O-NO 72 0 min 0,000 mm 0,0 UV-I 0 W/m 2,7 C 5,2 C 6,4 km/h (2 Bft) 100,00 %
01.11.2015 05:11 5,2 C 84 % 1031,0 hPa 0,0 l/m 2,6 km/h (1 Bft) O-NO 72 0 min 0,000 mm 0,0 UV-I 0 W/m 2,7 C 5,2 C 4,8 km/h (1 Bft) 100,00 %
01.11.2015 05:12 5,3 C 84 % 1031,0 hPa 0,0 l/m 4,0 km/h (1 Bft) NO 54 0 min 0,000 mm 0,0 UV-I 0 W/m 2,8 C 5,3 C 6,4 km/h (2 Bft) 96,15 %
01.11.2015 05:13 5,3 C 84 % 1031,0 hPa 0,0 l/m 3,7 km/h (1 Bft) O-NO 63 0 min 0,000 mm 0,0 UV-I 0 W/m 2,8 C 5,3 C 6,4 km/h (2 Bft) 100,00 %
01.11.2015 05:14 5,4 C 84 % 1031,0 hPa 0,0 l/m 3,0 km/h (1 Bft) O 79 0 min 0,000 mm 0,0 UV-I 0 W/m 2,9 C 5,4 C 6,4 km/h (2 Bft) 100,00 %
01.11.2015 05:15 5,5 C 83 % 1031,0 hPa 0,0 l/m 4,7 km/h (1 Bft) N-NO 19 0 min 0,000 mm 0,0 UV-I 0 W/m 2,8 C 5,5 C 8,0 km/h (2 Bft) 100,00 %
01.11.2015 05:16 5,5 C 83 % 1031,0 hPa 0,0 l/m 2,1 km/h (1 Bft) O-NO 76 0 min 0,000 mm 0,0 UV-I 0 W/m 2,8 C 5,5 C 4,8 km/h (1 Bft) 100,00 %
01.11.2015 05:17 5,6 C 83 % 1031,0 hPa 0,0 l/m 3,7 km/h (1 Bft) O 79 0 min 0,000 mm 0,0 UV-I 0 W/m 2,9 C 5,6 C 6,4 km/h (2 Bft) 100,00 %
01.11.2015 05:18 5,6 C 83 % 1031,0 hPa 0,0 l/m 3,8 km/h (1 Bft) O 86 0 min 0,000 mm 0,0 UV-I 0 W/m 2,9 C 5,6 C 6,4 km/h (2 Bft) 100,00 %
01.11.2015 05:19 5,6 C 82 % 1031,0 hPa 0,0 l/m 3,7 km/h (1 Bft) O 82 0 min 0,000 mm 0,0 UV-I 0 W/m 2,8 C 5,6 C 6,4 km/h (2 Bft) 100,00 %
01.11.2015 05:20 5,6 C 82 % 1031,0 hPa 0,0 l/m 3,9 km/h (1 Bft) O 89 0 min 0,000 mm 0,0 UV-I 0 W/m 2,8 C 5,6 C 4,8 km/h (1 Bft) 100,00 %
01.11.2015 05:21 5,6 C 82 % 1031,0 hPa 0,0 l/m 4,8 km/h (1 Bft) O-NO 74 0 min 0,000 mm 0,0 UV-I 0 W/m 2,8 C 5,6 C 9,7 km/h (2 Bft) 100,00 %
01.11.2015 05:22 5,6 C 82 % 1031,0 hPa 0,0 l/m 5,8 km/h (2 Bft) O 81 0 min 0,000 mm 0,0 UV-I 0 W/m 2,8 C 5,6 C 9,7 km/h (2 Bft) 96,15 %
01.11.2015 05:23 5,6 C 82 % 1031,0 hPa 0,0 l/m 6,2 km/h (2 Bft) O 91 0 min 0,000 mm 0,0 UV-I 0 W/m 2,8 C 5,6 C 11,3 km/h (2 Bft) 100,00 %
01.11.2015 05:24 5,6 C 82 % 1031,0 hPa 0,0 l/m 6,0 km/h (2 Bft) O 98 0 min 0,000 mm 0,0 UV-I 0 W/m 2,8 C 5,6 C 8,0 km/h (2 Bft) 100,00 %
01.11.2015 05:25 5,6 C 82 % 1031,0 hPa 0,0 l/m 5,9 km/h (2 Bft) O-NO 65 0 min 0,000 mm 0,0 UV-I 0 W/m 2,8 C 5,6 C 9,7 km/h (2 Bft) 100,00 %
01.11.2015 05:26 5,6 C 82 % 1031,0 hPa 0,0 l/m 5,8 km/h (2 Bft) O 88 0 min 0,000 mm 0,0 UV-I 0 W/m 2,8 C 5,6 C 9,7 km/h (2 Bft) 100,00 %
01.11.2015 05:27 5,6 C 82 % 1030,9 hPa 0,0 l/m 3,7 km/h (1 Bft) O 88 0 min 0,000 mm 0,0 UV-I 0 W/m 2,8 C 5,6 C 6,4 km/h (2 Bft) 100,00 %
01.11.2015 05:28 5,6 C 82 % 1030,9 hPa 0,0 l/m 3,7 km/h (1 Bft) O 92 0 min 0,000 mm 0,0 UV-I 0 W/m 2,8 C 5,6 C 4,8 km/h (1 Bft) 100,00 %
01.11.2015 05:29 5,6 C 82 % 1030,9 hPa 0,0 l/m 4,8 km/h (1 Bft) O 86 0 min 0,000 mm 0,0 UV-I 0 W/m 2,8 C 5,6 C 6,4 km/h (2 Bft) 100,00 %
01.11.2015 05:30 5,6 C 82 % 1030,9 hPa 0,0 l/m 4,4 km/h (1 Bft) NO 55 0 min 0,000 mm 0,0 UV-I 0 W/m 2,8 C 5,6 C 6,4 km/h (2 Bft) 100,00 %
01.11.2015 05:31 5,5 C 82 % 1030,9 hPa 0,0 l/m 5,0 km/h (1 Bft) O-SO 110 0 min 0,000 mm 0,0 UV-I 0 W/m 2,7 C 5,5 C 9,7 km/h (2 Bft) 100,00 %
01.11.2015 05:32 5,5 C 82 % 1030,9 hPa 0,0 l/m 5,0 km/h (1 Bft) O-NO 65 0 min 0,000 mm 0,0 UV-I 0 W/m 2,7 C 5,5 C 9,7 km/h (2 Bft) 100,00 %
01.11.2015 05:33 5,4 C 82 % 1031,0 hPa 0,0 l/m 6,8 km/h (2 Bft) O-NO 73 0 min 0,000 mm 0,0 UV-I 0 W/m 2,6 C 5,1 C 12,9 km/h (3 Bft) 100,00 %
01.11.2015 05:34 5,4 C 83 % 1031,0 hPa 0,0 l/m 6,3 km/h (2 Bft) O-NO 77 0 min 0,000 mm 0,0 UV-I 0 W/m 2,7 C 5,4 C 9,7 km/h (2 Bft) 100,00 %
01.11.2015 05:35 5,4 C 83 % 1030,8 hPa 0,0 l/m 6,3 km/h (2 Bft) O 97 0 min 0,000 mm 0,0 UV-I 0 W/m 2,7 C 5,4 C 11,3 km/h (2 Bft) 100,00 %
01.11.2015 05:36 5,4 C 83 % 1030,8 hPa 0,0 l/m 3,2 km/h (1 Bft) O-NO 78 0 min 0,000 mm 0,0 UV-I 0 W/m 2,7 C 5,4 C 4,8 km/h (1 Bft) 100,00 %
01.11.2015 05:37 5,4 C 83 % 1030,9 hPa 0,0 l/m 3,8 km/h (1 Bft) O 96 0 min 0,000 mm 0,0 UV-I 0 W/m 2,7 C 5,4 C 4,8 km/h (1 Bft) 100,00 %
01.11.2015 05:38 5,4 C 83 % 1030,9 hPa 0,0 l/m 6,5 km/h (2 Bft) O 84 0 min 0,000 mm 0,0 UV-I 0 W/m 2,7 C 5,3 C 14,5 km/h (3 Bft) 100,00 %
01.11.2015 05:39 5,4 C 83 % 1030,9 hPa 0,0 l/m 7,0 km/h (2 Bft) NO 41 0 min 0,000 mm 0,0 UV-I 0 W/m 2,7 C 4,9 C 11,3 km/h (2 Bft) 100,00 %
01.11.2015 05:40 5,4 C 83 % 1030,8 hPa 0,0 l/m 5,2 km/h (1 Bft) O 88 0 min 0,000 mm 0,0 UV-I 0 W/m 2,7 C 5,4 C 6,4 km/h (2 Bft) 100,00 %
01.11.2015 05:41 5,4 C 83 % 1030,8 hPa 0,0 l/m 5,6 km/h (1 Bft) O 94 0 min 0,000 mm 0,0 UV-I 0 W/m 2,7 C 5,4 C 9,7 km/h (2 Bft) 100,00 %
01.11.2015 05:42 5,4 C 83 % 1030,8 hPa 0,0 l/m 8,0 km/h (2 Bft) O 89 0 min 0,000 mm 0,0 UV-I 0 W/m 2,7 C 4,0 C 11,3 km/h (2 Bft) 100,00 %
01.11.2015 05:43 5,4 C 83 % 1030,9 hPa 0,0 l/m 4,8 km/h (1 Bft) O-NO 76 0 min 0,000 mm 0,0 UV-I 0 W/m 2,7 C 5,4 C 6,4 km/h (2 Bft) 100,00 %
01.11.2015 05:44 5,4 C 83 % 1030,9 hPa 0,0 l/m 6,9 km/h (2 Bft) O-NO 59 0 min 0,000 mm 0,0 UV-I 0 W/m 2,7 C 5,0 C 12,9 km/h (3 Bft) 88,46 %
01.11.2015 05:45 5,4 C 83 % 1030,9 hPa 0,0 l/m 5,0 km/h (1 Bft) O 82 0 min 0,000 mm 0,0 UV-I 0 W/m 2,7 C 5,4 C 6,4 km/h (2 Bft) 95,83 %
01.11.2015 05:46 5,4 C 83 % 1031,0 hPa 0,0 l/m 5,7 km/h (1 Bft) NO 45 0 min 0,000 mm 0,0 UV-I 0 W/m 2,7 C 5,4 C 8,0 km/h (2 Bft) 100,00 %
01.11.2015 05:47 5,4 C 83 % 1030,9 hPa 0,0 l/m 4,9 km/h (1 Bft) NO 44 0 min 0,000 mm 0,0 UV-I 0 W/m 2,7 C 5,4 C 6,4 km/h (2 Bft) 100,00 %
01.11.2015 05:48 5,4 C 83 % 1030,8 hPa 0,0 l/m 3,6 km/h (1 Bft) O 95 0 min 0,000 mm 0,0 UV-I 0 W/m 2,7 C 5,4 C 9,7 km/h (2 Bft) 100,00 %
01.11.2015 05:49 5,4 C 83 % 1031,0 hPa 0,0 l/m 6,8 km/h (2 Bft) O-NO 62 0 min 0,000 mm 0,0 UV-I 0 W/m 2,7 C 5,1 C 11,3 km/h (2 Bft) 100,00 %
01.11.2015 05:50 5,4 C 83 % 1031,0 hPa 0,0 l/m 6,4 km/h (2 Bft) O-NO 70 0 min 0,000 mm 0,0 UV-I 0 W/m 2,7 C 5,4 C 8,0 km/h (2 Bft) 100,00 %
01.11.2015 05:51 5,4 C 83 % 1031,0 hPa 0,0 l/m 6,2 km/h (2 Bft) O-NO 61 0 min 0,000 mm 0,0 UV-I 0 W/m 2,7 C 5,4 C 8,0 km/h (2 Bft) 96,30 %
01.11.2015 05:52 5,4 C 83 % 1030,9 hPa 0,0 l/m 5,6 km/h (1 Bft) O-NO 73 0 min 0,000 mm 0,0 UV-I 0 W/m 2,7 C 5,4 C 11,3 km/h (2 Bft) 100,00 %
01.11.2015 05:53 5,4 C 83 % 1031,0 hPa 0,0 l/m 6,8 km/h (2 Bft) O-NO 69 0 min 0,000 mm 0,0 UV-I 0 W/m 2,7 C 5,1 C 11,3 km/h (2 Bft) 100,00 %
01.11.2015 05:54 5,4 C 83 % 1031,0 hPa 0,0 l/m 8,7 km/h (2 Bft) O 82 0 min 0,000 mm 0,0 UV-I 0 W/m 2,7 C 3,5 C 11,3 km/h (2 Bft) 96,55 %
01.11.2015 05:55 5,5 C 83 % 1031,0 hPa 0,0 l/m 3,2 km/h (1 Bft) NO 34 0 min 0,000 mm 0,0 UV-I 0 W/m 2,8 C 5,5 C 6,4 km/h (2 Bft) 100,00 %
01.11.2015 05:56 5,5 C 82 % 1031,0 hPa 0,0 l/m 4,4 km/h (1 Bft) O-NO 77 0 min 0,000 mm 0,0 UV-I 0 W/m 2,7 C 5,5 C 6,4 km/h (2 Bft) 100,00 %
01.11.2015 05:57 5,5 C 82 % 1031,2 hPa 0,0 l/m 6,6 km/h (2 Bft) O-NO 78 0 min 0,000 mm 0,0 UV-I 0 W/m 2,7 C 5,3 C 9,7 km/h (2 Bft) 100,00 %
01.11.2015 05:58 5,6 C 82 % 1031,1 hPa 0,0 l/m 6,5 km/h (2 Bft) N-NO 33 0 min 0,000 mm 0,0 UV-I 0 W/m 2,8 C 5,5 C 9,7 km/h (2 Bft) 100,00 %
01.11.2015 05:59 5,6 C 82 % 1031,1 hPa 0,0 l/m 3,9 km/h (1 Bft) O-NO 71 0 min 0,000 mm 0,0 UV-I 0 W/m 2,8 C 5,6 C 6,4 km/h (2 Bft) 95,83 %
01.11.2015 06:00 5,6 C 82 % 1031,1 hPa 0,0 l/m 4,6 km/h (1 Bft) NO 53 0 min 0,000 mm 0,0 UV-I 0 W/m 2,8 C 5,6 C 8,0 km/h (2 Bft) 100,00 %
01.11.2015 06:01 5,6 C 82 % 1031,1 hPa 0,0 l/m 1,5 km/h (1 Bft) O 88 0 min 0,000 mm 0,0 UV-I 0 W/m 2,8 C 5,6 C 3,2 km/h (1 Bft) 100,00 %
01.11.2015 06:02 5,6 C 82 % 1031,1 hPa 0,0 l/m 2,6 km/h (1 Bft) O 87 0 min 0,000 mm 0,0 UV-I 0 W/m 2,8 C 5,6 C 3,2 km/h (1 Bft) 100,00 %
01.11.2015 06:03 5,6 C 82 % 1031,1 hPa 0,0 l/m 2,1 km/h (1 Bft) O-NO 63 0 min 0,000 mm 0,0 UV-I 0 W/m 2,8 C 5,6 C 4,8 km/h (1 Bft) 100,00 %
01.11.2015 06:04 5,6 C 82 % 1031,1 hPa 0,0 l/m 1,3 km/h (1 Bft) O-NO 65 0 min 0,000 mm 0,0 UV-I 0 W/m 2,8 C 5,6 C 3,2 km/h (1 Bft) 96,15 %
01.11.2015 06:05 5,6 C 82 % 1031,1 hPa 0,0 l/m 1,6 km/h (1 Bft) O 90 0 min 0,000 mm 0,0 UV-I 0 W/m 2,8 C 5,6 C 4,8 km/h (1 Bft) 100,00 %
01.11.2015 06:06 5,6 C 82 % 1031,2 hPa 0,0 l/m 2,7 km/h (1 Bft) O 94 0 min 0,000 mm 0,0 UV-I 0 W/m 2,8 C 5,6 C 4,8 km/h (1 Bft) 100,00 %
01.11.2015 06:07 5,6 C 82 % 1031,2 hPa 0,0 l/m 2,1 km/h (1 Bft) O-NO 74 0 min 0,000 mm 0,0 UV-I 0 W/m 2,8 C 5,6 C 4,8 km/h (1 Bft) 100,00 %
01.11.2015 06:08 5,6 C 82 % 1031,2 hPa 0,0 l/m 1,1 km/h (1 Bft) O-NO 74 0 min 0,000 mm 0,0 UV-I 0 W/m 2,8 C 5,6 C 1,6 km/h (1 Bft) 100,00 %
01.11.2015 06:09 5,5 C 82 % 1031,2 hPa 0,0 l/m 1,2 km/h (1 Bft) O-NO 77 0 min 0,000 mm 0,0 UV-I 0 W/m 2,7 C 5,5 C 3,2 km/h (1 Bft) 100,00 %
01.11.2015 06:10 5,5 C 82 % 1031,2 hPa 0,0 l/m 1,1 km/h (1 Bft) O-NO 77 0 min 0,000 mm 0,0 UV-I 0 W/m 2,7 C 5,5 C 3,2 km/h (1 Bft) 100,00 %
01.11.2015 06:11 5,4 C 82 % 1031,2 hPa 0,0 l/m 0,3 km/h (0 Bft) O-NO 77 0 min 0,000 mm 0,0 UV-I 0 W/m 2,6 C 5,4 C 1,6 km/h (1 Bft) 100,00 %
01.11.2015 06:12 5,4 C 82 % 1031,2 hPa 0,0 l/m 1,4 km/h (1 Bft) O-NO 77 0 min 0,000 mm 0,0 UV-I 0 W/m 2,6 C 5,4 C 1,6 km/h (1 Bft) 100,00 %
01.11.2015 06:13 5,3 C 82 % 1031,2 hPa 0,0 l/m 0,3 km/h (0 Bft) O-NO 60 0 min 0,000 mm 0,0 UV-I 0 W/m 2,5 C 5,3 C 1,6 km/h (1 Bft) 100,00 %
01.11.2015 06:14 5,3 C 82 % 1031,2 hPa 0,0 l/m 1,1 km/h (1 Bft) O-NO 69 0 min 0,000 mm 0,0 UV-I 0 W/m 2,5 C 5,3 C 3,2 km/h (1 Bft) 95,83 %
01.11.2015 06:15 5,3 C 83 % 1031,2 hPa 0,0 l/m 2,1 km/h (1 Bft) N-NO 18 0 min 0,000 mm 0,0 UV-I 0 W/m 2,7 C 5,3 C 3,2 km/h (1 Bft) 100,00 %
01.11.2015 06:16 5,3 C 83 % 1031,2 hPa 0,0 l/m 3,0 km/h (1 Bft) O-NO 74 0 min 0,000 mm 0,0 UV-I 0 W/m 2,7 C 5,3 C 4,8 km/h (1 Bft) 100,00 %
01.11.2015 06:17 5,3 C 83 % 1031,2 hPa 0,0 l/m 1,5 km/h (1 Bft) O-NO 67 0 min 0,000 mm 0,0 UV-I 0 W/m 2,7 C 5,3 C 3,2 km/h (1 Bft) 100,00 %
01.11.2015 06:18 5,3 C 83 % 1031,1 hPa 0,0 l/m 1,5 km/h (1 Bft) O-NO 65 0 min 0,000 mm 0,0 UV-I 0 W/m 2,7 C 5,3 C 3,2 km/h (1 Bft) 95,83 %
01.11.2015 06:19 5,3 C 83 % 1031,1 hPa 0,0 l/m 2,9 km/h (1 Bft) O 100 0 min 0,000 mm 0,0 UV-I 0 W/m 2,7 C 5,3 C 4,8 km/h (1 Bft) 100,00 %
01.11.2015 06:20 5,3 C 83 % 1031,1 hPa 0,0 l/m 3,2 km/h (1 Bft) O-NO 74 0 min 0,000 mm 0,0 UV-I 0 W/m 2,7 C 5,3 C 6,4 km/h (2 Bft) 100,00 %
01.11.2015 06:21 5,3 C 83 % 1031,1 hPa 0,0 l/m 3,0 km/h (1 Bft) NO 35 0 min 0,000 mm 0,0 UV-I 0 W/m 2,7 C 5,3 C 4,8 km/h (1 Bft) 100,00 %
01.11.2015 06:22 5,3 C 82 % 1031,1 hPa 0,0 l/m 2,1 km/h (1 Bft) O-SO 102 0 min 0,000 mm 0,0 UV-I 0 W/m 2,5 C 5,3 C 4,8 km/h (1 Bft) 95,83 %
01.11.2015 06:23 5,3 C 82 % 1031,1 hPa 0,0 l/m 3,1 km/h (1 Bft) O 84 0 min 0,000 mm 0,0 UV-I 0 W/m 2,5 C 5,3 C 4,8 km/h (1 Bft) 95,65 %
01.11.2015 06:24 5,4 C 83 % 1031,1 hPa 0,0 l/m 5,4 km/h (1 Bft) O 83 0 min 0,000 mm 0,0 UV-I 0 W/m 2,7 C 5,4 C 11,3 km/h (2 Bft) 100,00 %
01.11.2015 06:25 5,4 C 82 % 1031,1 hPa 0,0 l/m 3,3 km/h (1 Bft) O 88 0 min 0,000 mm 0,0 UV-I 0 W/m 2,6 C 5,4 C 6,4 km/h (2 Bft) 96,15 %
01.11.2015 06:26 5,4 C 82 % 1031,1 hPa 0,0 l/m 2,4 km/h (1 Bft) O-SO 108 0 min 0,000 mm 0,0 UV-I 0 W/m 2,6 C 5,4 C 4,8 km/h (1 Bft) 95,83 %
01.11.2015 06:27 5,4 C 82 % 1031,1 hPa 0,0 l/m 4,6 km/h (1 Bft) O 85 0 min 0,000 mm 0,0 UV-I 0 W/m 2,6 C 5,4 C 8,0 km/h (2 Bft) 100,00 %
01.11.2015 06:28 5,5 C 82 % 1031,2 hPa 0,0 l/m 4,4 km/h (1 Bft) O-NO 61 0 min 0,000 mm 0,0 UV-I 0 W/m 2,7 C 5,5 C 6,4 km/h (2 Bft) 100,00 %
01.11.2015 06:29 5,5 C 82 % 1031,2 hPa 0,0 l/m 3,1 km/h (1 Bft) O 79 0 min 0,000 mm 0,0 UV-I 0 W/m 2,7 C 5,5 C 6,4 km/h (2 Bft) 100,00 %
01.11.2015 06:30 5,6 C 82 % 1031,1 hPa 0,0 l/m 4,8 km/h (1 Bft) O 82 0 min 0,000 mm 0,0 UV-I 0 W/m 2,8 C 5,6 C 8,0 km/h (2 Bft) 100,00 %
01.11.2015 06:31 5,6 C 82 % 1031,1 hPa 0,0 l/m 3,0 km/h (1 Bft) O 84 0 min 0,000 mm 0,0 UV-I 0 W/m 2,8 C 5,6 C 4,8 km/h (1 Bft) 100,00 %
01.11.2015 06:32 5,6 C 82 % 1031,1 hPa 0,0 l/m 4,8 km/h (1 Bft) O-NO 75 0 min 0,000 mm 0,0 UV-I 0 W/m 2,8 C 5,6 C 8,0 km/h (2 Bft) 100,00 %
01.11.2015 06:33 5,6 C 81 % 1031,1 hPa 0,0 l/m 3,0 km/h (1 Bft) O-NO 70 0 min 0,000 mm 0,0 UV-I 0 W/m 2,6 C 5,6 C 4,8 km/h (1 Bft) 100,00 %
01.11.2015 06:34 5,6 C 81 % 1031,1 hPa 0,0 l/m 2,2 km/h (1 Bft) O-NO 71 0 min 0,000 mm 0,0 UV-I 0 W/m 2,6 C 5,6 C 3,2 km/h (1 Bft) 100,00 %
01.11.2015 06:35 5,6 C 81 % 1031,1 hPa 0,0 l/m 5,3 km/h (1 Bft) O 86 0 min 0,000 mm 0,0 UV-I 0 W/m 2,6 C 5,6 C 8,0 km/h (2 Bft) 100,00 %
01.11.2015 06:36 5,6 C 81 % 1031,1 hPa 0,0 l/m 4,9 km/h (1 Bft) O-NO 78 0 min 0,000 mm 0,0 UV-I 0 W/m 2,6 C 5,6 C 8,0 km/h (2 Bft) 100,00 %
01.11.2015 06:37 5,6 C 82 % 1031,1 hPa 0,0 l/m 6,8 km/h (2 Bft) O-NO 74 0 min 0,000 mm 0,0 UV-I 0 W/m 2,8 C 5,3 C 11,3 km/h (2 Bft) 100,00 %
01.11.2015 06:38 5,6 C 81 % 1031,2 hPa 0,0 l/m 6,2 km/h (2 Bft) O-NO 67 0 min 0,000 mm 0,0 UV-I 0 W/m 2,6 C 5,6 C 9,7 km/h (2 Bft) 100,00 %
01.11.2015 06:39 5,5 C 81 % 1031,1 hPa 0,0 l/m 5,5 km/h (1 Bft) O 92 0 min 0,000 mm 0,0 UV-I 0 W/m 2,5 C 5,5 C 6,4 km/h (2 Bft) 100,00 %
01.11.2015 06:40 5,5 C 82 % 1031,1 hPa 0,0 l/m 6,0 km/h (2 Bft) O-NO 78 0 min 0,000 mm 0,0 UV-I 0 W/m 2,7 C 5,5 C 8,0 km/h (2 Bft) 92,31 %
01.11.2015 06:41 5,5 C 82 % 1031,2 hPa 0,0 l/m 5,0 km/h (1 Bft) O 86 0 min 0,000 mm 0,0 UV-I 0 W/m 2,7 C 5,5 C 6,4 km/h (2 Bft) 100,00 %
01.11.2015 06:42 5,5 C 82 % 1031,1 hPa 0,0 l/m 6,4 km/h (2 Bft) O 82 0 min 0,000 mm 0,0 UV-I 0 W/m 2,7 C 5,5 C 9,7 km/h (2 Bft) 100,00 %
01.11.2015 06:43 5,5 C 82 % 1031,1 hPa 0,0 l/m 6,9 km/h (2 Bft) O 85 0 min 0,000 mm 0,0 UV-I 0 W/m 2,7 C 5,1 C 9,7 km/h (2 Bft) 100,00 %
01.11.2015 06:44 5,5 C 82 % 1031,1 hPa 0,0 l/m 6,5 km/h (2 Bft) O 86 0 min 0,000 mm 0,0 UV-I 3 W/m 2,7 C 5,4 C 11,3 km/h (2 Bft) 100,00 %
01.11.2015 06:45 5,5 C 82 % 1031,2 hPa 0,0 l/m 5,9 km/h (2 Bft) O 82 0 min 0,000 mm 0,0 UV-I 5 W/m 2,7 C 5,5 C 9,7 km/h (2 Bft) 100,00 %
01.11.2015 06:46 5,5 C 82 % 1031,2 hPa 0,0 l/m 5,8 km/h (2 Bft) O-SO 111 0 min 0,000 mm 0,0 UV-I 5 W/m 2,7 C 5,5 C 9,7 km/h (2 Bft) 100,00 %
01.11.2015 06:47 5,5 C 82 % 1031,2 hPa 0,0 l/m 4,4 km/h (1 Bft) O 80 0 min 0,000 mm 0,0 UV-I 5 W/m 2,7 C 5,5 C 8,0 km/h (2 Bft) 100,00 %
01.11.2015 06:48 5,5 C 82 % 1031,2 hPa 0,0 l/m 4,3 km/h (1 Bft) O 87 0 min 0,000 mm 0,0 UV-I 5 W/m 2,7 C 5,5 C 6,4 km/h (2 Bft) 83,33 %
01.11.2015 06:49 5,5 C 82 % 1031,2 hPa 0,0 l/m 4,7 km/h (1 Bft) O 95 0 min 0,000 mm 0,0 UV-I 5 W/m 2,7 C 5,5 C 8,0 km/h (2 Bft) 100,00 %
01.11.2015 06:50 5,5 C 82 % 1031,2 hPa 0,0 l/m 4,8 km/h (1 Bft) O-SO 103 0 min 0,000 mm 0,0 UV-I 7 W/m 2,7 C 5,5 C 6,4 km/h (2 Bft) 100,00 %
01.11.2015 06:51 5,5 C 82 % 1031,2 hPa 0,0 l/m 5,0 km/h (1 Bft) O-NO 63 0 min 0,000 mm 0,0 UV-I 7 W/m 2,7 C 5,5 C 8,0 km/h (2 Bft) 95,65 %
01.11.2015 06:52 5,5 C 82 % 1031,3 hPa 0,0 l/m 5,8 km/h (2 Bft) O-NO 63 0 min 0,000 mm 0,0 UV-I 7 W/m 2,7 C 5,5 C 9,7 km/h (2 Bft) 100,00 %
01.11.2015 06:53 5,4 C 82 % 1031,4 hPa 0,0 l/m 6,4 km/h (2 Bft) O-NO 69 0 min 0,000 mm 0,0 UV-I 7 W/m 2,6 C 5,4 C 9,7 km/h (2 Bft) 100,00 %
01.11.2015 06:54 5,4 C 82 % 1031,3 hPa 0,0 l/m 7,4 km/h (2 Bft) O-NO 70 0 min 0,000 mm 0,0 UV-I 8 W/m 2,6 C 4,5 C 11,3 km/h (2 Bft) 95,83 %
01.11.2015 06:55 5,4 C 82 % 1031,3 hPa 0,0 l/m 7,2 km/h (2 Bft) O-NO 78 0 min 0,000 mm 0,0 UV-I 9 W/m 2,6 C 4,7 C 11,3 km/h (2 Bft) 100,00 %
01.11.2015 06:56 5,4 C 82 % 1031,4 hPa 0,0 l/m 6,4 km/h (2 Bft) O-NO 78 0 min 0,000 mm 0,0 UV-I 9 W/m 2,6 C 5,4 C 11,3 km/h (2 Bft) 97,44 %
01.11.2015 06:57 5,4 C 82 % 1031,3 hPa 0,0 l/m 6,4 km/h (2 Bft) O-NO 64 0 min 0,000 mm 0,0 UV-I 9 W/m 2,6 C 5,4 C 9,7 km/h (2 Bft) 100,00 %
01.11.2015 06:58 5,5 C 82 % 1031,4 hPa 0,0 l/m 5,4 km/h (1 Bft) O 88 0 min 0,000 mm 0,0 UV-I 9 W/m 2,7 C 5,5 C 9,7 km/h (2 Bft) 100,00 %
01.11.2015 06:59 5,5 C 82 % 1031,4 hPa 0,0 l/m 4,0 km/h (1 Bft) O 82 1 min 0,000 mm 0,0 UV-I 11 W/m 2,7 C 5,5 C 4,8 km/h (1 Bft) 96,15 %
01.11.2015 07:00 5,6 C 82 % 1031,4 hPa 0,0 l/m 5,0 km/h (1 Bft) O-NO 75 1 min 0,000 mm 0,0 UV-I 11 W/m 2,8 C 5,6 C 6,4 km/h (2 Bft) 100,00 %
01.11.2015 07:01 5,6 C 81 % 1031,4 hPa 0,0 l/m 6,3 km/h (2 Bft) O-NO 76 0 min 0,000 mm 0,0 UV-I 11 W/m 2,6 C 5,6 C 11,3 km/h (2 Bft) 100,00 %
01.11.2015 07:02 5,6 C 81 % 1031,5 hPa 0,0 l/m 6,8 km/h (2 Bft) O-NO 68 0 min 0,000 mm 0,0 UV-I 11 W/m 2,6 C 5,3 C 9,7 km/h (2 Bft) 100,00 %
01.11.2015 07:03 5,6 C 81 % 1031,4 hPa 0,0 l/m 5,6 km/h (1 Bft) O-NO 69 0 min 0,000 mm 0,0 UV-I 11 W/m 2,6 C 5,6 C 8,0 km/h (2 Bft) 96,30 %
01.11.2015 07:04 5,6 C 81 % 1031,4 hPa 0,0 l/m 5,4 km/h (1 Bft) O-SO 102 0 min 0,000 mm 0,0 UV-I 12 W/m 2,6 C 5,6 C 9,7 km/h (2 Bft) 100,00 %
01.11.2015 07:05 5,7 C 81 % 1031,5 hPa 0,0 l/m 6,2 km/h (2 Bft) O 92 0 min 0,000 mm 0,0 UV-I 12 W/m 2,7 C 5,7 C 8,0 km/h (2 Bft) 96,15 %
01.11.2015 07:06 5,7 C 81 % 1031,5 hPa 0,0 l/m 6,2 km/h (2 Bft) O 90 0 min 0,000 mm 0,0 UV-I 12 W/m 2,7 C 5,7 C 9,7 km/h (2 Bft) 100,00 %
01.11.2015 07:07 5,7 C 81 % 1031,5 hPa 0,0 l/m 5,4 km/h (1 Bft) O 83 0 min 0,000 mm 0,0 UV-I 12 W/m 2,7 C 5,7 C 9,7 km/h (2 Bft) 100,00 %
01.11.2015 07:08 5,7 C 81 % 1031,5 hPa 0,0 l/m 4,6 km/h (1 Bft) O 93 0 min 0,000 mm 0,0 UV-I 12 W/m 2,7 C 5,7 C 6,4 km/h (2 Bft) 100,00 %
01.11.2015 07:09 5,8 C 81 % 1031,5 hPa 0,0 l/m 6,9 km/h (2 Bft) O-NO 78 0 min 0,000 mm 0,0 UV-I 14 W/m 2,8 C 5,4 C 12,9 km/h (3 Bft) 95,83 %
01.11.2015 07:10 5,8 C 80 % 1031,6 hPa 0,0 l/m 5,9 km/h (2 Bft) O-NO 65 0 min 0,000 mm 0,0 UV-I 14 W/m 2,6 C 5,8 C 9,7 km/h (2 Bft) 92,31 %
01.11.2015 07:11 5,8 C 80 % 1031,6 hPa 0,0 l/m 5,6 km/h (1 Bft) O 82 0 min 0,000 mm 0,0 UV-I 14 W/m 2,6 C 5,8 C 6,4 km/h (2 Bft) 100,00 %
01.11.2015 07:12 5,8 C 80 % 1031,6 hPa 0,0 l/m 7,2 km/h (2 Bft) O 84 0 min 0,000 mm 0,0 UV-I 14 W/m 2,6 C 5,1 C 14,5 km/h (3 Bft) 100,00 %
01.11.2015 07:13 5,8 C 80 % 1031,6 hPa 0,0 l/m 7,5 km/h (2 Bft) O-NO 78 0 min 0,000 mm 0,0 UV-I 14 W/m 2,6 C 4,9 C 9,7 km/h (2 Bft) 95,83 %
01.11.2015 07:14 5,8 C 80 % 1031,6 hPa 0,0 l/m 5,9 km/h (2 Bft) O-SO 103 0 min 0,000 mm 0,0 UV-I 14 W/m 2,6 C 5,8 C 8,0 km/h (2 Bft) 100,00 %
01.11.2015 07:15 5,9 C 80 % 1031,6 hPa 0,0 l/m 7,4 km/h (2 Bft) O 82 0 min 0,000 mm 0,0 UV-I 16 W/m 2,7 C 5,0 C 11,3 km/h (2 Bft) 100,00 %
01.11.2015 07:16 5,9 C 80 % 1031,6 hPa 0,0 l/m 6,4 km/h (2 Bft) O-NO 70 0 min 0,000 mm 0,0 UV-I 16 W/m 2,7 C 5,9 C 8,0 km/h (2 Bft) 100,00 %
01.11.2015 07:17 5,9 C 80 % 1031,7 hPa 0,0 l/m 6,8 km/h (2 Bft) O-NO 69 0 min 0,000 mm 0,0 UV-I 16 W/m 2,7 C 5,6 C 11,3 km/h (2 Bft) 100,00 %
01.11.2015 07:18 5,9 C 79 % 1031,7 hPa 0,0 l/m 5,1 km/h (1 Bft) O-NO 74 0 min 0,000 mm 0,0 UV-I 16 W/m 2,5 C 5,9 C 6,4 km/h (2 Bft) 100,00 %
01.11.2015 07:19 5,9 C 79 % 1031,7 hPa 0,0 l/m 6,5 km/h (2 Bft) O 82 0 min 0,000 mm 0,0 UV-I 16 W/m 2,5 C 5,8 C 8,0 km/h (2 Bft) 100,00 %
01.11.2015 07:20 5,9 C 79 % 1031,7 hPa 0,0 l/m 5,5 km/h (1 Bft) NO 39 0 min 0,000 mm 0,0 UV-I 18 W/m 2,5 C 5,9 C 8,0 km/h (2 Bft) 100,00 %
01.11.2015 07:21 5,9 C 79 % 1031,8 hPa 0,0 l/m 5,7 km/h (1 Bft) O-NO 63 0 min 0,000 mm 0,0 UV-I 18 W/m 2,5 C 5,9 C 8,0 km/h (2 Bft) 95,83 %
01.11.2015 07:22 5,9 C 79 % 1031,8 hPa 0,0 l/m 6,4 km/h (2 Bft) O 85 0 min 0,000 mm 0,0 UV-I 18 W/m 2,5 C 5,9 C 8,0 km/h (2 Bft) 100,00 %
01.11.2015 07:23 5,9 C 79 % 1031,8 hPa 0,0 l/m 6,0 km/h (2 Bft) O-NO 78 0 min 0,000 mm 0,0 UV-I 18 W/m 2,5 C 5,9 C 8,0 km/h (2 Bft) 100,00 %
01.11.2015 07:24 5,9 C 79 % 1031,8 hPa 0,0 l/m 6,2 km/h (2 Bft) NO 52 0 min 0,000 mm 0,0 UV-I 18 W/m 2,5 C 5,9 C 11,3 km/h (2 Bft) 92,31 %
01.11.2015 07:25 5,9 C 79 % 1031,7 hPa 0,0 l/m 6,6 km/h (2 Bft) O 94 0 min 0,000 mm 0,0 UV-I 19 W/m 2,5 C 5,8 C 11,3 km/h (2 Bft) 100,00 %
01.11.2015 07:26 5,9 C 79 % 1031,7 hPa 0,0 l/m 4,9 km/h (1 Bft) O-NO 59 0 min 0,000 mm 0,0 UV-I 22 W/m 2,5 C 5,9 C 11,3 km/h (2 Bft) 99,02 %
01.11.2015 07:27 5,9 C 80 % 1031,7 hPa 0,0 l/m 4,0 km/h (1 Bft) O-NO 77 0 min 0,000 mm 0,0 UV-I 28 W/m 2,7 C 5,9 C 6,4 km/h (2 Bft) 97,56 %
01.11.2015 07:28 5,8 C 80 % 1031,7 hPa 0,0 l/m 3,8 km/h (1 Bft) O-NO 78 0 min 0,000 mm 0,0 UV-I 36 W/m 2,6 C 5,8 C 6,4 km/h (2 Bft) 100,00 %
01.11.2015 07:29 5,8 C 80 % 1031,7 hPa 0,0 l/m 4,8 km/h (1 Bft) NO 53 0 min 0,000 mm 0,0 UV-I 38 W/m 2,6 C 5,8 C 6,4 km/h (2 Bft) 100,00 %
01.11.2015 07:30 5,9 C 80 % 1031,7 hPa 0,0 l/m 5,6 km/h (1 Bft) O-NO 65 0 min 0,000 mm 0,0 UV-I 40 W/m 2,7 C 5,9 C 9,7 km/h (2 Bft) 100,00 %
01.11.2015 07:31 5,9 C 79 % 1031,7 hPa 0,0 l/m 5,4 km/h (1 Bft) O-NO 67 0 min 0,000 mm 0,0 UV-I 41 W/m 2,5 C 5,9 C 11,3 km/h (2 Bft) 100,00 %
01.11.2015 07:32 5,9 C 79 % 1031,7 hPa 0,0 l/m 5,8 km/h (2 Bft) O-NO 74 0 min 0,000 mm 0,0 UV-I 44 W/m 2,5 C 5,9 C 8,0 km/h (2 Bft) 100,00 %
01.11.2015 07:33 6,0 C 79 % 1031,7 hPa 0,0 l/m 6,4 km/h (2 Bft) O-NO 67 0 min 0,000 mm 0,0 UV-I 46 W/m 2,6 C 6,0 C 8,0 km/h (2 Bft) 100,00 %
01.11.2015 07:34 6,0 C 79 % 1031,7 hPa 0,0 l/m 7,6 km/h (2 Bft) O 87 0 min 0,000 mm 0,0 UV-I 48 W/m 2,6 C 5,0 C 11,3 km/h (2 Bft) 100,00 %
01.11.2015 07:35 6,0 C 79 % 1031,8 hPa 0,0 l/m 9,0 km/h (2 Bft) O-NO 65 0 min 0,000 mm 0,0 UV-I 50 W/m 2,6 C 3,9 C 12,9 km/h (3 Bft) 100,00 %
01.11.2015 07:36 6,0 C 79 % 1031,8 hPa 0,0 l/m 8,0 km/h (2 Bft) O 82 0 min 0,000 mm 0,0 UV-I 52 W/m 2,6 C 4,7 C 12,9 km/h (3 Bft) 95,83 %
01.11.2015 07:37 6,0 C 79 % 1031,7 hPa 0,0 l/m 8,0 km/h (2 Bft) NO 54 0 min 0,000 mm 0,0 UV-I 54 W/m 2,6 C 4,7 C 11,3 km/h (2 Bft) 100,00 %
01.11.2015 07:38 6,0 C 79 % 1031,7 hPa 0,0 l/m 8,4 km/h (2 Bft) O 83 0 min 0,000 mm 0,0 UV-I 56 W/m 2,6 C 4,3 C 12,9 km/h (3 Bft) 100,00 %
01.11.2015 07:39 6,0 C 79 % 1031,7 hPa 0,0 l/m 9,3 km/h (2 Bft) O 91 0 min 0,000 mm 0,0 UV-I 58 W/m 2,6 C 3,7 C 12,9 km/h (3 Bft) 100,00 %
01.11.2015 07:40 6,1 C 79 % 1031,7 hPa 0,0 l/m 8,7 km/h (2 Bft) O-NO 58 0 min 0,000 mm 0,0 UV-I 61 W/m 2,7 C 4,2 C 12,9 km/h (3 Bft) 95,83 %
01.11.2015 07:41 6,1 C 79 % 1031,7 hPa 0,0 l/m 7,9 km/h (2 Bft) O-NO 67 0 min 0,000 mm 0,0 UV-I 62 W/m 2,7 C 4,8 C 12,9 km/h (3 Bft) 100,00 %
01.11.2015 07:42 6,1 C 79 % 1031,7 hPa 0,0 l/m 9,1 km/h (2 Bft) O 92 0 min 0,000 mm 0,0 UV-I 64 W/m 2,7 C 3,9 C 14,5 km/h (3 Bft) 100,00 %
01.11.2015 07:43 6,1 C 79 % 1031,7 hPa 0,0 l/m 7,6 km/h (2 Bft) O 81 0 min 0,000 mm 0,0 UV-I 66 W/m 2,7 C 5,1 C 11,3 km/h (2 Bft) 100,00 %
01.11.2015 07:44 6,1 C 79 % 1031,7 hPa 0,0 l/m 7,4 km/h (2 Bft) O-NO 64 0 min 0,000 mm 0,0 UV-I 69 W/m 2,7 C 5,3 C 11,3 km/h (2 Bft) 100,00 %
01.11.2015 07:45 6,1 C 79 % 1031,7 hPa 0,0 l/m 9,3 km/h (2 Bft) O 85 0 min 0,000 mm 0,0 UV-I 70 W/m 2,7 C 3,8 C 12,9 km/h (3 Bft) 100,00 %
01.11.2015 07:46 6,1 C 79 % 1031,8 hPa 0,0 l/m 9,7 km/h (2 Bft) O-NO 76 0 min 0,000 mm 0,0 UV-I 73 W/m 2,7 C 3,5 C 12,9 km/h (3 Bft) 100,00 %
01.11.2015 07:47 6,2 C 79 % 1031,8 hPa 0,0 l/m 6,6 km/h (2 Bft) O-NO 63 0 min 0,000 mm 0,0 UV-I 75 W/m 2,8 C 6,1 C 9,7 km/h (2 Bft) 100,00 %
01.11.2015 07:48 6,1 C 79 % 1031,7 hPa 0,0 l/m 8,4 km/h (2 Bft) O-NO 65 0 min 0,000 mm 0,0 UV-I 77 W/m 2,7 C 4,4 C 12,9 km/h (3 Bft) 100,00 %
01.11.2015 07:49 6,2 C 79 % 1031,7 hPa 0,0 l/m 8,6 km/h (2 Bft) O-NO 67 1 min 0,000 mm 0,0 UV-I 80 W/m 2,8 C 4,4 C 11,3 km/h (2 Bft) 100,00 %
01.11.2015 07:50 6,2 C 79 % 1031,8 hPa 0,0 l/m 9,4 km/h (2 Bft) O 98 1 min 0,000 mm 0,0 UV-I 83 W/m 2,8 C 3,8 C 11,3 km/h (2 Bft) 100,00 %
01.11.2015 07:51 6,2 C 79 % 1031,8 hPa 0,0 l/m 8,6 km/h (2 Bft) O-NO 58 1 min 0,000 mm 0,0 UV-I 84 W/m 2,8 C 4,4 C 12,9 km/h (3 Bft) 100,00 %
01.11.2015 07:52 6,2 C 78 % 1031,8 hPa 0,0 l/m 8,8 km/h (2 Bft) O 85 1 min 0,000 mm 0,0 UV-I 87 W/m 2,7 C 4,2 C 12,9 km/h (3 Bft) 100,00 %
01.11.2015 07:53 6,3 C 78 % 1031,8 hPa 0,0 l/m 9,0 km/h (2 Bft) O 97 1 min 0,000 mm 0,0 UV-I 90 W/m 2,8 C 4,2 C 12,9 km/h (3 Bft) 100,00 %
01.11.2015 07:54 6,3 C 78 % 1031,8 hPa 0,0 l/m 7,7 km/h (2 Bft) O-NO 65 1 min 0,000 mm 0,0 UV-I 92 W/m 2,8 C 5,2 C 14,5 km/h (3 Bft) 100,00 %
01.11.2015 07:55 6,3 C 79 % 1031,8 hPa 0,0 l/m 7,0 km/h (2 Bft) O-NO 77 1 min 0,000 mm 0,0 UV-I 94 W/m 2,9 C 5,8 C 16,1 km/h (3 Bft) 91,67 %
01.11.2015 07:56 6,4 C 78 % 1031,8 hPa 0,0 l/m 8,2 km/h (2 Bft) O 82 1 min 0,000 mm 0,0 UV-I 97 W/m 2,8 C 4,9 C 11,3 km/h (2 Bft) 96,15 %
01.11.2015 07:57 6,4 C 78 % 1031,9 hPa 0,0 l/m 9,1 km/h (2 Bft) O 94 1 min 0,000 mm 0,0 UV-I 99 W/m 2,8 C 4,2 C 16,1 km/h (3 Bft) 100,00 %
01.11.2015 07:58 6,5 C 78 % 1031,9 hPa 0,0 l/m 8,4 km/h (2 Bft) O-SO 111 1 min 0,000 mm 0,0 UV-I 103 W/m 2,9 C 4,9 C 12,9 km/h (3 Bft) 99,04 %
01.11.2015 07:59 6,6 C 78 % 1031,9 hPa 0,0 l/m 8,3 km/h (2 Bft) O 81 1 min 0,000 mm 0,0 UV-I 105 W/m 3,0 C 5,1 C 11,3 km/h (2 Bft) 100,00 %
01.11.2015 08:00 6,6 C 78 % 1031,9 hPa 0,0 l/m 5,9 km/h (2 Bft) O-NO 68 1 min 0,000 mm 0,0 UV-I 106 W/m 3,0 C 6,6 C 8,0 km/h (2 Bft) 100,00 %
01.11.2015 08:01 6,6 C 77 % 1031,9 hPa 0,0 l/m 7,4 km/h (2 Bft) O 97 1 min 0,025 mm 0,0 UV-I 111 W/m 2,9 C 5,8 C 14,5 km/h (3 Bft) 100,00 %
01.11.2015 08:02 6,7 C 77 % 1031,9 hPa 0,0 l/m 11,0 km/h (2 Bft) O 90 1 min 0,000 mm 0,0 UV-I 113 W/m 3,0 C 3,3 C 16,1 km/h (3 Bft) 95,83 %
01.11.2015 08:03 6,7 C 76 % 1032,0 hPa 0,0 l/m 8,5 km/h (2 Bft) O-NO 76 1 min 0,000 mm 0,0 UV-I 115 W/m 2,8 C 5,0 C 12,9 km/h (3 Bft) 100,00 %
01.11.2015 08:04 6,8 C 77 % 1031,9 hPa 0,0 l/m 6,3 km/h (2 Bft) O 90 1 min 0,000 mm 0,0 UV-I 118 W/m 3,1 C 6,8 C 9,7 km/h (2 Bft) 100,00 %
01.11.2015 08:05 6,9 C 76 % 1031,9 hPa 0,0 l/m 4,1 km/h (1 Bft) O-NO 57 1 min 0,000 mm 0,0 UV-I 120 W/m 3,0 C 6,9 C 6,4 km/h (2 Bft) 100,00 %
01.11.2015 08:06 6,9 C 76 % 1031,9 hPa 0,0 l/m 5,5 km/h (1 Bft) O-NO 68 1 min 0,000 mm 0,0 UV-I 122 W/m 3,0 C 6,9 C 9,7 km/h (2 Bft) 100,00 %
01.11.2015 08:07 6,9 C 76 % 1031,9 hPa 0,0 l/m 10,8 km/h (2 Bft) O-NO 77 1 min 0,000 mm 0,0 UV-I 126 W/m 3,0 C 3,7 C 14,5 km/h (3 Bft) 100,00 %
01.11.2015 08:08 7,1 C 75 % 1031,9 hPa 0,0 l/m 10,7 km/h (2 Bft) O-NO 63 1 min 0,000 mm 0,0 UV-I 128 W/m 3,0 C 3,9 C 14,5 km/h (3 Bft) 100,00 %
01.11.2015 08:09 7,1 C 75 % 1031,9 hPa 0,0 l/m 8,9 km/h (2 Bft) O 81 1 min 0,000 mm 0,0 UV-I 132 W/m 3,0 C 5,1 C 12,9 km/h (3 Bft) 100,00 %
01.11.2015 08:10 7,2 C 75 % 1031,8 hPa 0,0 l/m 10,4 km/h (2 Bft) O 85 1 min 0,000 mm 0,0 UV-I 134 W/m 3,1 C 4,2 C 14,5 km/h (3 Bft) 95,83 %
01.11.2015 08:11 7,2 C 75 % 1031,8 hPa 0,0 l/m 8,0 km/h (2 Bft) O 84 1 min 0,000 mm 0,0 UV-I 135 W/m 3,1 C 5,9 C 11,3 km/h (2 Bft) 96,15 %
01.11.2015 08:12 7,2 C 74 % 1031,8 hPa 0,0 l/m 9,0 km/h (2 Bft) O 96 1 min 0,000 mm 0,0 UV-I 140 W/m 2,9 C 5,2 C 11,3 km/h (2 Bft) 100,00 %
01.11.2015 08:13 7,3 C 74 % 1031,9 hPa 0,0 l/m 10,4 km/h (2 Bft) O-NO 76 1 min 0,000 mm 0,0 UV-I 142 W/m 3,0 C 4,4 C 12,9 km/h (3 Bft) 100,00 %
01.11.2015 08:14 7,3 C 74 % 1031,9 hPa 0,0 l/m 8,4 km/h (2 Bft) O 95 1 min 0,000 mm 0,0 UV-I 146 W/m 3,0 C 5,7 C 11,3 km/h (2 Bft) 95,83 %
01.11.2015 08:15 7,3 C 74 % 1031,9 hPa 0,0 l/m 7,7 km/h (2 Bft) O 79 1 min 0,000 mm 0,0 UV-I 149 W/m 3,0 C 6,2 C 11,3 km/h (2 Bft) 100,00 %
01.11.2015 08:16 7,3 C 74 % 1032,0 hPa 0,0 l/m 8,6 km/h (2 Bft) O-NO 76 1 min 0,000 mm 0,0 UV-I 152 W/m 3,0 C 5,6 C 12,9 km/h (3 Bft) 100,00 %
01.11.2015 08:17 7,3 C 74 % 1032,0 hPa 0,0 l/m 6,8 km/h (2 Bft) O 87 1 min 0,000 mm 0,0 UV-I 154 W/m 3,0 C 7,0 C 9,7 km/h (2 Bft) 100,00 %
01.11.2015 08:18 7,3 C 75 % 1032,0 hPa 0,0 l/m 3,3 km/h (1 Bft) O-NO 65 1 min 0,000 mm 0,0 UV-I 157 W/m 3,2 C 7,3 C 8,0 km/h (2 Bft) 100,00 %
01.11.2015 08:19 7,4 C 75 % 1032,0 hPa 0,0 l/m 6,5 km/h (2 Bft) O-NO 71 1 min 0,000 mm 0,0 UV-I 160 W/m 3,3 C 7,3 C 11,3 km/h (2 Bft) 100,00 %
01.11.2015 08:20 7,4 C 74 % 1032,0 hPa 0,0 l/m 8,9 km/h (2 Bft) O 94 1 min 0,000 mm 0,0 UV-I 162 W/m 3,1 C 5,5 C 11,3 km/h (2 Bft) 100,00 %
01.11.2015 08:21 7,4 C 74 % 1032,0 hPa 0,0 l/m 6,7 km/h (2 Bft) O-SO 110 1 min 0,000 mm 0,0 UV-I 166 W/m 3,1 C 7,2 C 11,3 km/h (2 Bft) 100,00 %
01.11.2015 08:22 7,4 C 74 % 1031,9 hPa 0,0 l/m 9,1 km/h (2 Bft) O-SO 102 1 min 0,000 mm 0,0 UV-I 169 W/m 3,1 C 5,3 C 11,3 km/h (2 Bft) 100,00 %
01.11.2015 08:23 7,5 C 74 % 1032,0 hPa 0,0 l/m 7,8 km/h (2 Bft) O-NO 75 1 min 0,000 mm 0,0 UV-I 172 W/m 3,2 C 6,4 C 11,3 km/h (2 Bft) 100,00 %
01.11.2015 08:24 7,6 C 73 % 1032,0 hPa 0,0 l/m 8,9 km/h (2 Bft) O-NO 63 1 min 0,000 mm 0,0 UV-I 175 W/m 3,1 C 5,7 C 12,9 km/h (3 Bft) 100,00 %
01.11.2015 08:25 7,6 C 74 % 1032,0 hPa 0,0 l/m 5,4 km/h (1 Bft) O-NO 78 1 min 0,000 mm 0,0 UV-I 176 W/m 3,3 C 7,6 C 6,4 km/h (2 Bft) 92,31 %
01.11.2015 08:26 7,6 C 74 % 1032,0 hPa 0,0 l/m 5,7 km/h (1 Bft) SO 143 1 min 0,000 mm 0,0 UV-I 181 W/m 3,3 C 7,6 C 9,7 km/h (2 Bft) 100,00 %
01.11.2015 08:27 7,6 C 74 % 1032,0 hPa 0,0 l/m 9,2 km/h (2 Bft) O-NO 59 1 min 0,000 mm 0,0 UV-I 184 W/m 3,3 C 5,5 C 12,9 km/h (3 Bft) 96,15 %
01.11.2015 08:28 7,7 C 73 % 1031,9 hPa 0,0 l/m 9,1 km/h (2 Bft) O 90 1 min 0,000 mm 0,0 UV-I 185 W/m 3,2 C 5,6 C 12,9 km/h (3 Bft) 95,83 %
01.11.2015 08:29 7,7 C 72 % 1032,1 hPa 0,0 l/m 9,9 km/h (2 Bft) O-NO 70 1 min 0,000 mm 0,0 UV-I 189 W/m 3,0 C 5,1 C 14,5 km/h (3 Bft) 100,00 %
01.11.2015 08:30 7,8 C 72 % 1032,1 hPa 0,0 l/m 9,7 km/h (2 Bft) O 86 1 min 0,000 mm 0,0 UV-I 191 W/m 3,1 C 5,4 C 14,5 km/h (3 Bft) 100,00 %
01.11.2015 08:31 7,8 C 72 % 1032,0 hPa 0,0 l/m 9,8 km/h (2 Bft) O 80 1 min 0,000 mm 0,0 UV-I 195 W/m 3,1 C 5,3 C 14,5 km/h (3 Bft) 100,00 %
01.11.2015 08:32 7,8 C 72 % 1032,0 hPa 0,0 l/m 9,0 km/h (2 Bft) O 90 1 min 0,000 mm 0,0 UV-I 197 W/m 3,1 C 5,8 C 16,1 km/h (3 Bft) 95,83 %
01.11.2015 08:33 7,9 C 72 % 1032,0 hPa 0,0 l/m 10,9 km/h (2 Bft) O-NO 65 1 min 0,000 mm 0,0 UV-I 199 W/m 3,2 C 4,7 C 14,5 km/h (3 Bft) 100,00 %
01.11.2015 08:34 7,9 C 71 % 1032,0 hPa 0,0 l/m 11,8 km/h (2 Bft) O 82 1 min 0,000 mm 0,0 UV-I 202 W/m 3,0 C 4,2 C 14,5 km/h (3 Bft) 100,00 %
01.11.2015 08:35 7,9 C 72 % 1032,0 hPa 0,0 l/m 8,2 km/h (2 Bft) O 100 1 min 0,000 mm 0,0 UV-I 205 W/m 3,2 C 6,5 C 12,9 km/h (3 Bft) 100,00 %
01.11.2015 08:36 8,0 C 72 % 1032,0 hPa 0,0 l/m 8,2 km/h (2 Bft) O-NO 60 1 min 0,000 mm 0,0 UV-I 207 W/m 3,3 C 6,6 C 12,9 km/h (3 Bft) 100,00 %
01.11.2015 08:37 8,0 C 72 % 1032,0 hPa 0,0 l/m 9,0 km/h (2 Bft) O 87 1 min 0,000 mm 0,4 UV-I 207 W/m 3,3 C 6,0 C 12,9 km/h (3 Bft) 96,15 %
01.11.2015 08:38 8,1 C 71 % 1032,0 hPa 0,0 l/m 10,7 km/h (2 Bft) O 90 1 min 0,000 mm 0,5 UV-I 214 W/m 3,2 C 5,1 C 14,5 km/h (3 Bft) 100,00 %
01.11.2015 08:39 8,1 C 71 % 1032,0 hPa 0,0 l/m 9,3 km/h (2 Bft) O 98 1 min 0,000 mm 0,5 UV-I 217 W/m 3,2 C 5,9 C 14,5 km/h (3 Bft) 99,03 %
01.11.2015 08:40 8,1 C 71 % 1032,0 hPa 0,0 l/m 12,6 km/h (3 Bft) O-NO 73 1 min 0,000 mm 0,5 UV-I 219 W/m 3,2 C 4,0 C 16,1 km/h (3 Bft) 100,00 %
01.11.2015 08:41 8,2 C 70 % 1031,9 hPa 0,0 l/m 10,0 km/h (2 Bft) O-NO 59 1 min 0,000 mm 0,5 UV-I 222 W/m 3,1 C 5,6 C 17,7 km/h (3 Bft) 100,00 %
01.11.2015 08:42 8,2 C 71 % 1032,0 hPa 0,0 l/m 10,2 km/h (2 Bft) NO 45 1 min 0,000 mm 0,5 UV-I 224 W/m 3,3 C 5,5 C 14,5 km/h (3 Bft) 100,00 %
01.11.2015 08:43 8,2 C 70 % 1032,0 hPa 0,0 l/m 11,6 km/h (2 Bft) O 84 1 min 0,000 mm 0,5 UV-I 227 W/m 3,1 C 4,7 C 16,1 km/h (3 Bft) 100,00 %
01.11.2015 08:44 8,3 C 70 % 1032,0 hPa 0,0 l/m 9,7 km/h (2 Bft) O-NO 65 1 min 0,000 mm 0,5 UV-I 230 W/m 3,2 C 5,9 C 14,5 km/h (3 Bft) 96,15 %
01.11.2015 08:45 8,3 C 70 % 1032,1 hPa 0,0 l/m 9,7 km/h (2 Bft) O-NO 73 1 min 0,000 mm 0,5 UV-I 232 W/m 3,2 C 5,9 C 12,9 km/h (3 Bft) 100,00 %
01.11.2015 08:46 8,3 C 70 % 1032,1 hPa 0,0 l/m 12,3 km/h (3 Bft) O 84 1 min 0,000 mm 0,5 UV-I 235 W/m 3,2 C 4,4 C 17,7 km/h (3 Bft) 100,00 %
01.11.2015 08:47 8,4 C 69 % 1032,0 hPa 0,0 l/m 13,9 km/h (3 Bft) O 94 1 min 0,000 mm 0,5 UV-I 238 W/m 3,0 C 3,7 C 17,7 km/h (3 Bft) 95,83 %
01.11.2015 08:48 8,4 C 69 % 1032,0 hPa 0,0 l/m 9,7 km/h (2 Bft) O 86 1 min 0,000 mm 0,5 UV-I 241 W/m 3,0 C 6,0 C 14,5 km/h (3 Bft) 100,00 %
01.11.2015 08:49 8,4 C 69 % 1032,0 hPa 0,0 l/m 10,3 km/h (2 Bft) O-NO 74 1 min 0,000 mm 0,6 UV-I 243 W/m 3,0 C 5,6 C 14,5 km/h (3 Bft) 100,00 %
01.11.2015 08:50 8,5 C 69 % 1032,1 hPa 0,0 l/m 12,7 km/h (3 Bft) O 101 1 min 0,000 mm 0,6 UV-I 246 W/m 3,1 C 4,4 C 17,7 km/h (3 Bft) 95,65 %
01.11.2015 08:51 8,5 C 68 % 1032,0 hPa 0,0 l/m 9,5 km/h (2 Bft) O-SO 102 1 min 0,000 mm 0,6 UV-I 248 W/m 2,9 C 6,3 C 14,5 km/h (3 Bft) 100,00 %
01.11.2015 08:52 8,6 C 69 % 1032,0 hPa 0,0 l/m 11,3 km/h (2 Bft) NO 43 1 min 0,000 mm 0,6 UV-I 251 W/m 3,2 C 5,3 C 14,5 km/h (3 Bft) 96,15 %
01.11.2015 08:53 8,6 C 68 % 1032,1 hPa 0,0 l/m 11,5 km/h (2 Bft) O 98 1 min 0,000 mm 0,6 UV-I 252 W/m 3,0 C 5,2 C 16,1 km/h (3 Bft) 100,00 %
01.11.2015 08:54 8,7 C 67 % 1032,1 hPa 0,0 l/m 11,3 km/h (2 Bft) O 92 1 min 0,000 mm 0,6 UV-I 255 W/m 2,9 C 5,4 C 16,1 km/h (3 Bft) 100,00 %
01.11.2015 08:55 8,7 C 67 % 1032,1 hPa 0,0 l/m 11,5 km/h (2 Bft) O 80 1 min 0,000 mm 0,6 UV-I 258 W/m 2,9 C 5,3 C 14,5 km/h (3 Bft) 100,00 %
01.11.2015 08:56 8,7 C 67 % 1032,0 hPa 0,0 l/m 10,6 km/h (2 Bft) NO 53 1 min 0,000 mm 0,6 UV-I 261 W/m 2,9 C 5,8 C 14,5 km/h (3 Bft) 99,03 %
01.11.2015 08:57 8,8 C 67 % 1032,0 hPa 0,0 l/m 7,9 km/h (2 Bft) O-NO 57 1 min 0,000 mm 0,6 UV-I 263 W/m 3,0 C 7,7 C 12,9 km/h (3 Bft) 100,00 %
01.11.2015 08:58 8,8 C 67 % 1032,0 hPa 0,0 l/m 8,9 km/h (2 Bft) O 83 1 min 0,000 mm 0,6 UV-I 265 W/m 3,0 C 7,0 C 14,5 km/h (3 Bft) 100,00 %
01.11.2015 08:59 8,9 C 67 % 1032,0 hPa 0,0 l/m 10,1 km/h (2 Bft) O 83 1 min 0,000 mm 0,6 UV-I 266 W/m 3,1 C 6,3 C 16,1 km/h (3 Bft) 100,00 %
01.11.2015 09:00 8,9 C 66 % 1032,0 hPa 0,0 l/m 10,5 km/h (2 Bft) O 86 1 min 0,000 mm 0,6 UV-I 269 W/m 2,9 C 6,1 C 14,5 km/h (3 Bft) 100,00 %
01.11.2015 09:01 8,9 C 66 % 1032,0 hPa 0,0 l/m 11,7 km/h (2 Bft) O-NO 76 1 min 0,102 mm 0,7 UV-I 271 W/m 2,9 C 5,4 C 17,7 km/h (3 Bft) 100,00 %
01.11.2015 09:02 9,0 C 65 % 1032,0 hPa 0,0 l/m 12,3 km/h (3 Bft) N-NO 26 1 min 0,000 mm 0,7 UV-I 272 W/m 2,8 C 5,2 C 16,1 km/h (3 Bft) 100,00 %
01.11.2015 09:03 9,0 C 65 % 1031,9 hPa 0,0 l/m 7,4 km/h (2 Bft) O 80 1 min 0,000 mm 0,7 UV-I 275 W/m 2,8 C 8,2 C 12,9 km/h (3 Bft) 96,15 %
01.11.2015 09:04 9,1 C 67 % 1032,0 hPa 0,0 l/m 7,2 km/h (2 Bft) O-SO 102 1 min 0,000 mm 0,7 UV-I 276 W/m 3,3 C 8,5 C 11,3 km/h (2 Bft) 95,83 %
01.11.2015 09:05 9,1 C 66 % 1032,0 hPa 0,0 l/m 9,1 km/h (2 Bft) NO 56 1 min 0,000 mm 0,7 UV-I 278 W/m 3,1 C 7,2 C 16,1 km/h (3 Bft) 92,31 %
01.11.2015 09:06 9,1 C 65 % 1032,0 hPa 0,0 l/m 10,1 km/h (2 Bft) O-NO 59 1 min 0,000 mm 0,7 UV-I 281 W/m 2,9 C 6,5 C 12,9 km/h (3 Bft) 95,83 %
01.11.2015 09:07 9,2 C 66 % 1032,0 hPa 0,0 l/m 7,1 km/h (2 Bft) O 90 1 min 0,000 mm 0,7 UV-I 283 W/m 3,2 C 8,7 C 11,3 km/h (2 Bft) 100,00 %
01.11.2015 09:08 9,2 C 64 % 1032,0 hPa 0,0 l/m 10,6 km/h (2 Bft) O 81 1 min 0,000 mm 0,7 UV-I 286 W/m 2,8 C 6,4 C 14,5 km/h (3 Bft) 100,00 %
01.11.2015 09:09 9,2 C 64 % 1032,0 hPa 0,0 l/m 9,5 km/h (2 Bft) O-NO 62 1 min 0,000 mm 0,7 UV-I 287 W/m 2,8 C 7,0 C 12,9 km/h (3 Bft) 100,00 %
01.11.2015 09:10 9,2 C 64 % 1032,0 hPa 0,0 l/m 8,5 km/h (2 Bft) O-NO 66 1 min 0,000 mm 0,7 UV-I 289 W/m 2,8 C 7,7 C 12,9 km/h (3 Bft) 100,00 %
01.11.2015 09:11 9,3 C 64 % 1032,0 hPa 0,0 l/m 8,6 km/h (2 Bft) O 82 1 min 0,000 mm 0,8 UV-I 292 W/m 2,8 C 7,7 C 11,3 km/h (2 Bft) 100,00 %
01.11.2015 09:12 9,3 C 64 % 1032,0 hPa 0,0 l/m 7,3 km/h (2 Bft) O-SO 104 1 min 0,000 mm 0,8 UV-I 294 W/m 2,8 C 8,6 C 11,3 km/h (2 Bft) 100,00 %
01.11.2015 09:13 9,3 C 64 % 1032,1 hPa 0,0 l/m 8,5 km/h (2 Bft) O 80 1 min 0,000 mm 0,8 UV-I 295 W/m 2,8 C 7,8 C 12,9 km/h (3 Bft) 100,00 %
01.11.2015 09:14 9,4 C 64 % 1032,1 hPa 0,0 l/m 9,6 km/h (2 Bft) O-SO 109 1 min 0,000 mm 0,8 UV-I 298 W/m 2,9 C 7,2 C 12,9 km/h (3 Bft) 100,00 %
01.11.2015 09:15 9,4 C 64 % 1032,1 hPa 0,0 l/m 11,9 km/h (2 Bft) O 92 1 min 0,000 mm 0,8 UV-I 300 W/m 2,9 C 5,9 C 16,1 km/h (3 Bft) 100,00 %
01.11.2015 09:16 9,4 C 63 % 1032,1 hPa 0,0 l/m 9,2 km/h (2 Bft) O-NO 61 1 min 0,000 mm 0,8 UV-I 303 W/m 2,7 C 7,4 C 12,9 km/h (3 Bft) 100,00 %
01.11.2015 09:17 9,5 C 64 % 1032,1 hPa 0,0 l/m 8,7 km/h (2 Bft) O 87 1 min 0,000 mm 0,8 UV-I 305 W/m 3,0 C 7,9 C 12,9 km/h (3 Bft) 100,00 %
01.11.2015 09:18 9,6 C 64 % 1032,1 hPa 0,0 l/m 10,6 km/h (2 Bft) O-NO 69 1 min 0,000 mm 0,8 UV-I 308 W/m 3,1 C 6,8 C 14,5 km/h (3 Bft) 95,83 %
01.11.2015 09:19 9,6 C 62 % 1032,1 hPa 0,0 l/m 9,2 km/h (2 Bft) O-NO 72 1 min 0,000 mm 0,8 UV-I 309 W/m 2,7 C 7,6 C 16,1 km/h (3 Bft) 100,00 %
01.11.2015 09:20 9,6 C 63 % 1032,1 hPa 0,0 l/m 10,5 km/h (2 Bft) O 81 1 min 0,000 mm 0,8 UV-I 312 W/m 2,9 C 6,9 C 16,1 km/h (3 Bft) 100,00 %
01.11.2015 09:21 9,7 C 62 % 1032,1 hPa 0,0 l/m 10,1 km/h (2 Bft) O-NO 63 1 min 0,000 mm 0,8 UV-I 313 W/m 2,8 C 7,2 C 16,1 km/h (3 Bft) 100,00 %
01.11.2015 09:22 9,7 C 63 % 1032,1 hPa 0,0 l/m 9,8 km/h (2 Bft) O 84 1 min 0,000 mm 0,9 UV-I 315 W/m 3,0 C 7,4 C 12,9 km/h (3 Bft) 100,00 %
01.11.2015 09:23 9,7 C 63 % 1032,1 hPa 0,0 l/m 9,0 km/h (2 Bft) O-NO 75 1 min 0,000 mm 0,9 UV-I 316 W/m 3,0 C 7,9 C 12,9 km/h (3 Bft) 100,00 %
01.11.2015 09:24 9,7 C 63 % 1032,2 hPa 0,0 l/m 7,8 km/h (2 Bft) O 94 1 min 0,000 mm 0,9 UV-I 318 W/m 3,0 C 8,7 C 14,5 km/h (3 Bft) 100,00 %
01.11.2015 09:25 9,8 C 63 % 1032,2 hPa 0,0 l/m 8,4 km/h (2 Bft) O 80 1 min 0,000 mm 0,9 UV-I 320 W/m 3,1 C 8,4 C 12,9 km/h (3 Bft) 91,67 %
01.11.2015 09:26 9,8 C 61 % 1032,2 hPa 0,0 l/m 12,0 km/h (2 Bft) O-NO 60 1 min 0,000 mm 0,9 UV-I 322 W/m 2,6 C 6,3 C 14,5 km/h (3 Bft) 100,00 %
01.11.2015 09:27 9,8 C 61 % 1032,2 hPa 0,0 l/m 9,2 km/h (2 Bft) O-NO 67 1 min 0,000 mm 0,9 UV-I 324 W/m 2,6 C 7,9 C 14,5 km/h (3 Bft) 100,00 %
01.11.2015 09:28 9,8 C 62 % 1032,1 hPa 0,0 l/m 9,9 km/h (2 Bft) O 92 1 min 0,000 mm 0,9 UV-I 326 W/m 2,9 C 7,4 C 12,9 km/h (3 Bft) 100,00 %
01.11.2015 09:29 9,9 C 61 % 1032,1 hPa 0,0 l/m 11,4 km/h (2 Bft) O 80 1 min 0,000 mm 0,9 UV-I 329 W/m 2,7 C 6,7 C 16,1 km/h (3 Bft) 100,00 %
01.11.2015 09:30 9,9 C 61 % 1032,2 hPa 0,0 l/m 7,7 km/h (2 Bft) O-NO 72 1 min 0,000 mm 0,9 UV-I 330 W/m 2,7 C 9,0 C 11,3 km/h (2 Bft) 100,00 %
01.11.2015 09:31 9,9 C 61 % 1032,2 hPa 0,0 l/m 9,9 km/h (2 Bft) O 80 1 min 0,000 mm 1,0 UV-I 331 W/m 2,7 C 7,5 C 14,5 km/h (3 Bft) 100,00 %
01.11.2015 09:32 9,9 C 60 % 1032,2 hPa 0,0 l/m 9,1 km/h (2 Bft) O-NO 66 1 min 0,000 mm 1,0 UV-I 334 W/m 2,5 C 8,0 C 12,9 km/h (3 Bft) 100,00 %
01.11.2015 09:33 10,0 C 61 % 1032,1 hPa 0,0 l/m 8,3 km/h (2 Bft) O 88 1 min 0,000 mm 1,0 UV-I 336 W/m 2,8 C 8,7 C 11,3 km/h (2 Bft) 100,00 %
01.11.2015 09:34 10,0 C 61 % 1032,1 hPa 0,0 l/m 10,0 km/h (2 Bft) O-NO 69 1 min 0,000 mm 1,0 UV-I 338 W/m 2,8 C 7,6 C 12,9 km/h (3 Bft) 94,12 %
01.11.2015 09:35 10,1 C 60 % 1032,1 hPa 0,0 l/m 7,5 km/h (2 Bft) O-NO 65 1 min 0,000 mm 1,0 UV-I 340 W/m 2,7 C 9,3 C 12,9 km/h (3 Bft) 100,00 %
01.11.2015 09:36 10,1 C 60 % 1032,1 hPa 0,0 l/m 7,8 km/h (2 Bft) O 88 1 min 0,000 mm 1,0 UV-I 341 W/m 2,7 C 9,1 C 12,9 km/h (3 Bft) 100,00 %
01.11.2015 09:37 10,1 C 61 % 1032,1 hPa 0,0 l/m 12,3 km/h (3 Bft) NO 43 1 min 0,000 mm 1,0 UV-I 344 W/m 2,9 C 6,5 C 20,9 km/h (4 Bft) 100,00 %
01.11.2015 09:38 10,1 C 60 % 1032,0 hPa 0,0 l/m 10,4 km/h (2 Bft) O 84 1 min 0,000 mm 1,0 UV-I 345 W/m 2,7 C 7,5 C 14,5 km/h (3 Bft) 100,00 %
01.11.2015 09:39 10,2 C 59 % 1032,0 hPa 0,0 l/m 13,5 km/h (3 Bft) O-NO 57 1 min 0,000 mm 1,0 UV-I 347 W/m 2,6 C 6,0 C 16,1 km/h (3 Bft) 100,00 %
01.11.2015 09:40 10,2 C 59 % 1032,0 hPa 0,0 l/m 12,1 km/h (2 Bft) O-NO 72 1 min 0,000 mm 1,0 UV-I 350 W/m 2,6 C 6,7 C 19,3 km/h (3 Bft) 100,00 %
01.11.2015 09:41 10,2 C 59 % 1031,9 hPa 0,0 l/m 8,4 km/h (2 Bft) NO 46 1 min 0,000 mm 1,1 UV-I 352 W/m 2,6 C 8,8 C 12,9 km/h (3 Bft) 100,00 %
01.11.2015 09:42 10,2 C 59 % 1032,0 hPa 0,0 l/m 10,8 km/h (2 Bft) O-NO 71 1 min 0,000 mm 1,1 UV-I 353 W/m 2,6 C 7,4 C 14,5 km/h (3 Bft) 100,00 %
01.11.2015 09:43 10,2 C 59 % 1032,0 hPa 0,0 l/m 13,4 km/h (3 Bft) O-NO 72 1 min 0,000 mm 1,1 UV-I 354 W/m 2,6 C 6,1 C 17,7 km/h (3 Bft) 95,65 %
01.11.2015 09:44 10,2 C 59 % 1031,9 hPa 0,0 l/m 13,6 km/h (3 Bft) O-NO 74 1 min 0,000 mm 1,1 UV-I 358 W/m 2,6 C 6,0 C 17,7 km/h (3 Bft) 100,00 %
01.11.2015 09:45 10,2 C 59 % 1032,0 hPa 0,0 l/m 12,9 km/h (3 Bft) O 83 1 min 0,000 mm 1,1 UV-I 360 W/m 2,6 C 6,3 C 19,3 km/h (3 Bft) 100,00 %
01.11.2015 09:46 10,3 C 60 % 1032,0 hPa 0,0 l/m 11,7 km/h (2 Bft) O-NO 57 1 min 0,000 mm 1,1 UV-I 360 W/m 2,9 C 7,0 C 17,7 km/h (3 Bft) 100,00 %
01.11.2015 09:47 10,3 C 59 % 1032,0 hPa 0,0 l/m 13,0 km/h (3 Bft) O 98 1 min 0,000 mm 1,1 UV-I 362 W/m 2,6 C 6,4 C 17,7 km/h (3 Bft) 100,00 %
01.11.2015 09:48 10,3 C 59 % 1032,0 hPa 0,0 l/m 12,6 km/h (3 Bft) O-NO 71 1 min 0,000 mm 1,1 UV-I 364 W/m 2,6 C 6,6 C 16,1 km/h (3 Bft) 100,00 %
01.11.2015 09:49 10,4 C 59 % 1032,0 hPa 0,0 l/m 9,6 km/h (2 Bft) O-NO 75 1 min 0,000 mm 1,1 UV-I 366 W/m 2,7 C 8,3 C 14,5 km/h (3 Bft) 100,00 %
01.11.2015 09:50 10,4 C 59 % 1032,0 hPa 0,0 l/m 8,9 km/h (2 Bft) O 82 1 min 0,000 mm 1,1 UV-I 367 W/m 2,7 C 8,7 C 14,5 km/h (3 Bft) 100,00 %
01.11.2015 09:51 10,4 C 59 % 1032,0 hPa 0,0 l/m 10,8 km/h (2 Bft) O 90 1 min 0,000 mm 1,1 UV-I 368 W/m 2,7 C 7,6 C 14,5 km/h (3 Bft) 100,00 %
01.11.2015 09:52 10,5 C 59 % 1032,0 hPa 0,0 l/m 8,4 km/h (2 Bft) O-NO 60 1 min 0,000 mm 1,2 UV-I 370 W/m 2,8 C 9,1 C 14,5 km/h (3 Bft) 100,00 %
01.11.2015 09:53 10,6 C 59 % 1032,0 hPa 0,0 l/m 10,1 km/h (2 Bft) O 88 1 min 0,000 mm 1,2 UV-I 371 W/m 2,9 C 8,2 C 12,9 km/h (3 Bft) 100,00 %
01.11.2015 09:54 10,6 C 58 % 1032,0 hPa 0,0 l/m 12,5 km/h (3 Bft) O 82 1 min 0,000 mm 1,2 UV-I 373 W/m 2,7 C 7,0 C 16,1 km/h (3 Bft) 100,00 %
01.11.2015 09:55 10,6 C 58 % 1032,0 hPa 0,0 l/m 13,5 km/h (3 Bft) O 100 1 min 0,000 mm 1,2 UV-I 375 W/m 2,7 C 6,5 C 16,1 km/h (3 Bft) 100,00 %
01.11.2015 09:56 10,6 C 57 % 1032,0 hPa 0,0 l/m 10,9 km/h (2 Bft) O 89 1 min 0,000 mm 1,2 UV-I 377 W/m 2,4 C 7,8 C 16,1 km/h (3 Bft) 100,00 %
01.11.2015 09:57 10,7 C 58 % 1032,0 hPa 0,0 l/m 8,4 km/h (2 Bft) N-NO 32 1 min 0,000 mm 1,2 UV-I 378 W/m 2,8 C 9,3 C 14,5 km/h (3 Bft) 100,00 %
01.11.2015 09:58 10,7 C 57 % 1032,0 hPa 0,0 l/m 10,0 km/h (2 Bft) O 84 1 min 0,000 mm 1,2 UV-I 380 W/m 2,5 C 8,4 C 16,1 km/h (3 Bft) 100,00 %
01.11.2015 09:59 10,7 C 57 % 1032,0 hPa 0,0 l/m 12,1 km/h (2 Bft) O 94 1 min 0,000 mm 1,2 UV-I 381 W/m 2,5 C 7,3 C 19,3 km/h (3 Bft) 100,00 %
01.11.2015 10:00 10,7 C 56 % 1032,0 hPa 0,0 l/m 13,8 km/h (3 Bft) O-NO 67 1 min 0,203 mm 1,2 UV-I 381 W/m 2,3 C 6,5 C 19,3 km/h (3 Bft) 100,00 %
01.11.2015 10:01 10,8 C 58 % 1032,0 hPa 0,0 l/m 12,6 km/h (3 Bft) O-NO 76 1 min 0,000 mm 1,2 UV-I 383 W/m 2,9 C 7,1 C 16,1 km/h (3 Bft) 100,00 %
01.11.2015 10:02 10,8 C 59 % 1031,9 hPa 0,0 l/m 11,9 km/h (2 Bft) O 82 1 min 0,000 mm 1,3 UV-I 386 W/m 3,1 C 7,5 C 16,1 km/h (3 Bft) 100,00 %
01.11.2015 10:03 10,8 C 57 % 1031,9 hPa 0,0 l/m 10,5 km/h (2 Bft) O-NO 67 1 min 0,000 mm 1,3 UV-I 388 W/m 2,6 C 8,2 C 16,1 km/h (3 Bft) 100,00 %
01.11.2015 10:04 10,8 C 59 % 1031,9 hPa 0,0 l/m 9,9 km/h (2 Bft) O 93 1 min 0,000 mm 1,3 UV-I 388 W/m 3,1 C 8,5 C 14,5 km/h (3 Bft) 100,00 %
01.11.2015 10:05 10,9 C 58 % 1031,9 hPa 0,0 l/m 10,5 km/h (2 Bft) O-NO 69 1 min 0,000 mm 1,3 UV-I 390 W/m 3,0 C 8,3 C 16,1 km/h (3 Bft) 100,00 %
01.11.2015 10:06 10,9 C 57 % 1031,9 hPa 0,0 l/m 11,9 km/h (2 Bft) O 90 1 min 0,000 mm 1,3 UV-I 392 W/m 2,7 C 7,6 C 16,1 km/h (3 Bft) 100,00 %
01.11.2015 10:07 11,0 C 56 % 1031,9 hPa 0,0 l/m 10,4 km/h (2 Bft) O 96 1 min 0,000 mm 1,3 UV-I 394 W/m 2,6 C 8,5 C 16,1 km/h (3 Bft) 100,00 %
01.11.2015 10:08 11,0 C 56 % 1031,9 hPa 0,0 l/m 8,9 km/h (2 Bft) O 82 1 min 0,000 mm 1,3 UV-I 395 W/m 2,6 C 9,3 C 12,9 km/h (3 Bft) 100,00 %
01.11.2015 10:09 11,1 C 57 % 1031,9 hPa 0,0 l/m 7,7 km/h (2 Bft) O-SO 103 1 min 0,000 mm 1,3 UV-I 397 W/m 2,9 C 10,2 C 14,5 km/h (3 Bft) 100,00 %
01.11.2015 10:10 11,1 C 57 % 1031,9 hPa 0,0 l/m 7,5 km/h (2 Bft) O 90 1 min 0,000 mm 1,3 UV-I 397 W/m 2,9 C 10,3 C 11,3 km/h (2 Bft) 100,00 %
01.11.2015 10:11 11,2 C 56 % 1031,9 hPa 0,0 l/m 8,0 km/h (2 Bft) O 79 1 min 0,000 mm 1,3 UV-I 399 W/m 2,8 C 10,1 C 12,9 km/h (3 Bft) 100,00 %
01.11.2015 10:12 11,2 C 56 % 1031,9 hPa 0,0 l/m 10,7 km/h (2 Bft) O-NO 76 1 min 0,000 mm 1,3 UV-I 403 W/m 2,8 C 8,5 C 16,1 km/h (3 Bft) 100,00 %
01.11.2015 10:13 11,2 C 55 % 1031,9 hPa 0,0 l/m 10,5 km/h (2 Bft) O-NO 61 1 min 0,000 mm 1,3 UV-I 406 W/m 2,5 C 8,7 C 16,1 km/h (3 Bft) 100,00 %
01.11.2015 10:14 11,3 C 55 % 1032,0 hPa 0,0 l/m 10,9 km/h (2 Bft) O 80 1 min 0,000 mm 1,4 UV-I 404 W/m 2,6 C 8,6 C 14,5 km/h (3 Bft) 96,15 %
01.11.2015 10:15 11,3 C 58 % 1032,0 hPa 0,0 l/m 6,0 km/h (2 Bft) N-NO 28 1 min 0,000 mm 1,4 UV-I 405 W/m 3,3 C 11,3 C 11,3 km/h (2 Bft) 100,00 %
01.11.2015 10:16 11,4 C 58 % 1032,0 hPa 0,0 l/m 4,0 km/h (1 Bft) O-NO 65 1 min 0,000 mm 1,4 UV-I 406 W/m 3,4 C 11,4 C 11,3 km/h (2 Bft) 100,00 %
01.11.2015 10:17 11,4 C 57 % 1032,0 hPa 0,0 l/m 7,7 km/h (2 Bft) O 81 1 min 0,000 mm 1,4 UV-I 408 W/m 3,2 C 10,5 C 11,3 km/h (2 Bft) 100,00 %
01.11.2015 10:18 11,4 C 55 % 1032,0 hPa 0,0 l/m 6,7 km/h (2 Bft) N-NO 19 1 min 0,000 mm 1,4 UV-I 410 W/m 2,7 C 11,2 C 11,3 km/h (2 Bft) 100,00 %
01.11.2015 10:19 11,5 C 57 % 1032,0 hPa 0,0 l/m 4,4 km/h (1 Bft) NO 39 1 min 0,000 mm 1,4 UV-I 411 W/m 3,3 C 11,5 C 6,4 km/h (2 Bft) 95,83 %
01.11.2015 10:20 11,6 C 56 % 1032,0 hPa 0,0 l/m 8,4 km/h (2 Bft) O-SO 102 1 min 0,000 mm 1,4 UV-I 412 W/m 3,1 C 10,3 C 12,9 km/h (3 Bft) 100,00 %
01.11.2015 10:21 11,6 C 53 % 1032,0 hPa 0,0 l/m 9,3 km/h (2 Bft) O 86 1 min 0,000 mm 1,4 UV-I 413 W/m 2,4 C 9,8 C 14,5 km/h (3 Bft) 100,00 %
01.11.2015 10:22 11,6 C 53 % 1032,0 hPa 0,0 l/m 11,8 km/h (2 Bft) O-NO 76 1 min 0,000 mm 1,4 UV-I 415 W/m 2,4 C 8,5 C 14,5 km/h (3 Bft) 100,00 %
01.11.2015 10:23 11,6 C 54 % 1032,0 hPa 0,0 l/m 9,5 km/h (2 Bft) O-NO 61 1 min 0,000 mm 1,4 UV-I 415 W/m 2,6 C 9,6 C 14,5 km/h (3 Bft) 92,31 %
01.11.2015 10:24 11,6 C 53 % 1032,0 hPa 0,0 l/m 9,5 km/h (2 Bft) N-NO 20 1 min 0,000 mm 1,4 UV-I 417 W/m 2,4 C 9,6 C 12,9 km/h (3 Bft) 100,00 %
01.11.2015 10:25 11,6 C 53 % 1032,0 hPa 0,0 l/m 10,1 km/h (2 Bft) O 101 1 min 0,000 mm 1,5 UV-I 419 W/m 2,4 C 9,3 C 16,1 km/h (3 Bft) 100,00 %
01.11.2015 10:26 11,6 C 54 % 1032,0 hPa 0,0 l/m 8,4 km/h (2 Bft) O 90 1 min 0,000 mm 1,5 UV-I 420 W/m 2,6 C 10,3 C 11,3 km/h (2 Bft) 100,00 %
01.11.2015 10:27 11,6 C 55 % 1032,1 hPa 0,0 l/m 6,4 km/h (2 Bft) O 86 1 min 0,000 mm 1,5 UV-I 421 W/m 2,9 C 11,6 C 9,7 km/h (2 Bft) 97,50 %
01.11.2015 10:28 11,7 C 53 % 1032,0 hPa 0,0 l/m 7,4 km/h (2 Bft) NO 38 1 min 0,000 mm 1,5 UV-I 424 W/m 2,4 C 11,0 C 11,3 km/h (2 Bft) 100,00 %
01.11.2015 10:29 11,7 C 53 % 1032,1 hPa 0,0 l/m 8,0 km/h (2 Bft) O 80 1 min 0,000 mm 1,5 UV-I 424 W/m 2,4 C 10,6 C 12,9 km/h (3 Bft) 100,00 %
01.11.2015 10:30 11,7 C 53 % 1032,1 hPa 0,0 l/m 9,7 km/h (2 Bft) NO 53 1 min 0,000 mm 1,5 UV-I 425 W/m 2,4 C 9,6 C 14,5 km/h (3 Bft) 100,00 %
01.11.2015 10:31 11,7 C 53 % 1032,1 hPa 0,0 l/m 10,9 km/h (2 Bft) O-NO 76 1 min 0,000 mm 1,5 UV-I 426 W/m 2,4 C 9,0 C 12,9 km/h (3 Bft) 100,00 %
01.11.2015 10:32 11,8 C 51 % 1032,1 hPa 0,0 l/m 8,7 km/h (2 Bft) O-NO 78 1 min 0,000 mm 1,5 UV-I 427 W/m 2,0 C 10,3 C 12,9 km/h (3 Bft) 95,83 %
01.11.2015 10:33 11,8 C 53 % 1032,1 hPa 0,0 l/m 9,9 km/h (2 Bft) O 94 1 min 0,000 mm 1,5 UV-I 428 W/m 2,5 C 9,6 C 12,9 km/h (3 Bft) 96,30 %
01.11.2015 10:34 11,8 C 54 % 1032,1 hPa 0,0 l/m 10,4 km/h (2 Bft) O-NO 67 1 min 0,000 mm 1,5 UV-I 431 W/m 2,8 C 9,4 C 14,5 km/h (3 Bft) 91,67 %
01.11.2015 10:35 11,9 C 56 % 1032,1 hPa 0,0 l/m 7,1 km/h (2 Bft) O 82 1 min 0,000 mm 1,5 UV-I 431 W/m 3,4 C 11,4 C 12,9 km/h (3 Bft) 100,00 %
01.11.2015 10:36 11,9 C 53 % 1032,1 hPa 0,0 l/m 10,4 km/h (2 Bft) O-NO 62 1 min 0,000 mm 1,5 UV-I 431 W/m 2,6 C 9,5 C 16,1 km/h (3 Bft) 100,00 %
01.11.2015 10:37 12,0 C 52 % 1032,1 hPa 0,0 l/m 8,3 km/h (2 Bft) O 81 1 min 0,000 mm 1,5 UV-I 433 W/m 2,5 C 10,8 C 12,9 km/h (3 Bft) 100,00 %
01.11.2015 10:38 12,1 C 52 % 1032,0 hPa 0,0 l/m 7,5 km/h (2 Bft) O 99 1 min 0,000 mm 1,6 UV-I 434 W/m 2,5 C 11,4 C 14,5 km/h (3 Bft) 100,00 %
01.11.2015 10:39 12,1 C 53 % 1032,0 hPa 0,0 l/m 4,3 km/h (1 Bft) NO 46 1 min 0,000 mm 1,6 UV-I 435 W/m 2,8 C 12,1 C 9,7 km/h (2 Bft) 100,00 %
01.11.2015 10:40 12,1 C 52 % 1032,0 hPa 0,0 l/m 8,3 km/h (2 Bft) O-NO 65 1 min 0,000 mm 1,6 UV-I 436 W/m 2,5 C 10,9 C 16,1 km/h (3 Bft) 99,09 %
01.11.2015 10:41 12,1 C 50 % 1032,0 hPa 0,0 l/m 6,6 km/h (2 Bft) O-NO 65 1 min 0,000 mm 1,6 UV-I 438 W/m 2,0 C 12,0 C 11,3 km/h (2 Bft) 100,00 %
01.11.2015 10:42 12,1 C 50 % 1032,0 hPa 0,0 l/m 10,5 km/h (2 Bft) O-NO 59 1 min 0,000 mm 1,6 UV-I 440 W/m 2,0 C 9,7 C 17,7 km/h (3 Bft) 100,00 %
01.11.2015 10:43 12,2 C 49 % 1032,0 hPa 0,0 l/m 12,9 km/h (3 Bft) O-NO 78 1 min 0,000 mm 1,6 UV-I 446 W/m 1,8 C 8,6 C 20,9 km/h (4 Bft) 100,00 %
01.11.2015 10:44 12,2 C 49 % 1032,0 hPa 0,0 l/m 12,7 km/h (3 Bft) O-NO 67 1 min 0,000 mm 1,6 UV-I 444 W/m 1,8 C 8,7 C 19,3 km/h (3 Bft) 86,96 %
01.11.2015 10:45 12,2 C 50 % 1032,0 hPa 0,0 l/m 9,1 km/h (2 Bft) O 86 1 min 0,000 mm 1,6 UV-I 450 W/m 2,1 C 10,5 C 12,9 km/h (3 Bft) 83,33 %
01.11.2015 10:46 12,2 C 50 % 1032,0 hPa 0,0 l/m 9,4 km/h (2 Bft) O 100 1 min 0,000 mm 1,6 UV-I 452 W/m 2,1 C 10,3 C 14,5 km/h (3 Bft) 76,92 %
01.11.2015 10:47 12,2 C 49 % 1032,0 hPa 0,0 l/m 7,9 km/h (2 Bft) O-NO 74 1 min 0,000 mm 1,6 UV-I 443 W/m 1,8 C 11,2 C 14,5 km/h (3 Bft) 87,50 %
01.11.2015 10:48 12,3 C 49 % 1031,9 hPa 0,0 l/m 8,0 km/h (2 Bft) O-NO 69 1 min 0,000 mm 1,6 UV-I 445 W/m 1,9 C 11,3 C 12,9 km/h (3 Bft) 100,00 %
01.11.2015 10:49 12,3 C 49 % 1032,0 hPa 0,0 l/m 8,9 km/h (2 Bft) O-NO 63 1 min 0,000 mm 1,6 UV-I 445 W/m 1,9 C 10,7 C 12,9 km/h (3 Bft) 95,83 %
01.11.2015 10:50 12,3 C 50 % 1032,0 hPa 0,0 l/m 8,6 km/h (2 Bft) O 92 1 min 0,000 mm 1,6 UV-I 452 W/m 2,2 C 10,9 C 12,9 km/h (3 Bft) 89,66 %
01.11.2015 10:51 12,4 C 50 % 1032,0 hPa 0,0 l/m 9,7 km/h (2 Bft) O-NO 59 1 min 0,000 mm 1,6 UV-I 449 W/m 2,3 C 10,4 C 14,5 km/h (3 Bft) 100,00 %
01.11.2015 10:52 12,4 C 51 % 1032,0 hPa 0,0 l/m 10,2 km/h (2 Bft) O 92 1 min 0,000 mm 1,6 UV-I 448 W/m 2,6 C 10,1 C 14,5 km/h (3 Bft) 98,91 %
01.11.2015 10:53 12,5 C 49 % 1032,0 hPa 0,0 l/m 10,7 km/h (2 Bft) NO 41 1 min 0,000 mm 1,7 UV-I 451 W/m 2,1 C 10,0 C 16,1 km/h (3 Bft) 97,56 %
01.11.2015 10:54 12,5 C 50 % 1032,0 hPa 0,0 l/m 10,3 km/h (2 Bft) O-NO 76 1 min 0,000 mm 1,7 UV-I 457 W/m 2,4 C 10,2 C 14,5 km/h (3 Bft) 96,15 %
01.11.2015 10:55 12,5 C 50 % 1032,0 hPa 0,0 l/m 11,0 km/h (2 Bft) O-NO 73 1 min 0,000 mm 1,7 UV-I 452 W/m 2,4 C 9,9 C 12,9 km/h (3 Bft) 100,00 %
01.11.2015 10:56 12,6 C 51 % 1032,0 hPa 0,0 l/m 8,4 km/h (2 Bft) O-NO 64 1 min 0,000 mm 1,7 UV-I 459 W/m 2,7 C 11,3 C 12,9 km/h (3 Bft) 100,00 %
01.11.2015 10:57 12,6 C 50 % 1032,0 hPa 0,0 l/m 11,5 km/h (2 Bft) O 79 1 min 0,000 mm 1,7 UV-I 454 W/m 2,5 C 9,7 C 16,1 km/h (3 Bft) 95,65 %
01.11.2015 10:58 12,6 C 49 % 1031,9 hPa 0,0 l/m 10,2 km/h (2 Bft) O 94 1 min 0,000 mm 1,7 UV-I 454 W/m 2,2 C 10,4 C 16,1 km/h (3 Bft) 100,00 %
01.11.2015 10:59 12,6 C 49 % 1031,9 hPa 0,0 l/m 9,3 km/h (2 Bft) O-SO 103 1 min 0,000 mm 1,7 UV-I 454 W/m 2,2 C 10,8 C 12,9 km/h (3 Bft) 100,00 %
01.11.2015 11:00 12,7 C 49 % 1031,9 hPa 0,0 l/m 9,7 km/h (2 Bft) O 90 1 min 0,254 mm 1,7 UV-I 455 W/m 2,3 C 10,7 C 12,9 km/h (3 Bft) 100,00 %
01.11.2015 11:01 12,7 C 50 % 1031,9 hPa 0,0 l/m 10,2 km/h (2 Bft) O 92 1 min 0,000 mm 1,7 UV-I 455 W/m 2,6 C 10,5 C 14,5 km/h (3 Bft) 96,15 %
01.11.2015 11:02 12,7 C 50 % 1031,9 hPa 0,0 l/m 10,9 km/h (2 Bft) O 97 1 min 0,000 mm 1,7 UV-I 456 W/m 2,6 C 10,1 C 16,1 km/h (3 Bft) 95,83 %
01.11.2015 11:03 12,7 C 51 % 1031,9 hPa 0,0 l/m 8,7 km/h (2 Bft) N-NO 20 1 min 0,000 mm 1,7 UV-I 457 W/m 2,8 C 11,3 C 14,5 km/h (3 Bft) 100,00 %
01.11.2015 11:04 12,7 C 51 % 1032,0 hPa 0,0 l/m 8,4 km/h (2 Bft) O 84 1 min 0,000 mm 1,7 UV-I 459 W/m 2,8 C 11,5 C 12,9 km/h (3 Bft) 100,00 %
01.11.2015 11:05 12,7 C 50 % 1032,0 hPa 0,0 l/m 7,2 km/h (2 Bft) O 92 1 min 0,000 mm 1,7 UV-I 466 W/m 2,6 C 12,2 C 11,3 km/h (2 Bft) 100,00 %
01.11.2015 11:06 12,8 C 50 % 1032,0 hPa 0,0 l/m 8,9 km/h (2 Bft) O 94 1 min 0,000 mm 1,7 UV-I 459 W/m 2,6 C 11,3 C 12,9 km/h (3 Bft) 100,00 %
01.11.2015 11:07 12,8 C 50 % 1032,0 hPa 0,0 l/m 8,8 km/h (2 Bft) O 90 1 min 0,000 mm 1,7 UV-I 459 W/m 2,6 C 11,3 C 14,5 km/h (3 Bft) 100,00 %
01.11.2015 11:08 12,8 C 50 % 1032,0 hPa 0,0 l/m 7,4 km/h (2 Bft) O-NO 78 1 min 0,000 mm 1,7 UV-I 460 W/m 2,6 C 12,2 C 11,3 km/h (2 Bft) 100,00 %
01.11.2015 11:09 12,8 C 51 % 1031,9 hPa 0,0 l/m 9,3 km/h (2 Bft) O-SO 104 1 min 0,000 mm 1,7 UV-I 461 W/m 2,9 C 11,1 C 12,9 km/h (3 Bft) 100,00 %
01.11.2015 11:10 12,9 C 51 % 1031,9 hPa 0,0 l/m 7,7 km/h (2 Bft) O-NO 63 1 min 0,000 mm 1,7 UV-I 461 W/m 3,0 C 12,1 C 12,9 km/h (3 Bft) 95,83 %
01.11.2015 11:11 12,9 C 49 % 1031,9 hPa 0,0 l/m 9,9 km/h (2 Bft) O 90 1 min 0,000 mm 1,7 UV-I 462 W/m 2,5 C 10,8 C 14,5 km/h (3 Bft) 100,00 %
01.11.2015 11:12 12,9 C 50 % 1032,0 hPa 0,0 l/m 8,0 km/h (2 Bft) O 92 1 min 0,000 mm 1,7 UV-I 463 W/m 2,7 C 11,9 C 12,9 km/h (3 Bft) 100,00 %
01.11.2015 11:13 13,0 C 51 % 1032,0 hPa 0,0 l/m 10,3 km/h (2 Bft) O 80 1 min 0,000 mm 1,8 UV-I 464 W/m 3,1 C 10,8 C 12,9 km/h (3 Bft) 91,67 %
01.11.2015 11:14 13,1 C 51 % 1031,9 hPa 0,0 l/m 7,2 km/h (2 Bft) O-NO 67 1 min 0,000 mm 1,8 UV-I 468 W/m 3,2 C 12,6 C 12,9 km/h (3 Bft) 100,00 %
01.11.2015 11:15 13,1 C 51 % 1032,0 hPa 0,0 l/m 5,7 km/h (1 Bft) O 97 1 min 0,000 mm 1,8 UV-I 465 W/m 3,2 C 13,1 C 9,7 km/h (2 Bft) 100,00 %
01.11.2015 11:16 13,2 C 51 % 1031,9 hPa 0,0 l/m 9,9 km/h (2 Bft) O-NO 71 1 min 0,000 mm 1,8 UV-I 464 W/m 3,3 C 11,2 C 12,9 km/h (3 Bft) 96,15 %
01.11.2015 11:17 13,2 C 49 % 1031,9 hPa 0,0 l/m 9,9 km/h (2 Bft) O 101 1 min 0,000 mm 1,8 UV-I 466 W/m 2,7 C 11,2 C 14,5 km/h (3 Bft) 95,83 %
01.11.2015 11:18 13,2 C 48 % 1031,9 hPa 0,0 l/m 9,7 km/h (2 Bft) NO 55 1 min 0,000 mm 1,8 UV-I 466 W/m 2,4 C 11,3 C 11,3 km/h (2 Bft) 100,00 %
01.11.2015 11:19 13,2 C 48 % 1031,9 hPa 0,0 l/m 8,7 km/h (2 Bft) O 91 1 min 0,000 mm 1,8 UV-I 467 W/m 2,4 C 11,8 C 12,9 km/h (3 Bft) 80,00 %
01.11.2015 11:20 13,3 C 48 % 1031,9 hPa 0,0 l/m 7,9 km/h (2 Bft) O-NO 76 1 min 0,000 mm 1,8 UV-I 468 W/m 2,5 C 12,4 C 11,3 km/h (2 Bft) 96,15 %
01.11.2015 11:21 13,3 C 48 % 1031,9 hPa 0,0 l/m 9,5 km/h (2 Bft) O 90 1 min 0,000 mm 1,8 UV-I 469 W/m 2,5 C 11,5 C 12,9 km/h (3 Bft) 100,00 %
01.11.2015 11:22 13,3 C 48 % 1031,9 hPa 0,0 l/m 9,6 km/h (2 Bft) O 93 1 min 0,000 mm 1,8 UV-I 469 W/m 2,5 C 11,4 C 12,9 km/h (3 Bft) 100,00 %
01.11.2015 11:23 13,4 C 46 % 1031,9 hPa 0,0 l/m 10,3 km/h (2 Bft) O-SO 103 1 min 0,000 mm 1,8 UV-I 469 W/m 2,0 C 11,2 C 14,5 km/h (3 Bft) 97,37 %
01.11.2015 11:24 13,4 C 47 % 1031,8 hPa 0,0 l/m 11,2 km/h (2 Bft) O 86 1 min 0,000 mm 1,8 UV-I 469 W/m 2,3 C 10,8 C 14,5 km/h (3 Bft) 100,00 %
01.11.2015 11:25 13,4 C 45 % 1031,9 hPa 0,0 l/m 10,9 km/h (2 Bft) O-NO 73 1 min 0,000 mm 1,8 UV-I 469 W/m 1,7 C 10,9 C 17,7 km/h (3 Bft) 100,00 %
01.11.2015 11:26 13,4 C 46 % 1031,9 hPa 0,0 l/m 9,7 km/h (2 Bft) O-NO 65 1 min 0,000 mm 1,8 UV-I 471 W/m 2,0 C 11,5 C 16,1 km/h (3 Bft) 100,00 %
01.11.2015 11:27 13,5 C 47 % 1031,9 hPa 0,0 l/m 9,9 km/h (2 Bft) O 98 1 min 0,000 mm 1,8 UV-I 469 W/m 2,4 C 11,5 C 11,3 km/h (2 Bft) 96,15 %
01.11.2015 11:28 13,6 C 47 % 1031,9 hPa 0,0 l/m 12,0 km/h (2 Bft) O-NO 73 1 min 0,000 mm 1,8 UV-I 471 W/m 2,5 C 10,7 C 16,1 km/h (3 Bft) 79,17 %
01.11.2015 11:29 13,6 C 47 % 1031,9 hPa 0,0 l/m 6,1 km/h (2 Bft) O 96 1 min 0,000 mm 1,8 UV-I 470 W/m 2,5 C 13,6 C 11,3 km/h (2 Bft) 92,31 %
01.11.2015 11:30 13,7 C 48 % 1031,9 hPa 0,0 l/m 5,8 km/h (2 Bft) O-NO 75 1 min 0,000 mm 1,8 UV-I 471 W/m 2,9 C 13,7 C 8,0 km/h (2 Bft) 100,00 %
01.11.2015 11:31 13,8 C 47 % 1031,8 hPa 0,0 l/m 8,1 km/h (2 Bft) O 86 1 min 0,000 mm 1,8 UV-I 471 W/m 2,7 C 12,8 C 14,5 km/h (3 Bft) 100,00 %
01.11.2015 11:32 13,9 C 47 % 1031,9 hPa 0,0 l/m 10,6 km/h (2 Bft) O-NO 63 1 min 0,000 mm 1,8 UV-I 471 W/m 2,8 C 11,6 C 14,5 km/h (3 Bft) 95,83 %
01.11.2015 11:33 13,9 C 48 % 1031,9 hPa 0,0 l/m 5,5 km/h (1 Bft) O 88 1 min 0,000 mm 1,8 UV-I 473 W/m 3,1 C 13,9 C 9,7 km/h (2 Bft) 95,65 %
01.11.2015 11:34 14,0 C 46 % 1031,9 hPa 0,0 l/m 8,9 km/h (2 Bft) O-NO 72 1 min 0,000 mm 1,8 UV-I 473 W/m 2,6 C 12,6 C 14,5 km/h (3 Bft) 95,83 %
01.11.2015 11:35 14,0 C 45 % 1031,8 hPa 0,0 l/m 9,8 km/h (2 Bft) O 90 1 min 0,000 mm 1,8 UV-I 473 W/m 2,3 C 12,1 C 16,1 km/h (3 Bft) 91,67 %
01.11.2015 11:36 14,0 C 44 % 1031,8 hPa 0,0 l/m 6,6 km/h (2 Bft) O-NO 71 1 min 0,000 mm 1,8 UV-I 474 W/m 1,9 C 13,9 C 11,3 km/h (2 Bft) 100,00 %
01.11.2015 11:37 14,0 C 46 % 1031,8 hPa 0,0 l/m 7,7 km/h (2 Bft) O 85 1 min 0,000 mm 1,8 UV-I 475 W/m 2,6 C 13,2 C 11,3 km/h (2 Bft) 100,00 %
01.11.2015 11:38 14,0 C 45 % 1031,8 hPa 0,0 l/m 11,6 km/h (2 Bft) O-NO 71 1 min 0,000 mm 1,8 UV-I 474 W/m 2,3 C 11,3 C 17,7 km/h (3 Bft) 100,00 %
01.11.2015 11:39 14,1 C 44 % 1031,8 hPa 0,0 l/m 11,2 km/h (2 Bft) O 94 1 min 0,000 mm 1,8 UV-I 475 W/m 2,0 C 11,6 C 16,1 km/h (3 Bft) 100,00 %
01.11.2015 11:40 14,0 C 43 % 1031,8 hPa 0,0 l/m 8,7 km/h (2 Bft) O-NO 68 1 min 0,000 mm 1,8 UV-I 475 W/m 1,6 C 12,7 C 12,9 km/h (3 Bft) 100,00 %
01.11.2015 11:41 14,0 C 45 % 1031,7 hPa 0,0 l/m 10,2 km/h (2 Bft) NO 40 1 min 0,000 mm 1,8 UV-I 475 W/m 2,3 C 11,9 C 17,7 km/h (3 Bft) 100,00 %
01.11.2015 11:42 14,0 C 44 % 1031,8 hPa 0,0 l/m 8,0 km/h (2 Bft) O-NO 73 1 min 0,000 mm 1,8 UV-I 475 W/m 1,9 C 13,1 C 14,5 km/h (3 Bft) 100,00 %
01.11.2015 11:43 14,0 C 43 % 1031,8 hPa 0,0 l/m 12,4 km/h (3 Bft) O 101 1 min 0,000 mm 1,8 UV-I 475 W/m 1,6 C 11,0 C 19,3 km/h (3 Bft) 95,83 %
01.11.2015 11:44 14,0 C 42 % 1031,8 hPa 0,0 l/m 8,1 km/h (2 Bft) O 98 1 min 0,000 mm 1,8 UV-I 476 W/m 1,3 C 13,0 C 12,9 km/h (3 Bft) 96,15 %
01.11.2015 11:45 14,0 C 43 % 1031,8 hPa 0,0 l/m 6,9 km/h (2 Bft) O 82 1 min 0,000 mm 1,8 UV-I 476 W/m 1,6 C 13,7 C 11,3 km/h (2 Bft) 100,00 %
01.11.2015 11:46 14,0 C 45 % 1031,8 hPa 0,0 l/m 6,2 km/h (2 Bft) O-SO 105 1 min 0,000 mm 1,8 UV-I 475 W/m 2,3 C 14,0 C 9,7 km/h (2 Bft) 100,00 %
01.11.2015 11:47 14,1 C 45 % 1031,8 hPa 0,0 l/m 8,7 km/h (2 Bft) O-NO 71 1 min 0,000 mm 1,8 UV-I 476 W/m 2,4 C 12,8 C 14,5 km/h (3 Bft) 100,00 %
01.11.2015 11:48 14,2 C 44 % 1031,7 hPa 0,0 l/m 7,1 km/h (2 Bft) O-NO 71 1 min 0,000 mm 1,8 UV-I 476 W/m 2,1 C 13,8 C 12,9 km/h (3 Bft) 100,00 %
01.11.2015 11:49 14,2 C 43 % 1031,8 hPa 0,0 l/m 10,5 km/h (2 Bft) O-NO 76 1 min 0,000 mm 1,8 UV-I 476 W/m 1,8 C 12,0 C 16,1 km/h (3 Bft) 95,83 %
01.11.2015 11:50 14,2 C 44 % 1031,8 hPa 0,0 l/m 10,4 km/h (2 Bft) O 91 1 min 0,000 mm 1,8 UV-I 476 W/m 2,1 C 12,0 C 14,5 km/h (3 Bft) 100,00 %
01.11.2015 11:51 14,2 C 45 % 1031,8 hPa 0,0 l/m 9,9 km/h (2 Bft) O-NO 78 1 min 0,000 mm 1,8 UV-I 476 W/m 2,4 C 12,3 C 14,5 km/h (3 Bft) 100,00 %
01.11.2015 11:52 14,2 C 44 % 1031,7 hPa 0,0 l/m 12,1 km/h (2 Bft) O-NO 74 1 min 0,000 mm 1,8 UV-I 476 W/m 2,1 C 11,3 C 17,7 km/h (3 Bft) 100,00 %
01.11.2015 11:53 14,2 C 44 % 1031,7 hPa 0,0 l/m 10,3 km/h (2 Bft) O-NO 71 1 min 0,000 mm 1,8 UV-I 476 W/m 2,1 C 12,1 C 14,5 km/h (3 Bft) 100,00 %
01.11.2015 11:54 14,2 C 44 % 1031,7 hPa 0,0 l/m 10,5 km/h (2 Bft) O 92 1 min 0,000 mm 1,8 UV-I 476 W/m 2,1 C 12,0 C 14,5 km/h (3 Bft) 100,00 %
01.11.2015 11:55 14,3 C 44 % 1031,7 hPa 0,0 l/m 11,6 km/h (2 Bft) O-NO 62 1 min 0,000 mm 1,8 UV-I 476 W/m 2,2 C 11,6 C 16,1 km/h (3 Bft) 100,00 %
01.11.2015 11:56 14,3 C 43 % 1031,7 hPa 0,0 l/m 10,7 km/h (2 Bft) O 90 1 min 0,000 mm 1,8 UV-I 476 W/m 1,9 C 12,0 C 16,1 km/h (3 Bft) 100,00 %
01.11.2015 11:57 14,3 C 44 % 1031,7 hPa 0,0 l/m 9,1 km/h (2 Bft) NO 51 1 min 0,000 mm 1,8 UV-I 476 W/m 2,2 C 12,8 C 12,9 km/h (3 Bft) 96,15 %
01.11.2015 11:58 14,3 C 44 % 1031,7 hPa 0,0 l/m 10,6 km/h (2 Bft) NO 41 1 min 0,000 mm 1,8 UV-I 476 W/m 2,2 C 12,1 C 16,1 km/h (3 Bft) 100,00 %
01.11.2015 11:59 14,3 C 46 % 1031,7 hPa 0,0 l/m 8,6 km/h (2 Bft) O 86 1 min 0,000 mm 1,8 UV-I 476 W/m 2,8 C 13,0 C 16,1 km/h (3 Bft) 100,00 %
01.11.2015 12:00 14,4 C 45 % 1031,7 hPa 0,0 l/m 10,3 km/h (2 Bft) O 89 1 min 0,000 mm 1,8 UV-I 476 W/m 2,6 C 12,3 C 16,1 km/h (3 Bft) 100,00 %
01.11.2015 12:01 14,4 C 42 % 1031,7 hPa 0,0 l/m 11,6 km/h (2 Bft) O-NO 70 1 min 0,305 mm 1,8 UV-I 476 W/m 1,7 C 11,7 C 17,7 km/h (3 Bft) 96,15 %
01.11.2015 12:02 14,3 C 42 % 1031,6 hPa 0,0 l/m 8,6 km/h (2 Bft) NO 45 1 min 0,000 mm 1,8 UV-I 476 W/m 1,6 C 13,0 C 14,5 km/h (3 Bft) 95,83 %
01.11.2015 12:03 14,3 C 43 % 1031,6 hPa 0,0 l/m 9,2 km/h (2 Bft) O 86 1 min 0,000 mm 1,8 UV-I 476 W/m 1,9 C 12,7 C 14,5 km/h (3 Bft) 100,00 %
01.11.2015 12:04 14,3 C 43 % 1031,6 hPa 0,0 l/m 11,0 km/h (2 Bft) O-NO 76 1 min 0,000 mm 1,8 UV-I 476 W/m 1,9 C 11,9 C 14,5 km/h (3 Bft) 100,00 %
01.11.2015 12:05 14,4 C 44 % 1031,6 hPa 0,0 l/m 7,7 km/h (2 Bft) NO 54 1 min 0,000 mm 1,8 UV-I 475 W/m 2,3 C 13,6 C 11,3 km/h (2 Bft) 96,55 %
01.11.2015 12:06 14,4 C 43 % 1031,6 hPa 0,0 l/m 8,7 km/h (2 Bft) O 89 1 min 0,000 mm 1,8 UV-I 475 W/m 2,0 C 13,1 C 14,5 km/h (3 Bft) 100,00 %
01.11.2015 12:07 14,4 C 43 % 1031,6 hPa 0,0 l/m 4,6 km/h (1 Bft) O 91 1 min 0,000 mm 1,8 UV-I 475 W/m 2,0 C 14,4 C 6,4 km/h (2 Bft) 100,00 %
01.11.2015 12:08 14,5 C 43 % 1031,6 hPa 0,0 l/m 7,6 km/h (2 Bft) O-NO 78 1 min 0,000 mm 1,8 UV-I 475 W/m 2,1 C 13,8 C 12,9 km/h (3 Bft) 100,00 %
01.11.2015 12:09 14,6 C 42 % 1031,6 hPa 0,0 l/m 8,1 km/h (2 Bft) NO 43 1 min 0,000 mm 1,8 UV-I 475 W/m 1,8 C 13,6 C 12,9 km/h (3 Bft) 96,15 %
01.11.2015 12:10 14,5 C 42 % 1031,6 hPa 0,0 l/m 11,9 km/h (2 Bft) O-NO 67 1 min 0,000 mm 1,8 UV-I 475 W/m 1,7 C 11,7 C 17,7 km/h (3 Bft) 100,00 %
01.11.2015 12:11 14,6 C 43 % 1031,5 hPa 0,0 l/m 11,9 km/h (2 Bft) O-NO 63 1 min 0,000 mm 1,8 UV-I 475 W/m 2,2 C 11,9 C 14,5 km/h (3 Bft) 100,00 %
01.11.2015 12:12 14,6 C 42 % 1031,6 hPa 0,0 l/m 11,4 km/h (2 Bft) O 92 1 min 0,000 mm 1,8 UV-I 475 W/m 1,8 C 12,1 C 16,1 km/h (3 Bft) 100,00 %
01.11.2015 12:13 14,6 C 43 % 1031,5 hPa 0,0 l/m 8,5 km/h (2 Bft) O 84 1 min 0,000 mm 1,8 UV-I 475 W/m 2,2 C 13,4 C 12,9 km/h (3 Bft) 100,00 %
01.11.2015 12:14 14,6 C 44 % 1031,6 hPa 0,0 l/m 6,2 km/h (2 Bft) N-NO 27 1 min 0,000 mm 1,8 UV-I 473 W/m 2,5 C 14,6 C 11,3 km/h (2 Bft) 100,00 %
01.11.2015 12:15 14,7 C 43 % 1031,5 hPa 0,0 l/m 6,1 km/h (2 Bft) O 99 1 min 0,000 mm 1,8 UV-I 473 W/m 2,3 C 14,7 C 11,3 km/h (2 Bft) 92,31 %
01.11.2015 12:16 14,7 C 43 % 1031,5 hPa 0,0 l/m 8,0 km/h (2 Bft) O 84 1 min 0,000 mm 1,8 UV-I 473 W/m 2,3 C 13,8 C 16,1 km/h (3 Bft) 100,00 %
01.11.2015 12:17 14,7 C 41 % 1031,6 hPa 0,0 l/m 12,2 km/h (2 Bft) O 98 1 min 0,000 mm 1,8 UV-I 473 W/m 1,6 C 11,8 C 17,7 km/h (3 Bft) 100,00 %
01.11.2015 12:18 14,7 C 41 % 1031,5 hPa 0,0 l/m 7,2 km/h (2 Bft) O 97 1 min 0,000 mm 1,8 UV-I 472 W/m 1,6 C 14,2 C 14,5 km/h (3 Bft) 100,00 %
01.11.2015 12:19 14,7 C 41 % 1031,6 hPa 0,0 l/m 9,8 km/h (2 Bft) O-NO 67 1 min 0,000 mm 1,8 UV-I 471 W/m 1,6 C 12,9 C 14,5 km/h (3 Bft) 100,00 %
01.11.2015 12:20 14,8 C 43 % 1031,6 hPa 0,0 l/m 7,1 km/h (2 Bft) O-NO 69 1 min 0,000 mm 1,8 UV-I 471 W/m 2,3 C 14,4 C 12,9 km/h (3 Bft) 92,31 %
01.11.2015 12:21 14,8 C 44 % 1031,5 hPa 0,0 l/m 6,4 km/h (2 Bft) O 90 1 min 0,000 mm 1,8 UV-I 471 W/m 2,7 C 14,8 C 12,9 km/h (3 Bft) 95,83 %
01.11.2015 12:22 14,8 C 40 % 1031,5 hPa 0,0 l/m 8,4 km/h (2 Bft) O-NO 58 1 min 0,000 mm 1,8 UV-I 470 W/m 1,3 C 13,7 C 14,5 km/h (3 Bft) 100,00 %
01.11.2015 12:23 14,8 C 41 % 1031,4 hPa 0,0 l/m 8,3 km/h (2 Bft) O-NO 77 1 min 0,000 mm 1,8 UV-I 469 W/m 1,7 C 13,7 C 16,1 km/h (3 Bft) 100,00 %
01.11.2015 12:24 14,8 C 40 % 1031,5 hPa 0,0 l/m 8,8 km/h (2 Bft) O 98 1 min 0,000 mm 1,8 UV-I 471 W/m 1,3 C 13,5 C 16,1 km/h (3 Bft) 100,00 %
01.11.2015 12:25 14,9 C 43 % 1031,5 hPa 0,0 l/m 4,8 km/h (1 Bft) O 86 1 min 0,000 mm 1,8 UV-I 469 W/m 2,4 C 14,9 C 6,4 km/h (2 Bft) 91,67 %
01.11.2015 12:26 14,9 C 43 % 1031,5 hPa 0,0 l/m 8,8 km/h (2 Bft) O 79 1 min 0,000 mm 1,8 UV-I 469 W/m 2,4 C 13,6 C 12,9 km/h (3 Bft) 100,00 %
01.11.2015 12:27 15,0 C 41 % 1031,5 hPa 0,0 l/m 9,6 km/h (2 Bft) O-SO 102 1 min 0,000 mm 1,8 UV-I 468 W/m 1,9 C 13,3 C 16,1 km/h (3 Bft) 100,00 %
01.11.2015 12:28 15,1 C 43 % 1031,5 hPa 0,0 l/m 8,8 km/h (2 Bft) O 101 1 min 0,000 mm 1,8 UV-I 468 W/m 2,6 C 13,8 C 12,9 km/h (3 Bft) 96,15 %
01.11.2015 12:29 15,1 C 42 % 1031,5 hPa 0,0 l/m 8,0 km/h (2 Bft) O-NO 69 1 min 0,000 mm 1,7 UV-I 467 W/m 2,3 C 14,2 C 12,9 km/h (3 Bft) 100,00 %
01.11.2015 12:30 15,2 C 45 % 1031,5 hPa 0,0 l/m 6,0 km/h (2 Bft) O 94 1 min 0,000 mm 1,7 UV-I 466 W/m 3,4 C 15,2 C 12,9 km/h (3 Bft) 92,31 %
01.11.2015 12:31 15,2 C 43 % 1031,5 hPa 0,0 l/m 8,9 km/h (2 Bft) O 87 1 min 0,000 mm 1,7 UV-I 466 W/m 2,7 C 13,9 C 12,9 km/h (3 Bft) 95,83 %
01.11.2015 12:32 15,2 C 44 % 1031,5 hPa 0,0 l/m 9,6 km/h (2 Bft) O-NO 77 1 min 0,000 mm 1,7 UV-I 466 W/m 3,0 C 13,5 C 14,5 km/h (3 Bft) 98,74 %
01.11.2015 12:33 15,2 C 41 % 1031,5 hPa 0,0 l/m 10,1 km/h (2 Bft) O-SO 109 1 min 0,000 mm 1,7 UV-I 465 W/m 2,0 C 13,3 C 12,9 km/h (3 Bft) 100,00 %
01.11.2015 12:34 15,3 C 40 % 1031,5 hPa 0,0 l/m 8,4 km/h (2 Bft) NO 51 1 min 0,000 mm 1,7 UV-I 464 W/m 1,8 C 14,2 C 12,9 km/h (3 Bft) 100,00 %
01.11.2015 12:35 15,2 C 40 % 1031,5 hPa 0,0 l/m 8,5 km/h (2 Bft) O 84 1 min 0,000 mm 1,7 UV-I 463 W/m 1,7 C 14,1 C 14,5 km/h (3 Bft) 100,00 %
01.11.2015 12:36 15,2 C 40 % 1031,4 hPa 0,0 l/m 6,9 km/h (2 Bft) O-NO 71 1 min 0,000 mm 1,7 UV-I 462 W/m 1,7 C 14,9 C 9,7 km/h (2 Bft) 100,00 %
01.11.2015 12:37 15,2 C 40 % 1031,4 hPa 0,0 l/m 7,0 km/h (2 Bft) O 95 1 min 0,000 mm 1,7 UV-I 462 W/m 1,7 C 14,9 C 12,9 km/h (3 Bft) 100,00 %
01.11.2015 12:38 15,2 C 41 % 1031,4 hPa 0,0 l/m 8,4 km/h (2 Bft) O 96 1 min 0,000 mm 1,7 UV-I 461 W/m 2,0 C 14,1 C 17,7 km/h (3 Bft) 100,00 %
01.11.2015 12:39 15,3 C 40 % 1031,5 hPa 0,0 l/m 7,0 km/h (2 Bft) O-SO 115 1 min 0,000 mm 1,7 UV-I 461 W/m 1,8 C 15,0 C 12,9 km/h (3 Bft) 100,00 %
01.11.2015 12:40 15,2 C 42 % 1031,4 hPa 0,0 l/m 8,0 km/h (2 Bft) O 80 1 min 0,000 mm 1,7 UV-I 461 W/m 2,4 C 14,3 C 14,5 km/h (3 Bft) 100,00 %
01.11.2015 12:41 15,2 C 40 % 1031,4 hPa 0,0 l/m 5,9 km/h (2 Bft) O 89 1 min 0,000 mm 1,7 UV-I 461 W/m 1,7 C 15,2 C 9,7 km/h (2 Bft) 100,00 %
01.11.2015 12:42 15,2 C 39 % 1031,4 hPa 0,0 l/m 9,4 km/h (2 Bft) O-NO 78 1 min 0,000 mm 1,7 UV-I 460 W/m 1,3 C 13,6 C 17,7 km/h (3 Bft) 100,00 %
01.11.2015 12:43 15,1 C 40 % 1031,4 hPa 0,0 l/m 8,4 km/h (2 Bft) O 86 1 min 0,000 mm 1,7 UV-I 459 W/m 1,6 C 14,0 C 17,7 km/h (3 Bft) 100,00 %
01.11.2015 12:44 15,1 C 40 % 1031,4 hPa 0,0 l/m 8,6 km/h (2 Bft) O-NO 74 1 min 0,000 mm 1,7 UV-I 459 W/m 1,6 C 13,9 C 14,5 km/h (3 Bft) 100,00 %
01.11.2015 12:45 15,1 C 40 % 1031,4 hPa 0,0 l/m 9,5 km/h (2 Bft) O 83 1 min 0,000 mm 1,7 UV-I 457 W/m 1,6 C 13,5 C 14,5 km/h (3 Bft) 100,00 %
01.11.2015 12:46 15,1 C 40 % 1031,4 hPa 0,0 l/m 8,6 km/h (2 Bft) O-NO 78 1 min 0,000 mm 1,7 UV-I 456 W/m 1,6 C 13,9 C 14,5 km/h (3 Bft) 100,00 %
01.11.2015 12:47 15,1 C 39 % 1031,4 hPa 0,0 l/m 9,9 km/h (2 Bft) O-NO 76 1 min 0,000 mm 1,7 UV-I 456 W/m 1,3 C 13,3 C 16,1 km/h (3 Bft) 100,00 %
01.11.2015 12:48 15,1 C 39 % 1031,4 hPa 0,0 l/m 9,8 km/h (2 Bft) O 99 1 min 0,000 mm 1,6 UV-I 455 W/m 1,3 C 13,3 C 14,5 km/h (3 Bft) 100,00 %
01.11.2015 12:49 15,1 C 40 % 1031,4 hPa 0,0 l/m 7,9 km/h (2 Bft) O-SO 117 1 min 0,000 mm 1,6 UV-I 454 W/m 1,6 C 14,3 C 12,9 km/h (3 Bft) 100,00 %
01.11.2015 12:50 15,1 C 42 % 1031,4 hPa 0,0 l/m 6,6 km/h (2 Bft) O-NO 74 1 min 0,000 mm 1,6 UV-I 452 W/m 2,3 C 15,0 C 11,3 km/h (2 Bft) 100,00 %
01.11.2015 12:51 15,2 C 42 % 1031,4 hPa 0,0 l/m 7,2 km/h (2 Bft) NO 42 1 min 0,000 mm 1,6 UV-I 452 W/m 2,4 C 14,8 C 11,3 km/h (2 Bft) 98,78 %
01.11.2015 12:52 15,1 C 42 % 1031,4 hPa 0,0 l/m 5,7 km/h (1 Bft) NO 54 1 min 0,000 mm 1,6 UV-I 452 W/m 2,3 C 15,1 C 9,7 km/h (2 Bft) 100,00 %
01.11.2015 12:53 15,1 C 41 % 1031,4 hPa 0,0 l/m 7,5 km/h (2 Bft) O-NO 71 1 min 0,000 mm 1,6 UV-I 451 W/m 2,0 C 14,5 C 12,9 km/h (3 Bft) 95,83 %
01.11.2015 12:54 15,1 C 40 % 1031,3 hPa 0,0 l/m 8,7 km/h (2 Bft) O 96 1 min 0,000 mm 1,6 UV-I 450 W/m 1,6 C 13,8 C 16,1 km/h (3 Bft) 100,00 %
01.11.2015 12:55 15,2 C 41 % 1031,3 hPa 0,0 l/m 10,7 km/h (2 Bft) NO 55 1 min 0,000 mm 1,6 UV-I 450 W/m 2,0 C 13,0 C 14,5 km/h (3 Bft) 100,00 %
01.11.2015 12:56 15,2 C 42 % 1031,3 hPa 0,0 l/m 8,3 km/h (2 Bft) O 94 1 min 0,000 mm 1,6 UV-I 448 W/m 2,4 C 14,2 C 16,1 km/h (3 Bft) 95,83 %
01.11.2015 12:57 15,2 C 40 % 1031,3 hPa 0,0 l/m 6,1 km/h (2 Bft) O 80 1 min 0,000 mm 1,6 UV-I 446 W/m 1,7 C 15,2 C 8,0 km/h (2 Bft) 100,00 %
01.11.2015 12:58 15,2 C 42 % 1031,3 hPa 0,0 l/m 10,1 km/h (2 Bft) O-NO 77 1 min 0,000 mm 1,6 UV-I 446 W/m 2,4 C 13,3 C 16,1 km/h (3 Bft) 96,15 %
01.11.2015 12:59 15,3 C 42 % 1031,3 hPa 0,0 l/m 7,9 km/h (2 Bft) O-NO 77 1 min 0,000 mm 1,6 UV-I 445 W/m 2,5 C 14,5 C 16,1 km/h (3 Bft) 100,00 %
01.11.2015 13:00 15,3 C 44 % 1031,3 hPa 0,0 l/m 4,7 km/h (1 Bft) O 91 1 min 0,000 mm 1,6 UV-I 444 W/m 3,1 C 15,3 C 8,0 km/h (2 Bft) 96,15 %
01.11.2015 13:01 15,3 C 42 % 1031,3 hPa 0,0 l/m 7,8 km/h (2 Bft) O-NO 57 1 min 0,304 mm 1,6 UV-I 443 W/m 2,5 C 14,5 C 12,9 km/h (3 Bft) 100,00 %
01.11.2015 13:02 15,4 C 42 % 1031,3 hPa 0,0 l/m 6,0 km/h (2 Bft) O 94 1 min 0,000 mm 1,5 UV-I 441 W/m 2,6 C 15,4 C 11,3 km/h (2 Bft) 100,00 %
01.11.2015 13:03 15,4 C 41 % 1031,3 hPa 0,0 l/m 11,3 km/h (2 Bft) O 90 1 min 0,000 mm 1,5 UV-I 442 W/m 2,2 C 13,0 C 17,7 km/h (3 Bft) 100,00 %
01.11.2015 13:04 15,4 C 41 % 1031,3 hPa 0,0 l/m 11,5 km/h (2 Bft) O 90 1 min 0,000 mm 1,5 UV-I 440 W/m 2,2 C 12,9 C 16,1 km/h (3 Bft) 100,00 %
01.11.2015 13:05 15,4 C 42 % 1031,3 hPa 0,0 l/m 7,9 km/h (2 Bft) O 88 1 min 0,000 mm 1,5 UV-I 439 W/m 2,6 C 14,6 C 12,9 km/h (3 Bft) 100,00 %
01.11.2015 13:06 15,5 C 42 % 1031,3 hPa 0,0 l/m 8,9 km/h (2 Bft) NO 55 1 min 0,000 mm 1,5 UV-I 438 W/m 2,6 C 14,2 C 12,9 km/h (3 Bft) 100,00 %
01.11.2015 13:07 15,5 C 40 % 1031,3 hPa 0,0 l/m 8,4 km/h (2 Bft) O 99 1 min 0,000 mm 1,5 UV-I 438 W/m 2,0 C 14,4 C 12,9 km/h (3 Bft) 100,00 %
01.11.2015 13:08 15,5 C 40 % 1031,2 hPa 0,0 l/m 11,7 km/h (2 Bft) O 95 1 min 0,000 mm 1,5 UV-I 436 W/m 2,0 C 13,0 C 16,1 km/h (3 Bft) 100,00 %
01.11.2015 13:09 15,5 C 40 % 1031,2 hPa 0,0 l/m 12,1 km/h (2 Bft) O 85 1 min 0,000 mm 1,5 UV-I 435 W/m 2,0 C 12,8 C 17,7 km/h (3 Bft) 100,00 %
01.11.2015 13:10 15,5 C 40 % 1031,2 hPa 0,0 l/m 13,0 km/h (3 Bft) O-NO 68 1 min 0,000 mm 1,5 UV-I 434 W/m 2,0 C 12,5 C 17,7 km/h (3 Bft) 100,00 %
01.11.2015 13:11 15,5 C 40 % 1031,2 hPa 0,0 l/m 8,6 km/h (2 Bft) O 88 1 min 0,000 mm 1,5 UV-I 433 W/m 2,0 C 14,3 C 16,1 km/h (3 Bft) 100,00 %
01.11.2015 13:12 15,5 C 40 % 1031,2 hPa 0,0 l/m 11,5 km/h (2 Bft) N 10 1 min 0,000 mm 1,5 UV-I 431 W/m 2,0 C 13,0 C 16,1 km/h (3 Bft) 100,00 %
01.11.2015 13:13 15,4 C 40 % 1031,2 hPa 0,0 l/m 8,7 km/h (2 Bft) O-NO 69 1 min 0,000 mm 1,5 UV-I 431 W/m 1,9 C 14,2 C 12,9 km/h (3 Bft) 100,00 %
01.11.2015 13:15 15,5 C 39 % 1031,2 hPa 0,0 l/m 9,7 km/h (2 Bft) O 90 2 min 0,000 mm 1,5 UV-I 430 W/m 1,6 C 13,8 C 17,7 km/h (3 Bft) 100,00 %
01.11.2015 13:20 15,6 C 39 % 1031,2 hPa 0,0 l/m 9,7 km/h (2 Bft) O 90 5 min 0,000 mm 1,4 UV-I 424 W/m 1,7 C 13,9 C 19,3 km/h (3 Bft) 100,00 %
01.11.2015 13:25 15,6 C 38 % 1031,1 hPa 0,0 l/m 12,9 km/h (3 Bft) O 90 5 min 0,000 mm 1,4 UV-I 418 W/m 1,3 C 12,6 C 20,9 km/h (4 Bft) 100,00 %
01.11.2015 13:30 15,7 C 39 % 1031,0 hPa 0,0 l/m 11,3 km/h (2 Bft) O 90 5 min 0,000 mm 1,3 UV-I 411 W/m 1,8 C 13,3 C 17,7 km/h (3 Bft) 100,00 %
01.11.2015 13:35 15,7 C 39 % 1031,0 hPa 0,0 l/m 6,4 km/h (2 Bft) O 90 5 min 0,000 mm 1,3 UV-I 404 W/m 1,8 C 15,7 C 16,1 km/h (3 Bft) 100,00 %
01.11.2015 13:36 15,7 C 38 % 1031,0 hPa 0,0 l/m 8,9 km/h (2 Bft) O 87 1 min 0,000 mm 1,4 UV-I 413 W/m 1,4 C 14,4 C 16,1 km/h (3 Bft) 99,43 %
01.11.2015 13:37 15,7 C 40 % 1031,0 hPa 0,0 l/m 8,5 km/h (2 Bft) NO 54 1 min 0,000 mm 1,3 UV-I 399 W/m 2,1 C 14,6 C 14,5 km/h (3 Bft) 100,00 %
01.11.2015 13:40 15,7 C 40 % 1030,9 hPa 0,0 l/m 8,0 km/h (2 Bft) O 90 3 min 0,000 mm 1,2 UV-I 397 W/m 2,1 C 14,8 C 16,1 km/h (3 Bft) 100,00 %
01.11.2015 13:43 15,8 C 39 % 1030,9 hPa 0,0 l/m 13,0 km/h (3 Bft) O 82 3 min 0,000 mm 1,3 UV-I 398 W/m 1,9 C 12,8 C 16,1 km/h (3 Bft) 99,32 %
01.11.2015 13:44 15,8 C 40 % 1030,9 hPa 0,0 l/m 10,2 km/h (2 Bft) O-NO 74 1 min 0,000 mm 1,2 UV-I 389 W/m 2,2 C 13,9 C 12,9 km/h (3 Bft) 100,00 %
01.11.2015 13:45 15,8 C 40 % 1030,9 hPa 0,0 l/m 9,9 km/h (2 Bft) O 92 1 min 0,000 mm 1,2 UV-I 388 W/m 2,2 C 14,0 C 17,7 km/h (3 Bft) 100,00 %
01.11.2015 13:46 15,7 C 40 % 1030,8 hPa 0,0 l/m 8,6 km/h (2 Bft) O-NO 73 1 min 0,000 mm 1,2 UV-I 386 W/m 2,1 C 14,5 C 12,9 km/h (3 Bft) 100,00 %
01.11.2015 13:47 15,7 C 38 % 1030,8 hPa 0,0 l/m 13,1 km/h (3 Bft) O-NO 67 1 min 0,000 mm 1,2 UV-I 383 W/m 1,4 C 12,7 C 17,7 km/h (3 Bft) 100,00 %
01.11.2015 13:48 15,7 C 38 % 1030,8 hPa 0,0 l/m 11,1 km/h (2 Bft) O 84 1 min 0,000 mm 1,1 UV-I 383 W/m 1,4 C 13,4 C 16,1 km/h (3 Bft) 100,00 %
01.11.2015 13:49 15,7 C 38 % 1030,9 hPa 0,0 l/m 13,5 km/h (3 Bft) O-NO 75 1 min 0,000 mm 1,1 UV-I 381 W/m 1,4 C 12,5 C 19,3 km/h (3 Bft) 100,00 %
01.11.2015 13:50 15,7 C 39 % 1030,8 hPa 0,0 l/m 10,4 km/h (2 Bft) O 81 1 min 0,000 mm 1,1 UV-I 379 W/m 1,8 C 13,7 C 17,7 km/h (3 Bft) 92,31 %
01.11.2015 13:51 15,7 C 39 % 1030,8 hPa 0,0 l/m 10,0 km/h (2 Bft) NO 40 1 min 0,000 mm 1,1 UV-I 377 W/m 1,8 C 13,9 C 14,5 km/h (3 Bft) 100,00 %
01.11.2015 13:52 15,7 C 40 % 1030,8 hPa 0,0 l/m 10,8 km/h (2 Bft) O-NO 67 1 min 0,000 mm 1,1 UV-I 375 W/m 2,1 C 13,6 C 16,1 km/h (3 Bft) 100,00 %
01.11.2015 13:53 15,7 C 40 % 1030,8 hPa 0,0 l/m 11,5 km/h (2 Bft) O 95 1 min 0,000 mm 1,1 UV-I 374 W/m 2,1 C 13,3 C 16,1 km/h (3 Bft) 100,00 %
01.11.2015 13:54 15,7 C 41 % 1030,8 hPa 0,0 l/m 8,1 km/h (2 Bft) O 101 1 min 0,000 mm 1,1 UV-I 373 W/m 2,5 C 14,8 C 12,9 km/h (3 Bft) 100,00 %
01.11.2015 13:55 15,7 C 40 % 1030,8 hPa 0,0 l/m 12,7 km/h (3 Bft) O-NO 61 1 min 0,000 mm 1,1 UV-I 370 W/m 2,1 C 12,8 C 17,7 km/h (3 Bft) 100,00 %
01.11.2015 13:56 15,7 C 39 % 1030,8 hPa 0,0 l/m 12,3 km/h (3 Bft) O-NO 75 1 min 0,000 mm 1,1 UV-I 369 W/m 1,8 C 13,0 C 17,7 km/h (3 Bft) 100,00 %
01.11.2015 13:57 15,7 C 40 % 1030,8 hPa 0,0 l/m 11,7 km/h (2 Bft) NO 55 1 min 0,000 mm 1,1 UV-I 366 W/m 2,1 C 13,2 C 16,1 km/h (3 Bft) 100,00 %
01.11.2015 13:58 15,7 C 40 % 1030,8 hPa 0,0 l/m 9,3 km/h (2 Bft) O 90 1 min 0,000 mm 1,0 UV-I 365 W/m 2,1 C 14,2 C 14,5 km/h (3 Bft) 96,55 %
01.11.2015 13:59 15,7 C 41 % 1030,8 hPa 0,0 l/m 8,8 km/h (2 Bft) O 100 1 min 0,000 mm 1,0 UV-I 364 W/m 2,5 C 14,4 C 14,5 km/h (3 Bft) 100,00 %
01.11.2015 14:00 15,7 C 40 % 1030,8 hPa 0,0 l/m 10,2 km/h (2 Bft) O-SO 103 1 min 0,000 mm 1,0 UV-I 362 W/m 2,1 C 13,8 C 14,5 km/h (3 Bft) 100,00 %
01.11.2015 14:01 15,7 C 40 % 1030,7 hPa 0,0 l/m 12,7 km/h (3 Bft) O 82 1 min 0,305 mm 1,0 UV-I 360 W/m 2,1 C 12,8 C 17,7 km/h (3 Bft) 100,00 %
01.11.2015 14:02 15,7 C 40 % 1030,8 hPa 0,0 l/m 12,2 km/h (2 Bft) O-NO 77 1 min 0,000 mm 1,0 UV-I 359 W/m 2,1 C 13,0 C 16,1 km/h (3 Bft) 100,00 %
01.11.2015 14:03 15,7 C 41 % 1030,7 hPa 0,0 l/m 8,5 km/h (2 Bft) O-SO 109 1 min 0,000 mm 1,0 UV-I 358 W/m 2,5 C 14,6 C 16,1 km/h (3 Bft) 100,00 %
01.11.2015 14:04 15,7 C 41 % 1030,8 hPa 0,0 l/m 7,7 km/h (2 Bft) O-NO 69 1 min 0,000 mm 1,0 UV-I 356 W/m 2,5 C 15,0 C 14,5 km/h (3 Bft) 100,00 %
01.11.2015 14:05 15,7 C 40 % 1030,7 hPa 0,0 l/m 10,1 km/h (2 Bft) O-NO 75 1 min 0,000 mm 1,0 UV-I 353 W/m 2,1 C 13,8 C 16,1 km/h (3 Bft) 100,00 %
01.11.2015 14:06 15,7 C 40 % 1030,7 hPa 0,0 l/m 11,5 km/h (2 Bft) O-NO 74 1 min 0,000 mm 1,0 UV-I 352 W/m 2,1 C 13,3 C 14,5 km/h (3 Bft) 95,83 %
01.11.2015 14:07 15,7 C 41 % 1030,6 hPa 0,0 l/m 13,0 km/h (3 Bft) O-NO 78 1 min 0,000 mm 1,0 UV-I 349 W/m 2,5 C 12,7 C 19,3 km/h (3 Bft) 100,00 %
01.11.2015 14:08 15,7 C 39 % 1030,7 hPa 0,0 l/m 11,6 km/h (2 Bft) O-NO 76 1 min 0,000 mm 0,9 UV-I 347 W/m 1,8 C 13,2 C 20,9 km/h (4 Bft) 95,83 %
01.11.2015 14:09 15,6 C 40 % 1030,7 hPa 0,0 l/m 8,9 km/h (2 Bft) O 82 1 min 0,000 mm 0,9 UV-I 345 W/m 2,1 C 14,3 C 14,5 km/h (3 Bft) 100,00 %
01.11.2015 14:10 15,6 C 40 % 1030,7 hPa 0,0 l/m 12,7 km/h (3 Bft) O-NO 77 1 min 0,000 mm 0,9 UV-I 343 W/m 2,1 C 12,7 C 19,3 km/h (3 Bft) 100,00 %
01.11.2015 14:11 15,6 C 40 % 1030,7 hPa 0,0 l/m 13,9 km/h (3 Bft) O-NO 69 1 min 0,000 mm 0,9 UV-I 350 W/m 2,1 C 12,3 C 17,7 km/h (3 Bft) 100,00 %
01.11.2015 14:12 15,6 C 40 % 1030,7 hPa 0,0 l/m 10,3 km/h (2 Bft) O-NO 65 1 min 0,000 mm 0,9 UV-I 341 W/m 2,1 C 13,7 C 17,7 km/h (3 Bft) 100,00 %
01.11.2015 14:13 15,6 C 40 % 1030,7 hPa 0,0 l/m 13,5 km/h (3 Bft) O 84 1 min 0,000 mm 0,9 UV-I 339 W/m 2,1 C 12,4 C 17,7 km/h (3 Bft) 96,15 %
01.11.2015 14:14 15,6 C 39 % 1030,7 hPa 0,0 l/m 13,7 km/h (3 Bft) O-NO 62 1 min 0,000 mm 0,9 UV-I 337 W/m 1,7 C 12,3 C 22,5 km/h (4 Bft) 95,83 %
01.11.2015 14:15 15,6 C 40 % 1030,7 hPa 0,0 l/m 10,3 km/h (2 Bft) O-SO 102 1 min 0,000 mm 0,9 UV-I 335 W/m 2,1 C 13,7 C 16,1 km/h (3 Bft) 100,00 %
01.11.2015 14:16 15,6 C 40 % 1030,7 hPa 0,0 l/m 12,1 km/h (2 Bft) O 84 1 min 0,000 mm 0,9 UV-I 332 W/m 2,1 C 12,9 C 16,1 km/h (3 Bft) 100,00 %
01.11.2015 14:17 15,5 C 40 % 1030,7 hPa 0,0 l/m 14,2 km/h (3 Bft) O 86 1 min 0,000 mm 0,8 UV-I 335 W/m 2,0 C 12,1 C 19,3 km/h (3 Bft) 100,00 %
01.11.2015 14:18 15,5 C 40 % 1030,7 hPa 0,0 l/m 14,6 km/h (3 Bft) O 100 1 min 0,000 mm 0,8 UV-I 330 W/m 2,0 C 11,9 C 19,3 km/h (3 Bft) 96,43 %
01.11.2015 14:19 15,5 C 40 % 1030,7 hPa 0,0 l/m 14,9 km/h (3 Bft) O 93 1 min 0,000 mm 0,8 UV-I 330 W/m 2,0 C 11,8 C 24,1 km/h (4 Bft) 100,00 %
01.11.2015 14:20 15,5 C 40 % 1030,7 hPa 0,0 l/m 13,9 km/h (3 Bft) NO 51 1 min 0,000 mm 0,8 UV-I 324 W/m 2,0 C 12,2 C 17,7 km/h (3 Bft) 100,00 %
01.11.2015 14:21 15,5 C 40 % 1030,7 hPa 0,0 l/m 13,3 km/h (3 Bft) O 86 1 min 0,000 mm 0,8 UV-I 322 W/m 2,0 C 12,4 C 20,9 km/h (4 Bft) 96,15 %
01.11.2015 14:22 15,5 C 39 % 1030,7 hPa 0,0 l/m 17,4 km/h (3 Bft) O 89 1 min 0,000 mm 0,8 UV-I 320 W/m 1,6 C 11,1 C 22,5 km/h (4 Bft) 100,00 %
01.11.2015 14:23 15,5 C 39 % 1030,6 hPa 0,0 l/m 14,1 km/h (3 Bft) O 85 1 min 0,000 mm 0,8 UV-I 318 W/m 1,6 C 12,1 C 17,7 km/h (3 Bft) 100,00 %
01.11.2015 14:24 15,5 C 40 % 1030,7 hPa 0,0 l/m 11,9 km/h (2 Bft) O-NO 74 1 min 0,000 mm 0,8 UV-I 316 W/m 2,0 C 12,9 C 17,7 km/h (3 Bft) 100,00 %
01.11.2015 14:25 15,5 C 40 % 1030,7 hPa 0,0 l/m 12,0 km/h (2 Bft) O 91 1 min 0,000 mm 0,8 UV-I 314 W/m 2,0 C 12,8 C 19,3 km/h (3 Bft) 100,00 %
01.11.2015 14:26 15,5 C 40 % 1030,7 hPa 0,0 l/m 13,1 km/h (3 Bft) O-NO 63 1 min 0,000 mm 0,8 UV-I 313 W/m 2,0 C 12,4 C 17,7 km/h (3 Bft) 96,15 %
01.11.2015 14:27 15,5 C 40 % 1030,7 hPa 0,0 l/m 11,7 km/h (2 Bft) O 95 1 min 0,000 mm 0,7 UV-I 310 W/m 2,0 C 13,0 C 17,7 km/h (3 Bft) 100,00 %
01.11.2015 14:28 15,5 C 39 % 1030,7 hPa 0,0 l/m 9,7 km/h (2 Bft) O 84 1 min 0,000 mm 0,7 UV-I 308 W/m 1,6 C 13,8 C 16,1 km/h (3 Bft) 96,15 %
01.11.2015 14:29 15,5 C 39 % 1030,7 hPa 0,0 l/m 12,4 km/h (3 Bft) O-NO 65 1 min 0,000 mm 0,7 UV-I 306 W/m 1,6 C 12,7 C 17,7 km/h (3 Bft) 100,00 %
01.11.2015 14:30 15,5 C 40 % 1030,7 hPa 0,0 l/m 10,4 km/h (2 Bft) O 82 1 min 0,000 mm 0,7 UV-I 303 W/m 2,0 C 13,5 C 17,7 km/h (3 Bft) 100,00 %
01.11.2015 14:31 15,5 C 41 % 1030,8 hPa 0,0 l/m 11,4 km/h (2 Bft) O 90 1 min 0,000 mm 0,7 UV-I 302 W/m 2,3 C 13,1 C 14,5 km/h (3 Bft) 100,00 %
01.11.2015 14:32 15,4 C 42 % 1030,8 hPa 0,0 l/m 7,8 km/h (2 Bft) O-SO 102 1 min 0,000 mm 0,7 UV-I 300 W/m 2,6 C 14,6 C 11,3 km/h (2 Bft) 100,00 %
01.11.2015 14:33 15,4 C 41 % 1030,8 hPa 0,0 l/m 11,8 km/h (2 Bft) O-NO 69 1 min 0,000 mm 0,7 UV-I 298 W/m 2,2 C 12,8 C 19,3 km/h (3 Bft) 100,00 %
01.11.2015 14:34 15,4 C 39 % 1030,7 hPa 0,0 l/m 11,5 km/h (2 Bft) O 84 1 min 0,000 mm 0,7 UV-I 296 W/m 1,5 C 12,9 C 17,7 km/h (3 Bft) 96,55 %
01.11.2015 14:35 15,4 C 40 % 1030,7 hPa 0,0 l/m 11,4 km/h (2 Bft) O 84 1 min 0,000 mm 0,7 UV-I 294 W/m 1,9 C 13,0 C 17,7 km/h (3 Bft) 100,00 %
01.11.2015 14:36 15,4 C 40 % 1030,7 hPa 0,0 l/m 12,2 km/h (2 Bft) NO 47 1 min 0,000 mm 0,7 UV-I 290 W/m 1,9 C 12,7 C 19,3 km/h (3 Bft) 100,00 %
01.11.2015 14:37 15,4 C 40 % 1030,7 hPa 0,0 l/m 13,1 km/h (3 Bft) N-NO 29 1 min 0,000 mm 0,7 UV-I 288 W/m 1,9 C 12,3 C 19,3 km/h (3 Bft) 100,00 %
01.11.2015 14:38 15,4 C 40 % 1030,7 hPa 0,0 l/m 16,5 km/h (3 Bft) NO 54 1 min 0,000 mm 0,6 UV-I 286 W/m 1,9 C 11,2 C 22,5 km/h (4 Bft) 100,00 %
01.11.2015 14:39 15,4 C 39 % 1030,7 hPa 0,0 l/m 13,9 km/h (3 Bft) O 96 1 min 0,000 mm 0,6 UV-I 284 W/m 1,5 C 12,0 C 17,7 km/h (3 Bft) 100,00 %
01.11.2015 14:40 15,4 C 40 % 1030,7 hPa 0,0 l/m 14,6 km/h (3 Bft) O-NO 74 1 min 0,000 mm 0,6 UV-I 281 W/m 1,9 C 11,8 C 19,3 km/h (3 Bft) 96,15 %
01.11.2015 14:41 15,4 C 40 % 1030,7 hPa 0,0 l/m 12,3 km/h (3 Bft) O-NO 66 1 min 0,000 mm 0,6 UV-I 279 W/m 1,9 C 12,6 C 20,9 km/h (4 Bft) 100,00 %
01.11.2015 14:42 15,4 C 40 % 1030,7 hPa 0,0 l/m 14,1 km/h (3 Bft) O 97 1 min 0,000 mm 0,6 UV-I 277 W/m 1,9 C 12,0 C 17,7 km/h (3 Bft) 100,00 %
01.11.2015 14:43 15,3 C 41 % 1030,7 hPa 0,0 l/m 15,4 km/h (3 Bft) O-NO 63 1 min 0,000 mm 0,6 UV-I 273 W/m 2,1 C 11,4 C 22,5 km/h (4 Bft) 100,00 %
01.11.2015 14:44 15,4 C 40 % 1030,7 hPa 0,0 l/m 11,3 km/h (2 Bft) O-NO 76 1 min 0,000 mm 0,6 UV-I 271 W/m 1,9 C 13,0 C 20,9 km/h (4 Bft) 100,00 %
01.11.2015 14:45 15,4 C 40 % 1030,7 hPa 0,0 l/m 15,9 km/h (3 Bft) O 80 1 min 0,000 mm 0,6 UV-I 268 W/m 1,9 C 11,4 C 19,3 km/h (3 Bft) 100,00 %
01.11.2015 14:46 15,4 C 41 % 1030,7 hPa 0,0 l/m 10,8 km/h (2 Bft) O-NO 71 1 min 0,000 mm 0,6 UV-I 265 W/m 2,2 C 13,2 C 16,1 km/h (3 Bft) 100,00 %
01.11.2015 14:47 15,4 C 40 % 1030,7 hPa 0,0 l/m 11,8 km/h (2 Bft) O 82 1 min 0,000 mm 0,6 UV-I 263 W/m 1,9 C 12,8 C 17,7 km/h (3 Bft) 100,00 %
01.11.2015 14:48 15,4 C 41 % 1030,7 hPa 0,0 l/m 10,5 km/h (2 Bft) O 79 1 min 0,000 mm 0,6 UV-I 260 W/m 2,2 C 13,3 C 14,5 km/h (3 Bft) 100,00 %
01.11.2015 14:49 15,4 C 40 % 1030,7 hPa 0,0 l/m 13,4 km/h (3 Bft) NO 52 1 min 0,000 mm 0,5 UV-I 258 W/m 1,9 C 12,2 C 17,7 km/h (3 Bft) 100,00 %
01.11.2015 14:50 15,4 C 41 % 1030,7 hPa 0,0 l/m 12,2 km/h (2 Bft) O-SO 105 1 min 0,000 mm 0,5 UV-I 256 W/m 2,2 C 12,7 C 16,1 km/h (3 Bft) 100,00 %
01.11.2015 14:51 15,4 C 41 % 1030,7 hPa 0,0 l/m 9,7 km/h (2 Bft) O-SO 107 1 min 0,000 mm 0,5 UV-I 252 W/m 2,2 C 13,7 C 14,5 km/h (3 Bft) 96,55 %
01.11.2015 14:52 15,4 C 40 % 1030,7 hPa 0,0 l/m 11,6 km/h (2 Bft) O-NO 74 1 min 0,000 mm 0,5 UV-I 250 W/m 1,9 C 12,9 C 19,3 km/h (3 Bft) 100,00 %
01.11.2015 14:53 15,4 C 41 % 1030,7 hPa 0,0 l/m 11,9 km/h (2 Bft) O-NO 70 1 min 0,000 mm 0,5 UV-I 247 W/m 2,2 C 12,8 C 17,7 km/h (3 Bft) 100,00 %
01.11.2015 14:54 15,4 C 40 % 1030,7 hPa 0,0 l/m 10,3 km/h (2 Bft) O-NO 58 1 min 0,000 mm 0,5 UV-I 244 W/m 1,9 C 13,4 C 16,1 km/h (3 Bft) 100,00 %
01.11.2015 14:55 15,4 C 41 % 1030,7 hPa 0,0 l/m 9,4 km/h (2 Bft) O 79 1 min 0,000 mm 0,5 UV-I 242 W/m 2,2 C 13,8 C 14,5 km/h (3 Bft) 95,65 %
01.11.2015 14:56 15,3 C 41 % 1030,7 hPa 0,0 l/m 7,1 km/h (2 Bft) NO 36 1 min 0,000 mm 0,5 UV-I 238 W/m 2,1 C 14,9 C 12,9 km/h (3 Bft) 100,00 %
01.11.2015 14:57 15,3 C 41 % 1030,6 hPa 0,0 l/m 10,9 km/h (2 Bft) O 82 1 min 0,000 mm 0,5 UV-I 236 W/m 2,1 C 13,1 C 17,7 km/h (3 Bft) 100,00 %
01.11.2015 14:58 15,3 C 40 % 1030,7 hPa 0,0 l/m 10,9 km/h (2 Bft) O 88 1 min 0,000 mm 0,5 UV-I 234 W/m 1,8 C 13,1 C 19,3 km/h (3 Bft) 100,00 %
01.11.2015 14:59 15,3 C 41 % 1030,7 hPa 0,0 l/m 10,6 km/h (2 Bft) O 85 1 min 0,000 mm 0,5 UV-I 230 W/m 2,1 C 13,2 C 16,1 km/h (3 Bft) 95,83 %
01.11.2015 15:00 15,3 C 41 % 1030,7 hPa 0,0 l/m 9,1 km/h (2 Bft) O 84 1 min 0,000 mm 0,4 UV-I 228 W/m 2,1 C 13,9 C 14,5 km/h (3 Bft) 100,00 %
01.11.2015 15:02 15,3 C 41 % 1030,7 hPa 0,0 l/m 10,8 km/h (2 Bft) O 96 2 min 0,254 mm 0,0 UV-I 223 W/m 2,1 C 13,1 C 16,1 km/h (3 Bft) 100,00 %
01.11.2015 15:03 15,3 C 42 % 1030,7 hPa 0,0 l/m 9,1 km/h (2 Bft) O-NO 77 1 min 0,000 mm 0,0 UV-I 219 W/m 2,5 C 13,9 C 14,5 km/h (3 Bft) 100,00 %
01.11.2015 15:04 15,3 C 41 % 1030,7 hPa 0,0 l/m 9,5 km/h (2 Bft) O 92 1 min 0,000 mm 0,0 UV-I 216 W/m 2,1 C 13,7 C 12,9 km/h (3 Bft) 100,00 %
01.11.2015 15:05 15,3 C 41 % 1030,7 hPa 0,0 l/m 7,6 km/h (2 Bft) O 85 1 min 0,000 mm 0,0 UV-I 212 W/m 2,1 C 14,6 C 11,3 km/h (2 Bft) 95,83 %
01.11.2015 15:06 15,3 C 42 % 1030,7 hPa 0,0 l/m 7,2 km/h (2 Bft) O-NO 61 1 min 0,000 mm 0,0 UV-I 209 W/m 2,5 C 14,9 C 12,9 km/h (3 Bft) 96,15 %
01.11.2015 15:07 15,3 C 41 % 1030,7 hPa 0,0 l/m 5,0 km/h (1 Bft) O-SO 111 1 min 0,000 mm 0,0 UV-I 206 W/m 2,1 C 15,3 C 12,9 km/h (3 Bft) 100,00 %
01.11.2015 15:08 15,3 C 42 % 1030,7 hPa 0,0 l/m 6,6 km/h (2 Bft) O-NO 74 1 min 0,000 mm 0,0 UV-I 203 W/m 2,5 C 15,2 C 9,7 km/h (2 Bft) 100,00 %
01.11.2015 15:09 15,3 C 42 % 1030,7 hPa 0,0 l/m 7,2 km/h (2 Bft) NO 43 1 min 0,000 mm 0,0 UV-I 200 W/m 2,5 C 14,9 C 17,7 km/h (3 Bft) 100,00 %
01.11.2015 15:10 15,2 C 42 % 1030,6 hPa 0,0 l/m 8,0 km/h (2 Bft) O 88 1 min 0,000 mm 0,0 UV-I 199 W/m 2,4 C 14,3 C 11,3 km/h (2 Bft) 100,00 %
01.11.2015 15:11 15,2 C 42 % 1030,7 hPa 0,0 l/m 5,3 km/h (1 Bft) O 96 1 min 0,000 mm 0,0 UV-I 194 W/m 2,4 C 15,2 C 8,0 km/h (2 Bft) 100,00 %
01.11.2015 15:12 15,2 C 42 % 1030,6 hPa 0,0 l/m 7,1 km/h (2 Bft) O 95 1 min 0,000 mm 0,0 UV-I 193 W/m 2,4 C 14,8 C 12,9 km/h (3 Bft) 100,00 %
01.11.2015 15:13 15,2 C 41 % 1030,7 hPa 0,0 l/m 6,0 km/h (2 Bft) O-NO 73 1 min 0,000 mm 0,0 UV-I 190 W/m 2,0 C 15,2 C 12,9 km/h (3 Bft) 100,00 %
01.11.2015 15:14 15,2 C 41 % 1030,7 hPa 0,0 l/m 5,6 km/h (1 Bft) O-NO 74 1 min 0,000 mm 0,0 UV-I 186 W/m 2,0 C 15,2 C 8,0 km/h (2 Bft) 100,00 %
01.11.2015 15:15 15,2 C 42 % 1030,7 hPa 0,0 l/m 4,1 km/h (1 Bft) N-NO 19 1 min 0,000 mm 0,0 UV-I 183 W/m 2,4 C 15,2 C 6,4 km/h (2 Bft) 100,00 %
01.11.2015 15:16 15,1 C 42 % 1030,7 hPa 0,0 l/m 5,3 km/h (1 Bft) O 91 1 min 0,000 mm 0,0 UV-I 181 W/m 2,3 C 15,1 C 11,3 km/h (2 Bft) 100,00 %
01.11.2015 15:17 15,2 C 42 % 1030,7 hPa 0,0 l/m 4,4 km/h (1 Bft) O-NO 76 1 min 0,000 mm 0,0 UV-I 177 W/m 2,4 C 15,2 C 12,9 km/h (3 Bft) 100,00 %
01.11.2015 15:18 15,1 C 42 % 1030,7 hPa 0,0 l/m 2,5 km/h (1 Bft) NO 50 1 min 0,000 mm 0,0 UV-I 175 W/m 2,3 C 15,1 C 4,8 km/h (1 Bft) 91,67 %
01.11.2015 15:19 15,1 C 44 % 1030,7 hPa 0,0 l/m 4,3 km/h (1 Bft) O 99 1 min 0,000 mm 0,0 UV-I 171 W/m 2,9 C 15,1 C 6,4 km/h (2 Bft) 100,00 %
01.11.2015 15:20 15,0 C 43 % 1030,7 hPa 0,0 l/m 3,1 km/h (1 Bft) O 84 1 min 0,000 mm 0,0 UV-I 168 W/m 2,5 C 15,0 C 4,8 km/h (1 Bft) 95,83 %
01.11.2015 15:21 15,0 C 44 % 1030,7 hPa 0,0 l/m 4,3 km/h (1 Bft) N-NO 29 1 min 0,000 mm 0,0 UV-I 165 W/m 2,9 C 15,0 C 6,4 km/h (2 Bft) 100,00 %
01.11.2015 15:22 14,9 C 44 % 1030,7 hPa 0,0 l/m 2,9 km/h (1 Bft) N-NO 32 1 min 0,000 mm 0,0 UV-I 162 W/m 2,8 C 14,9 C 4,8 km/h (1 Bft) 100,00 %
01.11.2015 15:23 14,9 C 45 % 1030,7 hPa 0,0 l/m 3,1 km/h (1 Bft) N-NO 28 1 min 0,000 mm 0,0 UV-I 159 W/m 3,1 C 14,9 C 4,8 km/h (1 Bft) 100,00 %
01.11.2015 15:24 14,9 C 45 % 1030,7 hPa 0,0 l/m 2,4 km/h (1 Bft) NO 42 1 min 0,000 mm 0,0 UV-I 157 W/m 3,1 C 14,9 C 4,8 km/h (1 Bft) 95,83 %
01.11.2015 15:25 14,8 C 45 % 1030,7 hPa 0,0 l/m 3,8 km/h (1 Bft) N-NO 25 1 min 0,000 mm 0,0 UV-I 154 W/m 3,0 C 14,8 C 6,4 km/h (2 Bft) 100,00 %
01.11.2015 15:26 14,8 C 45 % 1030,7 hPa 0,0 l/m 3,8 km/h (1 Bft) NO 40 1 min 0,000 mm 0,0 UV-I 150 W/m 3,0 C 14,8 C 4,8 km/h (1 Bft) 100,00 %
01.11.2015 15:27 14,7 C 45 % 1030,7 hPa 0,0 l/m 4,0 km/h (1 Bft) N-NO 23 1 min 0,000 mm 0,0 UV-I 148 W/m 2,9 C 14,7 C 4,8 km/h (1 Bft) 100,00 %
01.11.2015 15:28 14,7 C 45 % 1030,7 hPa 0,0 l/m 3,4 km/h (1 Bft) N-NO 30 1 min 0,000 mm 0,0 UV-I 145 W/m 2,9 C 14,7 C 6,4 km/h (2 Bft) 100,00 %
01.11.2015 15:29 14,7 C 46 % 1030,7 hPa 0,0 l/m 4,7 km/h (1 Bft) O 90 1 min 0,000 mm 0,0 UV-I 142 W/m 3,2 C 14,7 C 6,4 km/h (2 Bft) 100,00 %
01.11.2015 15:30 14,7 C 44 % 1030,7 hPa 0,0 l/m 2,7 km/h (1 Bft) O-NO 68 1 min 0,000 mm 0,0 UV-I 139 W/m 2,6 C 14,7 C 4,8 km/h (1 Bft) 100,00 %
01.11.2015 15:31 14,7 C 46 % 1030,7 hPa 0,0 l/m 3,4 km/h (1 Bft) N-NO 26 1 min 0,000 mm 0,0 UV-I 136 W/m 3,2 C 14,7 C 4,8 km/h (1 Bft) 100,00 %
01.11.2015 15:32 14,7 C 45 % 1030,7 hPa 0,0 l/m 3,8 km/h (1 Bft) NO 35 1 min 0,000 mm 0,0 UV-I 133 W/m 2,9 C 14,7 C 6,4 km/h (2 Bft) 100,00 %
01.11.2015 15:33 14,6 C 46 % 1030,7 hPa 0,0 l/m 3,9 km/h (1 Bft) N-NO 32 1 min 0,000 mm 0,0 UV-I 130 W/m 3,1 C 14,6 C 6,4 km/h (2 Bft) 100,00 %
01.11.2015 15:34 14,6 C 47 % 1030,7 hPa 0,0 l/m 3,5 km/h (1 Bft) N-NO 13 1 min 0,000 mm 0,0 UV-I 127 W/m 3,4 C 14,6 C 4,8 km/h (1 Bft) 100,00 %
01.11.2015 15:35 14,6 C 46 % 1030,8 hPa 0,0 l/m 3,5 km/h (1 Bft) O 80 1 min 0,000 mm 0,0 UV-I 124 W/m 3,1 C 14,6 C 4,8 km/h (1 Bft) 95,83 %
01.11.2015 15:36 14,6 C 45 % 1030,8 hPa 0,0 l/m 2,9 km/h (1 Bft) NO 40 1 min 0,000 mm 0,0 UV-I 122 W/m 2,8 C 14,6 C 4,8 km/h (1 Bft) 100,00 %
01.11.2015 15:37 14,6 C 46 % 1030,8 hPa 0,0 l/m 4,1 km/h (1 Bft) O-NO 65 1 min 0,000 mm 0,0 UV-I 119 W/m 3,1 C 14,6 C 8,0 km/h (2 Bft) 100,00 %
01.11.2015 15:38 14,6 C 44 % 1030,7 hPa 0,0 l/m 4,0 km/h (1 Bft) NO 47 1 min 0,000 mm 0,0 UV-I 116 W/m 2,5 C 14,6 C 8,0 km/h (2 Bft) 100,00 %
01.11.2015 15:39 14,6 C 43 % 1030,7 hPa 0,0 l/m 4,2 km/h (1 Bft) O 92 1 min 0,000 mm 0,0 UV-I 114 W/m 2,2 C 14,6 C 9,7 km/h (2 Bft) 100,00 %
01.11.2015 15:40 14,7 C 43 % 1030,7 hPa 0,0 l/m 4,3 km/h (1 Bft) O-NO 74 1 min 0,000 mm 0,0 UV-I 111 W/m 2,3 C 14,7 C 9,7 km/h (2 Bft) 100,00 %
01.11.2015 15:41 14,7 C 43 % 1030,7 hPa 0,0 l/m 3,8 km/h (1 Bft) O 98 1 min 0,000 mm 0,0 UV-I 108 W/m 2,3 C 14,7 C 4,8 km/h (1 Bft) 100,00 %
01.11.2015 15:42 14,7 C 44 % 1030,7 hPa 0,0 l/m 6,6 km/h (2 Bft) O 92 1 min 0,000 mm 0,0 UV-I 106 W/m 2,6 C 14,6 C 11,3 km/h (2 Bft) 100,00 %
01.11.2015 15:43 14,7 C 43 % 1030,7 hPa 0,0 l/m 7,1 km/h (2 Bft) O 101 1 min 0,000 mm 0,0 UV-I 102 W/m 2,3 C 14,3 C 12,9 km/h (3 Bft) 100,00 %
01.11.2015 15:44 14,7 C 43 % 1030,7 hPa 0,0 l/m 5,7 km/h (1 Bft) O-NO 75 1 min 0,000 mm 0,0 UV-I 100 W/m 2,3 C 14,7 C 11,3 km/h (2 Bft) 100,00 %
01.11.2015 15:45 14,6 C 44 % 1030,7 hPa 0,0 l/m 5,4 km/h (1 Bft) O 80 1 min 0,000 mm 0,0 UV-I 98 W/m 2,5 C 14,6 C 8,0 km/h (2 Bft) 100,00 %
01.11.2015 15:46 14,6 C 43 % 1030,7 hPa 0,0 l/m 6,8 km/h (2 Bft) O 95 1 min 0,000 mm 0,0 UV-I 94 W/m 2,2 C 14,4 C 12,9 km/h (3 Bft) 100,00 %
01.11.2015 15:47 14,6 C 44 % 1030,7 hPa 0,0 l/m 7,5 km/h (2 Bft) O-NO 64 1 min 0,000 mm 0,0 UV-I 92 W/m 2,5 C 14,0 C 14,5 km/h (3 Bft) 100,00 %
01.11.2015 15:48 14,6 C 44 % 1030,7 hPa 0,0 l/m 7,2 km/h (2 Bft) O-NO 78 1 min 0,000 mm 0,0 UV-I 89 W/m 2,5 C 14,1 C 11,3 km/h (2 Bft) 100,00 %
01.11.2015 15:49 14,5 C 43 % 1030,7 hPa 0,0 l/m 6,9 km/h (2 Bft) O-NO 76 1 min 0,000 mm 0,0 UV-I 87 W/m 2,1 C 14,2 C 11,3 km/h (2 Bft) 100,00 %
01.11.2015 15:50 14,5 C 44 % 1030,7 hPa 0,0 l/m 7,6 km/h (2 Bft) O-NO 72 1 min 0,000 mm 0,0 UV-I 84 W/m 2,4 C 13,8 C 11,3 km/h (2 Bft) 100,00 %
01.11.2015 15:51 14,5 C 43 % 1030,6 hPa 0,0 l/m 9,5 km/h (2 Bft) O 94 1 min 0,000 mm 0,0 UV-I 83 W/m 2,1 C 12,8 C 12,9 km/h (3 Bft) 100,00 %
01.11.2015 15:52 14,5 C 43 % 1030,7 hPa 0,0 l/m 9,7 km/h (2 Bft) O 91 1 min 0,000 mm 0,0 UV-I 80 W/m 2,1 C 12,7 C 12,9 km/h (3 Bft) 100,00 %
01.11.2015 15:53 14,6 C 43 % 1030,7 hPa 0,0 l/m 9,0 km/h (2 Bft) O 91 1 min 0,000 mm 0,0 UV-I 77 W/m 2,2 C 13,2 C 14,5 km/h (3 Bft) 100,00 %
01.11.2015 15:54 14,5 C 43 % 1030,7 hPa 0,0 l/m 8,0 km/h (2 Bft) O-SO 108 1 min 0,000 mm 0,0 UV-I 75 W/m 2,1 C 13,6 C 12,9 km/h (3 Bft) 100,00 %
01.11.2015 15:55 14,4 C 43 % 1030,7 hPa 0,0 l/m 8,0 km/h (2 Bft) O 83 1 min 0,000 mm 0,0 UV-I 73 W/m 2,0 C 13,5 C 14,5 km/h (3 Bft) 92,00 %
01.11.2015 15:56 14,4 C 43 % 1030,7 hPa 0,0 l/m 10,8 km/h (2 Bft) O 80 1 min 0,000 mm 0,0 UV-I 70 W/m 2,0 C 12,1 C 14,5 km/h (3 Bft) 100,00 %
01.11.2015 15:57 14,4 C 44 % 1030,6 hPa 0,0 l/m 9,6 km/h (2 Bft) O-NO 78 1 min 0,000 mm 0,0 UV-I 69 W/m 2,3 C 12,6 C 12,9 km/h (3 Bft) 100,00 %
01.11.2015 15:58 14,4 C 43 % 1030,7 hPa 0,0 l/m 8,0 km/h (2 Bft) O-NO 61 1 min 0,000 mm 0,0 UV-I 67 W/m 2,0 C 13,5 C 14,5 km/h (3 Bft) 91,67 %
01.11.2015 15:59 14,3 C 45 % 1030,6 hPa 0,0 l/m 8,1 km/h (2 Bft) NO 46 1 min 0,000 mm 0,0 UV-I 64 W/m 2,5 C 13,3 C 14,5 km/h (3 Bft) 100,00 %
01.11.2015 16:00 14,3 C 44 % 1030,6 hPa 0,0 l/m 8,2 km/h (2 Bft) O 91 1 min 0,000 mm 0,0 UV-I 61 W/m 2,2 C 13,3 C 12,9 km/h (3 Bft) 100,00 %
01.11.2015 16:02 14,1 C 45 % 1030,6 hPa 0,0 l/m 7,8 km/h (2 Bft) O-NO 70 2 min 0,127 mm 0,0 UV-I 57 W/m 2,4 C 13,3 C 12,9 km/h (3 Bft) 97,87 %
01.11.2015 16:03 14,0 C 45 % 1030,6 hPa 0,0 l/m 8,9 km/h (2 Bft) NO 53 0 min 0,000 mm 0,0 UV-I 54 W/m 2,3 C 12,6 C 12,9 km/h (3 Bft) 100,00 %
01.11.2015 16:04 13,8 C 46 % 1030,6 hPa 0,0 l/m 8,3 km/h (2 Bft) O-SO 112 0 min 0,000 mm 0,0 UV-I 52 W/m 2,4 C 12,7 C 12,9 km/h (3 Bft) 100,00 %
01.11.2015 16:05 13,8 C 46 % 1030,5 hPa 0,0 l/m 7,3 km/h (2 Bft) O 82 0 min 0,000 mm 0,0 UV-I 50 W/m 2,4 C 13,3 C 12,9 km/h (3 Bft) 96,15 %
01.11.2015 16:06 13,7 C 47 % 1030,5 hPa 0,0 l/m 9,0 km/h (2 Bft) NO 51 0 min 0,000 mm 0,0 UV-I 48 W/m 2,6 C 12,2 C 12,9 km/h (3 Bft) 100,00 %
01.11.2015 16:07 13,6 C 47 % 1030,5 hPa 0,0 l/m 7,6 km/h (2 Bft) O 100 0 min 0,000 mm 0,0 UV-I 46 W/m 2,5 C 12,9 C 11,3 km/h (2 Bft) 100,00 %
01.11.2015 16:08 13,6 C 47 % 1030,5 hPa 0,0 l/m 7,6 km/h (2 Bft) O-SO 110 0 min 0,000 mm 0,0 UV-I 42 W/m 2,5 C 12,9 C 12,9 km/h (3 Bft) 95,83 %
01.11.2015 16:09 13,4 C 48 % 1030,5 hPa 0,0 l/m 6,3 km/h (2 Bft) O 99 0 min 0,000 mm 0,0 UV-I 40 W/m 2,6 C 13,4 C 12,9 km/h (3 Bft) 100,00 %
01.11.2015 16:10 13,4 C 48 % 1030,5 hPa 0,0 l/m 7,6 km/h (2 Bft) O 82 0 min 0,000 mm 0,0 UV-I 38 W/m 2,6 C 12,7 C 11,3 km/h (2 Bft) 96,30 %
01.11.2015 16:11 13,3 C 48 % 1030,5 hPa 0,0 l/m 10,7 km/h (2 Bft) O 89 0 min 0,000 mm 0,0 UV-I 36 W/m 2,5 C 10,9 C 12,9 km/h (3 Bft) 96,55 %
01.11.2015 16:12 13,3 C 47 % 1030,5 hPa 0,0 l/m 7,8 km/h (2 Bft) O-NO 68 0 min 0,000 mm 0,0 UV-I 34 W/m 2,2 C 12,4 C 9,7 km/h (2 Bft) 100,00 %
01.11.2015 16:13 13,3 C 48 % 1030,5 hPa 0,0 l/m 9,4 km/h (2 Bft) O 100 0 min 0,000 mm 0,0 UV-I 32 W/m 2,5 C 11,5 C 12,9 km/h (3 Bft) 96,43 %
01.11.2015 16:14 13,3 C 48 % 1030,6 hPa 0,0 l/m 7,6 km/h (2 Bft) O-NO 58 0 min 0,000 mm 0,0 UV-I 30 W/m 2,5 C 12,6 C 12,9 km/h (3 Bft) 100,00 %
01.11.2015 16:15 13,3 C 47 % 1030,5 hPa 0,0 l/m 10,0 km/h (2 Bft) O-NO 63 0 min 0,000 mm 0,0 UV-I 28 W/m 2,2 C 11,2 C 12,9 km/h (3 Bft) 100,00 %
01.11.2015 16:16 13,3 C 48 % 1030,5 hPa 0,0 l/m 9,7 km/h (2 Bft) O-NO 77 0 min 0,000 mm 0,0 UV-I 26 W/m 2,5 C 11,4 C 16,1 km/h (3 Bft) 100,00 %
01.11.2015 16:17 13,3 C 47 % 1030,6 hPa 0,0 l/m 9,6 km/h (2 Bft) NO 49 0 min 0,000 mm 0,0 UV-I 26 W/m 2,2 C 11,4 C 12,9 km/h (3 Bft) 100,00 %
01.11.2015 16:18 13,2 C 48 % 1030,6 hPa 0,0 l/m 8,9 km/h (2 Bft) O 93 0 min 0,000 mm 0,0 UV-I 24 W/m 2,4 C 11,7 C 14,5 km/h (3 Bft) 100,00 %
01.11.2015 16:19 13,2 C 47 % 1030,6 hPa 0,0 l/m 8,0 km/h (2 Bft) O-NO 73 0 min 0,000 mm 0,0 UV-I 22 W/m 2,1 C 12,2 C 12,9 km/h (3 Bft) 100,00 %
01.11.2015 16:20 13,2 C 48 % 1030,6 hPa 0,0 l/m 7,4 km/h (2 Bft) O 85 0 min 0,000 mm 0,0 UV-I 19 W/m 2,4 C 12,6 C 12,9 km/h (3 Bft) 100,00 %
01.11.2015 16:21 13,1 C 48 % 1030,6 hPa 0,0 l/m 7,9 km/h (2 Bft) O 101 0 min 0,000 mm 0,0 UV-I 19 W/m 2,3 C 12,2 C 14,5 km/h (3 Bft) 100,00 %
01.11.2015 16:22 13,0 C 48 % 1030,6 hPa 0,0 l/m 8,0 km/h (2 Bft) O-SO 106 0 min 0,000 mm 0,0 UV-I 18 W/m 2,3 C 12,0 C 11,3 km/h (2 Bft) 100,00 %
01.11.2015 16:23 12,9 C 48 % 1030,6 hPa 0,0 l/m 9,0 km/h (2 Bft) O 97 0 min 0,000 mm 0,0 UV-I 17 W/m 2,2 C 11,3 C 14,5 km/h (3 Bft) 95,83 %
01.11.2015 16:24 12,9 C 49 % 1030,6 hPa 0,0 l/m 8,3 km/h (2 Bft) O 83 0 min 0,000 mm 0,0 UV-I 16 W/m 2,5 C 11,7 C 14,5 km/h (3 Bft) 100,00 %
01.11.2015 16:25 12,8 C 49 % 1030,6 hPa 0,0 l/m 8,3 km/h (2 Bft) O-NO 77 0 min 0,000 mm 0,0 UV-I 16 W/m 2,4 C 11,6 C 12,9 km/h (3 Bft) 100,00 %
01.11.2015 16:26 12,7 C 49 % 1030,6 hPa 0,0 l/m 10,9 km/h (2 Bft) O 90 0 min 0,000 mm 0,0 UV-I 14 W/m 2,3 C 10,1 C 14,5 km/h (3 Bft) 100,00 %
01.11.2015 16:27 12,7 C 49 % 1030,6 hPa 0,0 l/m 10,1 km/h (2 Bft) O-NO 63 0 min 0,000 mm 0,0 UV-I 14 W/m 2,3 C 10,5 C 14,5 km/h (3 Bft) 100,00 %
01.11.2015 16:28 12,7 C 49 % 1030,6 hPa 0,0 l/m 9,5 km/h (2 Bft) O-NO 63 0 min 0,000 mm 0,0 UV-I 13 W/m 2,3 C 10,8 C 14,5 km/h (3 Bft) 100,00 %
01.11.2015 16:29 12,6 C 48 % 1030,5 hPa 0,0 l/m 9,8 km/h (2 Bft) O-NO 67 0 min 0,000 mm 0,0 UV-I 12 W/m 1,9 C 10,6 C 12,9 km/h (3 Bft) 100,00 %
01.11.2015 16:30 12,6 C 49 % 1030,5 hPa 0,0 l/m 9,6 km/h (2 Bft) O 101 0 min 0,000 mm 0,0 UV-I 12 W/m 2,2 C 10,7 C 14,5 km/h (3 Bft) 100,00 %
01.11.2015 16:31 12,6 C 49 % 1030,5 hPa 0,0 l/m 10,3 km/h (2 Bft) O 98 0 min 0,000 mm 0,0 UV-I 12 W/m 2,2 C 10,3 C 12,9 km/h (3 Bft) 100,00 %
01.11.2015 16:32 12,5 C 49 % 1030,6 hPa 0,0 l/m 9,0 km/h (2 Bft) O-NO 75 0 min 0,000 mm 0,0 UV-I 12 W/m 2,1 C 10,9 C 12,9 km/h (3 Bft) 96,15 %
01.11.2015 16:33 12,4 C 49 % 1030,5 hPa 0,0 l/m 10,1 km/h (2 Bft) O-NO 71 1 min 0,000 mm 0,0 UV-I 12 W/m 2,0 C 10,2 C 12,9 km/h (3 Bft) 100,00 %
01.11.2015 16:34 12,4 C 49 % 1030,5 hPa 0,0 l/m 8,0 km/h (2 Bft) O 86 1 min 0,000 mm 0,0 UV-I 11 W/m 2,0 C 11,4 C 12,9 km/h (3 Bft) 100,00 %
01.11.2015 16:35 12,3 C 50 % 1030,5 hPa 0,0 l/m 9,7 km/h (2 Bft) O-NO 67 0 min 0,000 mm 0,0 UV-I 11 W/m 2,2 C 10,3 C 12,9 km/h (3 Bft) 100,00 %
01.11.2015 16:36 12,3 C 50 % 1030,5 hPa 0,0 l/m 9,8 km/h (2 Bft) O 95 0 min 0,000 mm 0,0 UV-I 11 W/m 2,2 C 10,2 C 16,1 km/h (3 Bft) 100,00 %
01.11.2015 16:37 12,2 C 50 % 1030,5 hPa 0,0 l/m 8,1 km/h (2 Bft) O 82 0 min 0,000 mm 0,0 UV-I 11 W/m 2,1 C 11,1 C 12,9 km/h (3 Bft) 100,00 %
01.11.2015 16:38 12,2 C 50 % 1030,5 hPa 0,0 l/m 9,8 km/h (2 Bft) O-NO 76 0 min 0,000 mm 0,0 UV-I 9 W/m 2,1 C 10,1 C 14,5 km/h (3 Bft) 100,00 %
01.11.2015 16:39 12,1 C 50 % 1030,5 hPa 0,0 l/m 6,0 km/h (2 Bft) O 92 0 min 0,000 mm 0,0 UV-I 9 W/m 2,0 C 12,1 C 9,7 km/h (2 Bft) 96,55 %
01.11.2015 16:40 12,1 C 50 % 1030,5 hPa 0,0 l/m 6,6 km/h (2 Bft) O 89 0 min 0,000 mm 0,0 UV-I 9 W/m 2,0 C 12,0 C 11,3 km/h (2 Bft) 100,00 %
01.11.2015 16:41 12,0 C 50 % 1030,5 hPa 0,0 l/m 6,4 km/h (2 Bft) NO 38 0 min 0,000 mm 0,0 UV-I 9 W/m 1,9 C 12,0 C 9,7 km/h (2 Bft) 100,00 %
01.11.2015 16:42 11,9 C 50 % 1030,5 hPa 0,0 l/m 5,3 km/h (1 Bft) O 84 0 min 0,000 mm 0,0 UV-I 8 W/m 1,8 C 11,9 C 11,3 km/h (2 Bft) 100,00 %
01.11.2015 16:43 11,9 C 51 % 1030,5 hPa 0,0 l/m 6,9 km/h (2 Bft) O-NO 76 0 min 0,000 mm 0,0 UV-I 7 W/m 2,1 C 11,6 C 11,3 km/h (2 Bft) 100,00 %
01.11.2015 16:44 11,8 C 51 % 1030,5 hPa 0,0 l/m 6,4 km/h (2 Bft) O-NO 63 0 min 0,000 mm 0,0 UV-I 7 W/m 2,0 C 11,8 C 9,7 km/h (2 Bft) 100,00 %
01.11.2015 16:45 11,8 C 51 % 1030,5 hPa 0,0 l/m 6,3 km/h (2 Bft) O-NO 60 0 min 0,000 mm 0,0 UV-I 7 W/m 2,0 C 11,8 C 8,0 km/h (2 Bft) 100,00 %
01.11.2015 16:46 11,7 C 51 % 1030,6 hPa 0,0 l/m 5,4 km/h (1 Bft) O-SO 111 0 min 0,000 mm 0,0 UV-I 7 W/m 1,9 C 11,7 C 8,0 km/h (2 Bft) 95,83 %
01.11.2015 16:47 11,7 C 51 % 1030,6 hPa 0,0 l/m 4,9 km/h (1 Bft) O 82 0 min 0,000 mm 0,0 UV-I 6 W/m 1,9 C 11,7 C 9,7 km/h (2 Bft) 100,00 %
01.11.2015 16:48 11,7 C 51 % 1030,5 hPa 0,0 l/m 5,7 km/h (1 Bft) O-NO 58 0 min 0,000 mm 0,0 UV-I 5 W/m 1,9 C 11,7 C 11,3 km/h (2 Bft) 100,00 %
01.11.2015 16:49 11,6 C 51 % 1030,5 hPa 0,0 l/m 4,6 km/h (1 Bft) O-NO 61 0 min 0,000 mm 0,0 UV-I 5 W/m 1,8 C 11,6 C 6,4 km/h (2 Bft) 100,00 %
01.11.2015 16:50 11,6 C 51 % 1030,5 hPa 0,0 l/m 6,2 km/h (2 Bft) O 92 0 min 0,000 mm 0,0 UV-I 5 W/m 1,8 C 11,6 C 9,7 km/h (2 Bft) 100,00 %
01.11.2015 16:51 11,5 C 51 % 1030,5 hPa 0,0 l/m 5,5 km/h (1 Bft) O-NO 57 0 min 0,000 mm 0,0 UV-I 5 W/m 1,7 C 11,5 C 8,0 km/h (2 Bft) 100,00 %
01.11.2015 16:52 11,5 C 51 % 1030,6 hPa 0,0 l/m 5,2 km/h (1 Bft) NO 51 0 min 0,000 mm 0,0 UV-I 5 W/m 1,7 C 11,5 C 8,0 km/h (2 Bft) 100,00 %
01.11.2015 16:53 11,4 C 50 % 1030,6 hPa 0,0 l/m 5,0 km/h (1 Bft) O 86 0 min 0,000 mm 0,0 UV-I 2 W/m 1,4 C 11,4 C 8,0 km/h (2 Bft) 100,00 %
01.11.2015 16:54 11,4 C 50 % 1030,6 hPa 0,0 l/m 4,8 km/h (1 Bft) O-NO 71 0 min 0,000 mm 0,0 UV-I 0 W/m 1,4 C 11,4 C 6,4 km/h (2 Bft) 91,30 %
01.11.2015 16:55 11,4 C 50 % 1030,6 hPa 0,0 l/m 5,1 km/h (1 Bft) O 84 0 min 0,000 mm 0,0 UV-I 0 W/m 1,4 C 11,4 C 8,0 km/h (2 Bft) 100,00 %
01.11.2015 16:56 11,4 C 50 % 1030,5 hPa 0,0 l/m 3,9 km/h (1 Bft) O 94 0 min 0,000 mm 0,0 UV-I 0 W/m 1,4 C 11,4 C 4,8 km/h (1 Bft) 100,00 %
01.11.2015 16:57 11,4 C 50 % 1030,5 hPa 0,0 l/m 5,2 km/h (1 Bft) O 84 0 min 0,000 mm 0,0 UV-I 0 W/m 1,4 C 11,4 C 6,4 km/h (2 Bft) 100,00 %
01.11.2015 16:58 11,4 C 50 % 1030,6 hPa 0,0 l/m 6,4 km/h (2 Bft) O-NO 72 0 min 0,000 mm 0,0 UV-I 0 W/m 1,4 C 11,4 C 9,7 km/h (2 Bft) 100,00 %
01.11.2015 16:59 11,4 C 50 % 1030,6 hPa 0,0 l/m 6,4 km/h (2 Bft) O-NO 66 0 min 0,000 mm 0,0 UV-I 0 W/m 1,4 C 11,4 C 11,3 km/h (2 Bft) 100,00 %
01.11.2015 17:00 11,4 C 50 % 1030,6 hPa 0,0 l/m 5,0 km/h (1 Bft) O-NO 64 0 min 0,000 mm 0,0 UV-I 0 W/m 1,4 C 11,4 C 8,0 km/h (2 Bft) 100,00 %
01.11.2015 17:01 11,4 C 49 % 1030,6 hPa 0,0 l/m 4,1 km/h (1 Bft) O 100 0 min 0,051 mm 0,0 UV-I 0 W/m 1,1 C 11,4 C 6,4 km/h (2 Bft) 100,00 %
01.11.2015 17:02 11,3 C 50 % 1030,6 hPa 0,0 l/m 4,1 km/h (1 Bft) O 86 0 min 0,000 mm 0,0 UV-I 0 W/m 1,3 C 11,3 C 6,4 km/h (2 Bft) 100,00 %
01.11.2015 17:03 11,3 C 50 % 1030,6 hPa 0,0 l/m 6,1 km/h (2 Bft) O-SO 106 0 min 0,000 mm 0,0 UV-I 0 W/m 1,3 C 11,3 C 9,7 km/h (2 Bft) 100,00 %
01.11.2015 17:04 11,3 C 49 % 1030,6 hPa 0,0 l/m 6,7 km/h (2 Bft) O 91 0 min 0,000 mm 0,0 UV-I 0 W/m 1,0 C 11,1 C 9,7 km/h (2 Bft) 96,15 %
01.11.2015 17:05 11,3 C 49 % 1030,5 hPa 0,0 l/m 6,7 km/h (2 Bft) O-NO 67 0 min 0,000 mm 0,0 UV-I 0 W/m 1,0 C 11,1 C 11,3 km/h (2 Bft) 100,00 %
01.11.2015 17:06 11,3 C 49 % 1030,6 hPa 0,0 l/m 5,2 km/h (1 Bft) NO 44 0 min 0,000 mm 0,0 UV-I 0 W/m 1,0 C 11,3 C 11,3 km/h (2 Bft) 100,00 %
01.11.2015 17:07 11,3 C 49 % 1030,5 hPa 0,0 l/m 5,3 km/h (1 Bft) O-NO 74 0 min 0,000 mm 0,0 UV-I 0 W/m 1,0 C 11,3 C 6,4 km/h (2 Bft) 100,00 %
01.11.2015 17:08 11,3 C 49 % 1030,5 hPa 0,0 l/m 5,4 km/h (1 Bft) O 82 0 min 0,000 mm 0,0 UV-I 0 W/m 1,0 C 11,3 C 8,0 km/h (2 Bft) 100,00 %
01.11.2015 17:09 11,3 C 49 % 1030,5 hPa 0,0 l/m 6,7 km/h (2 Bft) O 84 0 min 0,000 mm 0,0 UV-I 0 W/m 1,0 C 11,1 C 11,3 km/h (2 Bft) 100,00 %
01.11.2015 17:10 11,3 C 49 % 1030,5 hPa 0,0 l/m 6,5 km/h (2 Bft) O-NO 70 0 min 0,000 mm 0,0 UV-I 0 W/m 1,0 C 11,3 C 11,3 km/h (2 Bft) 100,00 %
01.11.2015 17:11 11,3 C 49 % 1030,5 hPa 0,0 l/m 6,4 km/h (2 Bft) O 94 0 min 0,000 mm 0,0 UV-I 0 W/m 1,0 C 11,3 C 9,7 km/h (2 Bft) 100,00 %
01.11.2015 17:12 11,3 C 49 % 1030,5 hPa 0,0 l/m 6,4 km/h (2 Bft) O 93 0 min 0,000 mm 0,0 UV-I 0 W/m 1,0 C 11,3 C 9,7 km/h (2 Bft) 100,00 %
01.11.2015 17:13 11,3 C 49 % 1030,5 hPa 0,0 l/m 6,0 km/h (2 Bft) O 96 0 min 0,000 mm 0,0 UV-I 0 W/m 1,0 C 11,3 C 9,7 km/h (2 Bft) 100,00 %
01.11.2015 17:14 11,3 C 49 % 1030,5 hPa 0,0 l/m 7,2 km/h (2 Bft) O 98 0 min 0,000 mm 0,0 UV-I 0 W/m 1,0 C 10,8 C 9,7 km/h (2 Bft) 100,00 %
01.11.2015 17:15 11,3 C 49 % 1030,5 hPa 0,0 l/m 6,9 km/h (2 Bft) O-NO 73 0 min 0,000 mm 0,0 UV-I 0 W/m 1,0 C 11,0 C 11,3 km/h (2 Bft) 100,00 %
01.11.2015 17:16 11,3 C 49 % 1030,5 hPa 0,0 l/m 5,8 km/h (2 Bft) O 90 0 min 0,000 mm 0,0 UV-I 0 W/m 1,0 C 11,3 C 11,3 km/h (2 Bft) 100,00 %
01.11.2015 17:17 11,3 C 49 % 1030,5 hPa 0,0 l/m 6,1 km/h (2 Bft) O-NO 61 0 min 0,000 mm 0,0 UV-I 0 W/m 1,0 C 11,3 C 8,0 km/h (2 Bft) 100,00 %
01.11.2015 17:18 11,3 C 49 % 1030,5 hPa 0,0 l/m 8,9 km/h (2 Bft) O 85 0 min 0,000 mm 0,0 UV-I 0 W/m 1,0 C 9,7 C 12,9 km/h (3 Bft) 100,00 %
01.11.2015 17:19 11,3 C 49 % 1030,5 hPa 0,0 l/m 5,3 km/h (1 Bft) O-NO 61 0 min 0,000 mm 0,0 UV-I 0 W/m 1,0 C 11,3 C 8,0 km/h (2 Bft) 100,00 %
01.11.2015 17:20 11,2 C 49 % 1030,5 hPa 0,0 l/m 8,4 km/h (2 Bft) O-NO 72 0 min 0,000 mm 0,0 UV-I 0 W/m 0,9 C 9,9 C 12,9 km/h (3 Bft) 97,44 %
01.11.2015 17:21 11,2 C 48 % 1030,5 hPa 0,0 l/m 7,2 km/h (2 Bft) O 90 0 min 0,000 mm 0,0 UV-I 0 W/m 0,6 C 10,6 C 12,9 km/h (3 Bft) 100,00 %
01.11.2015 17:22 11,2 C 48 % 1030,5 hPa 0,0 l/m 6,1 km/h (2 Bft) O 99 0 min 0,000 mm 0,0 UV-I 0 W/m 0,6 C 11,2 C 9,7 km/h (2 Bft) 100,00 %
01.11.2015 17:23 11,2 C 48 % 1030,5 hPa 0,0 l/m 7,2 km/h (2 Bft) O 94 0 min 0,000 mm 0,0 UV-I 0 W/m 0,6 C 10,6 C 11,3 km/h (2 Bft) 100,00 %
01.11.2015 17:24 11,2 C 48 % 1030,5 hPa 0,0 l/m 6,3 km/h (2 Bft) O 92 0 min 0,000 mm 0,0 UV-I 0 W/m 0,6 C 11,2 C 9,7 km/h (2 Bft) 100,00 %
01.11.2015 17:25 11,2 C 48 % 1030,5 hPa 0,0 l/m 4,2 km/h (1 Bft) O 82 0 min 0,000 mm 0,0 UV-I 0 W/m 0,6 C 11,2 C 6,4 km/h (2 Bft) 100,00 %
01.11.2015 17:26 11,2 C 48 % 1030,5 hPa 0,0 l/m 5,3 km/h (1 Bft) NO 54 0 min 0,000 mm 0,0 UV-I 0 W/m 0,6 C 11,2 C 9,7 km/h (2 Bft) 100,00 %
01.11.2015 17:27 11,1 C 48 % 1030,5 hPa 0,0 l/m 5,7 km/h (1 Bft) O-NO 76 0 min 0,000 mm 0,0 UV-I 0 W/m 0,5 C 11,1 C 11,3 km/h (2 Bft) 100,00 %
01.11.2015 17:28 11,1 C 48 % 1030,5 hPa 0,0 l/m 5,0 km/h (1 Bft) O 92 0 min 0,000 mm 0,0 UV-I 0 W/m 0,5 C 11,1 C 9,7 km/h (2 Bft) 100,00 %
01.11.2015 17:29 11,1 C 47 % 1030,5 hPa 0,0 l/m 7,4 km/h (2 Bft) O 90 0 min 0,000 mm 0,0 UV-I 0 W/m 0,2 C 10,4 C 11,3 km/h (2 Bft) 100,00 %
01.11.2015 17:30 11,2 C 47 % 1030,5 hPa 0,0 l/m 7,6 km/h (2 Bft) O 90 0 min 0,000 mm 0,0 UV-I 0 W/m 0,3 C 10,4 C 14,5 km/h (3 Bft) 100,00 %
01.11.2015 17:31 11,2 C 47 % 1030,5 hPa 0,0 l/m 8,1 km/h (2 Bft) O 82 0 min 0,000 mm 0,0 UV-I 0 W/m 0,3 C 10,0 C 14,5 km/h (3 Bft) 100,00 %
01.11.2015 17:32 11,2 C 47 % 1030,5 hPa 0,0 l/m 4,2 km/h (1 Bft) O-NO 69 0 min 0,000 mm 0,0 UV-I 0 W/m 0,3 C 11,2 C 11,3 km/h (2 Bft) 100,00 %
01.11.2015 17:33 11,3 C 47 % 1030,5 hPa 0,0 l/m 5,2 km/h (1 Bft) O 89 0 min 0,000 mm 0,0 UV-I 0 W/m 0,4 C 11,3 C 9,7 km/h (2 Bft) 96,15 %
01.11.2015 17:34 11,3 C 47 % 1030,5 hPa 0,0 l/m 4,8 km/h (1 Bft) O 90 0 min 0,000 mm 0,0 UV-I 0 W/m 0,4 C 11,3 C 8,0 km/h (2 Bft) 100,00 %
01.11.2015 17:35 11,3 C 46 % 1030,5 hPa 0,0 l/m 7,4 km/h (2 Bft) O 82 0 min 0,000 mm 0,0 UV-I 0 W/m 0,1 C 10,6 C 12,9 km/h (3 Bft) 100,00 %
01.11.2015 17:36 11,3 C 46 % 1030,5 hPa 0,0 l/m 5,2 km/h (1 Bft) O 101 0 min 0,000 mm 0,0 UV-I 0 W/m 0,1 C 11,3 C 8,0 km/h (2 Bft) 100,00 %
01.11.2015 17:37 11,3 C 46 % 1030,5 hPa 0,0 l/m 4,2 km/h (1 Bft) O 79 0 min 0,000 mm 0,0 UV-I 0 W/m 0,1 C 11,3 C 8,0 km/h (2 Bft) 100,00 %
01.11.2015 17:38 11,3 C 47 % 1030,5 hPa 0,0 l/m 7,4 km/h (2 Bft) O 100 0 min 0,000 mm 0,0 UV-I 0 W/m 0,4 C 10,6 C 14,5 km/h (3 Bft) 100,00 %
01.11.2015 17:39 11,3 C 46 % 1030,5 hPa 0,0 l/m 6,5 km/h (2 Bft) O 86 0 min 0,000 mm 0,0 UV-I 0 W/m 0,1 C 11,3 C 12,9 km/h (3 Bft) 100,00 %
01.11.2015 17:40 11,4 C 46 % 1030,5 hPa 0,0 l/m 3,6 km/h (1 Bft) O 87 0 min 0,000 mm 0,0 UV-I 0 W/m 0,2 C 11,4 C 6,4 km/h (2 Bft) 100,00 %
01.11.2015 17:41 11,3 C 46 % 1030,5 hPa 0,0 l/m 6,2 km/h (2 Bft) O 90 0 min 0,000 mm 0,0 UV-I 0 W/m 0,1 C 11,3 C 11,3 km/h (2 Bft) 100,00 %
01.11.2015 17:42 11,4 C 46 % 1030,5 hPa 0,0 l/m 7,2 km/h (2 Bft) O-SO 116 0 min 0,000 mm 0,0 UV-I 0 W/m 0,2 C 10,9 C 12,9 km/h (3 Bft) 100,00 %
01.11.2015 17:43 11,4 C 46 % 1030,5 hPa 0,0 l/m 5,6 km/h (1 Bft) O-NO 69 0 min 0,000 mm 0,0 UV-I 0 W/m 0,2 C 11,4 C 11,3 km/h (2 Bft) 100,00 %
01.11.2015 17:44 11,4 C 46 % 1030,6 hPa 0,0 l/m 3,9 km/h (1 Bft) O 88 0 min 0,000 mm 0,0 UV-I 0 W/m 0,2 C 11,4 C 8,0 km/h (2 Bft) 100,00 %
01.11.2015 17:45 11,4 C 46 % 1030,6 hPa 0,0 l/m 5,6 km/h (1 Bft) O 87 0 min 0,000 mm 0,0 UV-I 0 W/m 0,2 C 11,4 C 11,3 km/h (2 Bft) 100,00 %
01.11.2015 17:46 11,4 C 46 % 1030,5 hPa 0,0 l/m 8,6 km/h (2 Bft) O 90 0 min 0,000 mm 0,0 UV-I 0 W/m 0,2 C 9,9 C 12,9 km/h (3 Bft) 100,00 %
01.11.2015 17:47 11,4 C 46 % 1030,7 hPa 0,0 l/m 5,5 km/h (1 Bft) O-NO 71 0 min 0,000 mm 0,0 UV-I 0 W/m 0,2 C 11,4 C 8,0 km/h (2 Bft) 100,00 %
01.11.2015 17:48 11,3 C 46 % 1030,6 hPa 0,0 l/m 6,7 km/h (2 Bft) O-NO 69 0 min 0,000 mm 0,0 UV-I 0 W/m 0,1 C 11,1 C 12,9 km/h (3 Bft) 100,00 %
01.11.2015 17:49 11,3 C 47 % 1030,6 hPa 0,0 l/m 5,0 km/h (1 Bft) O 86 0 min 0,000 mm 0,0 UV-I 0 W/m 0,4 C 11,3 C 8,0 km/h (2 Bft) 100,00 %
01.11.2015 17:50 11,3 C 47 % 1030,5 hPa 0,0 l/m 3,9 km/h (1 Bft) O 88 0 min 0,000 mm 0,0 UV-I 0 W/m 0,4 C 11,3 C 4,8 km/h (1 Bft) 96,15 %
01.11.2015 17:51 11,2 C 48 % 1030,5 hPa 0,0 l/m 3,2 km/h (1 Bft) O 88 0 min 0,000 mm 0,0 UV-I 0 W/m 0,6 C 11,2 C 4,8 km/h (1 Bft) 100,00 %
01.11.2015 17:52 11,1 C 50 % 1030,5 hPa 0,0 l/m 2,3 km/h (1 Bft) NO 49 0 min 0,000 mm 0,0 UV-I 0 W/m 1,1 C 11,1 C 3,2 km/h (1 Bft) 100,00 %
01.11.2015 17:53 10,9 C 50 % 1030,6 hPa 0,0 l/m 3,6 km/h (1 Bft) O-NO 67 0 min 0,000 mm 0,0 UV-I 0 W/m 0,9 C 10,9 C 4,8 km/h (1 Bft) 100,00 %
01.11.2015 17:54 10,7 C 50 % 1030,6 hPa 0,0 l/m 3,0 km/h (1 Bft) NO 51 0 min 0,000 mm 0,0 UV-I 0 W/m 0,7 C 10,7 C 6,4 km/h (2 Bft) 95,83 %
01.11.2015 17:55 10,6 C 52 % 1030,5 hPa 0,0 l/m 2,8 km/h (1 Bft) NO 51 0 min 0,000 mm 0,0 UV-I 0 W/m 1,2 C 10,6 C 4,8 km/h (1 Bft) 100,00 %
01.11.2015 17:56 10,3 C 52 % 1030,5 hPa 0,0 l/m 1,8 km/h (1 Bft) NO 51 0 min 0,000 mm 0,0 UV-I 0 W/m 0,9 C 10,3 C 3,2 km/h (1 Bft) 96,30 %
01.11.2015 17:57 10,1 C 53 % 1030,5 hPa 0,0 l/m 2,4 km/h (1 Bft) NO 51 0 min 0,000 mm 0,0 UV-I 0 W/m 1,0 C 10,1 C 4,8 km/h (1 Bft) 100,00 %
01.11.2015 17:58 9,9 C 54 % 1030,5 hPa 0,0 l/m 1,5 km/h (1 Bft) NO 51 0 min 0,000 mm 0,0 UV-I 0 W/m 1,0 C 9,9 C 3,2 km/h (1 Bft) 100,00 %
01.11.2015 17:59 9,7 C 54 % 1030,6 hPa 0,0 l/m 0,6 km/h (0 Bft) O-NO 74 0 min 0,000 mm 0,0 UV-I 0 W/m 0,9 C 9,7 C 1,6 km/h (1 Bft) 100,00 %
01.11.2015 18:00 9,6 C 54 % 1030,6 hPa 0,0 l/m 1,9 km/h (1 Bft) NO 51 0 min 0,000 mm 0,0 UV-I 0 W/m 0,8 C 9,6 C 4,8 km/h (1 Bft) 100,00 %
01.11.2015 18:01 9,4 C 54 % 1030,5 hPa 0,0 l/m 1,0 km/h (0 Bft) O-NO 60 0 min 0,051 mm 0,0 UV-I 0 W/m 0,6 C 9,4 C 1,6 km/h (1 Bft) 100,00 %
01.11.2015 18:02 9,4 C 54 % 1030,6 hPa 0,0 l/m 1,4 km/h (1 Bft) O-NO 65 0 min 0,000 mm 0,0 UV-I 0 W/m 0,6 C 9,4 C 3,2 km/h (1 Bft) 100,00 %
01.11.2015 18:03 9,4 C 54 % 1030,5 hPa 0,0 l/m 2,2 km/h (1 Bft) N-NO 24 0 min 0,000 mm 0,0 UV-I 0 W/m 0,6 C 9,4 C 3,2 km/h (1 Bft) 96,15 %
01.11.2015 18:04 9,3 C 54 % 1030,5 hPa 0,0 l/m 2,6 km/h (1 Bft) NO 53 0 min 0,000 mm 0,0 UV-I 0 W/m 0,5 C 9,3 C 4,8 km/h (1 Bft) 100,00 %
01.11.2015 18:05 9,3 C 54 % 1030,6 hPa 0,0 l/m 3,0 km/h (1 Bft) O-NO 69 0 min 0,000 mm 0,0 UV-I 0 W/m 0,5 C 9,3 C 4,8 km/h (1 Bft) 100,00 %
01.11.2015 18:06 9,3 C 54 % 1030,5 hPa 0,0 l/m 1,5 km/h (1 Bft) O-NO 77 0 min 0,000 mm 0,0 UV-I 0 W/m 0,5 C 9,3 C 3,2 km/h (1 Bft) 100,00 %
01.11.2015 18:07 9,4 C 54 % 1030,6 hPa 0,0 l/m 1,6 km/h (1 Bft) O-NO 59 0 min 0,000 mm 0,0 UV-I 0 W/m 0,6 C 9,4 C 3,2 km/h (1 Bft) 100,00 %
01.11.2015 18:08 9,4 C 54 % 1030,6 hPa 0,0 l/m 3,2 km/h (1 Bft) O-NO 73 0 min 0,000 mm 0,0 UV-I 0 W/m 0,6 C 9,4 C 4,8 km/h (1 Bft) 100,00 %
01.11.2015 18:09 9,4 C 53 % 1030,6 hPa 0,0 l/m 2,5 km/h (1 Bft) O-NO 76 0 min 0,000 mm 0,0 UV-I 0 W/m 0,3 C 9,4 C 4,8 km/h (1 Bft) 100,00 %
01.11.2015 18:10 9,4 C 53 % 1030,6 hPa 0,0 l/m 2,7 km/h (1 Bft) O-NO 67 0 min 0,000 mm 0,0 UV-I 0 W/m 0,3 C 9,4 C 4,8 km/h (1 Bft) 95,83 %
01.11.2015 18:11 9,5 C 53 % 1030,6 hPa 0,0 l/m 4,1 km/h (1 Bft) O 80 0 min 0,000 mm 0,0 UV-I 0 W/m 0,4 C 9,5 C 6,4 km/h (2 Bft) 96,15 %
01.11.2015 18:12 9,6 C 52 % 1030,6 hPa 0,0 l/m 4,2 km/h (1 Bft) O 86 0 min 0,000 mm 0,0 UV-I 0 W/m 0,2 C 9,6 C 6,4 km/h (2 Bft) 100,00 %
01.11.2015 18:13 9,6 C 52 % 1030,6 hPa 0,0 l/m 4,7 km/h (1 Bft) O-NO 78 0 min 0,000 mm 0,0 UV-I 0 W/m 0,2 C 9,6 C 6,4 km/h (2 Bft) 100,00 %
01.11.2015 18:14 9,7 C 51 % 1030,6 hPa 0,0 l/m 7,2 km/h (2 Bft) O 84 0 min 0,000 mm 0,0 UV-I 0 W/m 0,1 C 9,1 C 11,3 km/h (2 Bft) 100,00 %
01.11.2015 18:15 9,7 C 51 % 1030,6 hPa 0,0 l/m 5,4 km/h (1 Bft) O-SO 109 0 min 0,000 mm 0,0 UV-I 0 W/m 0,1 C 9,7 C 9,7 km/h (2 Bft) 100,00 %
01.11.2015 18:16 9,8 C 51 % 1030,6 hPa 0,0 l/m 5,9 km/h (2 Bft) O 94 0 min 0,000 mm 0,0 UV-I 0 W/m 0,2 C 9,8 C 8,0 km/h (2 Bft) 100,00 %
01.11.2015 18:17 9,8 C 51 % 1030,6 hPa 0,0 l/m 3,9 km/h (1 Bft) O 79 0 min 0,000 mm 0,0 UV-I 0 W/m 0,2 C 9,8 C 8,0 km/h (2 Bft) 100,00 %
01.11.2015 18:18 9,8 C 51 % 1030,6 hPa 0,0 l/m 6,7 km/h (2 Bft) O-NO 78 0 min 0,000 mm 0,0 UV-I 0 W/m 0,2 C 9,6 C 11,3 km/h (2 Bft) 100,00 %
01.11.2015 18:19 9,9 C 50 % 1030,6 hPa 0,0 l/m 6,4 km/h (2 Bft) O 95 0 min 0,000 mm 0,0 UV-I 0 W/m -0,0 C 9,9 C 11,3 km/h (2 Bft) 100,00 %
01.11.2015 18:20 9,9 C 50 % 1030,6 hPa 0,0 l/m 4,5 km/h (1 Bft) NO 51 0 min 0,000 mm 0,0 UV-I 0 W/m -0,0 C 9,9 C 9,7 km/h (2 Bft) 100,00 %
01.11.2015 18:21 10,0 C 50 % 1030,6 hPa 0,0 l/m 3,7 km/h (1 Bft) O 86 0 min 0,000 mm 0,0 UV-I 0 W/m 0,1 C 10,0 C 6,4 km/h (2 Bft) 100,00 %
01.11.2015 18:22 10,0 C 51 % 1030,6 hPa 0,0 l/m 4,3 km/h (1 Bft) O 94 0 min 0,000 mm 0,0 UV-I 0 W/m 0,3 C 10,0 C 8,0 km/h (2 Bft) 100,00 %
01.11.2015 18:23 10,0 C 50 % 1030,6 hPa 0,0 l/m 4,2 km/h (1 Bft) O-NO 76 0 min 0,000 mm 0,0 UV-I 0 W/m 0,1 C 10,0 C 6,4 km/h (2 Bft) 100,00 %
01.11.2015 18:24 10,0 C 50 % 1030,7 hPa 0,0 l/m 5,7 km/h (1 Bft) O 92 0 min 0,000 mm 0,0 UV-I 0 W/m 0,1 C 10,0 C 8,0 km/h (2 Bft) 100,00 %
01.11.2015 18:25 10,0 C 50 % 1030,6 hPa 0,0 l/m 4,0 km/h (1 Bft) O-NO 63 0 min 0,000 mm 0,0 UV-I 0 W/m 0,1 C 10,0 C 6,4 km/h (2 Bft) 95,83 %
01.11.2015 18:26 10,0 C 51 % 1030,7 hPa 0,0 l/m 3,3 km/h (1 Bft) O-NO 73 0 min 0,000 mm 0,0 UV-I 0 W/m 0,3 C 10,0 C 4,8 km/h (1 Bft) 100,00 %
01.11.2015 18:27 10,0 C 51 % 1030,7 hPa 0,0 l/m 4,2 km/h (1 Bft) O 82 0 min 0,000 mm 0,0 UV-I 0 W/m 0,3 C 10,0 C 6,4 km/h (2 Bft) 100,00 %
01.11.2015 18:28 9,9 C 51 % 1030,7 hPa 0,0 l/m 3,1 km/h (1 Bft) O 93 0 min 0,000 mm 0,0 UV-I 0 W/m 0,2 C 9,9 C 4,8 km/h (1 Bft) 98,98 %
01.11.2015 18:29 9,9 C 51 % 1030,6 hPa 0,0 l/m 2,8 km/h (1 Bft) O 82 0 min 0,000 mm 0,0 UV-I 0 W/m 0,2 C 9,9 C 4,8 km/h (1 Bft) 100,00 %
01.11.2015 18:30 9,8 C 51 % 1030,6 hPa 0,0 l/m 4,3 km/h (1 Bft) O 79 0 min 0,000 mm 0,0 UV-I 0 W/m 0,2 C 9,8 C 8,0 km/h (2 Bft) 92,31 %
01.11.2015 18:31 9,8 C 51 % 1030,7 hPa 0,0 l/m 2,9 km/h (1 Bft) O-NO 74 0 min 0,000 mm 0,0 UV-I 0 W/m 0,2 C 9,8 C 4,8 km/h (1 Bft) 100,00 %
01.11.2015 18:32 9,8 C 52 % 1030,7 hPa 0,0 l/m 0,8 km/h (0 Bft) O 85 0 min 0,000 mm 0,0 UV-I 0 W/m 0,4 C 9,8 C 1,6 km/h (1 Bft) 100,00 %
01.11.2015 18:33 9,7 C 52 % 1030,7 hPa 0,0 l/m 2,4 km/h (1 Bft) O 92 0 min 0,000 mm 0,0 UV-I 0 W/m 0,3 C 9,7 C 4,8 km/h (1 Bft) 100,00 %
01.11.2015 18:34 9,6 C 52 % 1030,7 hPa 0,0 l/m 1,0 km/h (0 Bft) O 92 0 min 0,000 mm 0,0 UV-I 0 W/m 0,2 C 9,6 C 3,2 km/h (1 Bft) 96,15 %
01.11.2015 18:35 9,5 C 52 % 1030,7 hPa 0,0 l/m 2,9 km/h (1 Bft) O 86 0 min 0,000 mm 0,0 UV-I 0 W/m 0,1 C 9,5 C 4,8 km/h (1 Bft) 100,00 %
01.11.2015 18:36 9,5 C 53 % 1030,7 hPa 0,0 l/m 3,0 km/h (1 Bft) O-NO 65 0 min 0,000 mm 0,0 UV-I 0 W/m 0,4 C 9,5 C 4,8 km/h (1 Bft) 100,00 %
01.11.2015 18:37 9,4 C 53 % 1030,8 hPa 0,0 l/m 2,4 km/h (1 Bft) O-NO 71 0 min 0,000 mm 0,0 UV-I 0 W/m 0,3 C 9,4 C 6,4 km/h (2 Bft) 100,00 %
01.11.2015 18:38 9,3 C 53 % 1030,8 hPa 0,0 l/m 3,3 km/h (1 Bft) O-SO 108 0 min 0,000 mm 0,0 UV-I 0 W/m 0,2 C 9,3 C 4,8 km/h (1 Bft) 100,00 %
01.11.2015 18:39 9,3 C 53 % 1030,8 hPa 0,0 l/m 3,2 km/h (1 Bft) O 94 0 min 0,000 mm 0,0 UV-I 0 W/m 0,2 C 9,3 C 4,8 km/h (1 Bft) 100,00 %
01.11.2015 18:40 9,3 C 53 % 1030,8 hPa 0,0 l/m 5,0 km/h (1 Bft) O-NO 66 0 min 0,000 mm 0,0 UV-I 0 W/m 0,2 C 9,3 C 6,4 km/h (2 Bft) 100,00 %
01.11.2015 18:41 9,3 C 53 % 1030,8 hPa 0,0 l/m 4,3 km/h (1 Bft) O-NO 59 0 min 0,000 mm 0,0 UV-I 0 W/m 0,2 C 9,3 C 6,4 km/h (2 Bft) 100,00 %
01.11.2015 18:42 9,3 C 53 % 1030,7 hPa 0,0 l/m 4,4 km/h (1 Bft) O-SO 102 0 min 0,000 mm 0,0 UV-I 0 W/m 0,2 C 9,3 C 6,4 km/h (2 Bft) 100,00 %
01.11.2015 18:43 9,3 C 53 % 1030,8 hPa 0,0 l/m 3,8 km/h (1 Bft) O-NO 78 0 min 0,000 mm 0,0 UV-I 0 W/m 0,2 C 9,3 C 6,4 km/h (2 Bft) 96,15 %
01.11.2015 18:44 9,3 C 53 % 1030,7 hPa 0,0 l/m 4,0 km/h (1 Bft) O-NO 57 0 min 0,000 mm 0,0 UV-I 0 W/m 0,2 C 9,3 C 6,4 km/h (2 Bft) 100,00 %
01.11.2015 18:45 9,3 C 53 % 1030,7 hPa 0,0 l/m 3,9 km/h (1 Bft) O 85 0 min 0,000 mm 0,0 UV-I 0 W/m 0,2 C 9,3 C 8,0 km/h (2 Bft) 100,00 %
01.11.2015 18:46 9,3 C 53 % 1030,7 hPa 0,0 l/m 6,0 km/h (2 Bft) O-NO 65 0 min 0,000 mm 0,0 UV-I 0 W/m 0,2 C 9,3 C 9,7 km/h (2 Bft) 100,00 %
01.11.2015 18:47 9,3 C 53 % 1030,8 hPa 0,0 l/m 6,6 km/h (2 Bft) O-NO 73 0 min 0,000 mm 0,0 UV-I 0 W/m 0,2 C 9,2 C 12,9 km/h (3 Bft) 100,00 %
01.11.2015 18:48 9,3 C 53 % 1030,7 hPa 0,0 l/m 5,1 km/h (1 Bft) O 91 0 min 0,000 mm 0,0 UV-I 0 W/m 0,2 C 9,3 C 8,0 km/h (2 Bft) 100,00 %
01.11.2015 18:49 9,3 C 53 % 1030,7 hPa 0,0 l/m 5,3 km/h (1 Bft) O-NO 57 0 min 0,000 mm 0,0 UV-I 0 W/m 0,2 C 9,3 C 8,0 km/h (2 Bft) 100,00 %
01.11.2015 18:50 9,3 C 53 % 1030,7 hPa 0,0 l/m 4,5 km/h (1 Bft) O 86 0 min 0,000 mm 0,0 UV-I 0 W/m 0,2 C 9,3 C 8,0 km/h (2 Bft) 100,00 %
01.11.2015 18:51 9,3 C 53 % 1030,7 hPa 0,0 l/m 5,4 km/h (1 Bft) O-NO 69 0 min 0,000 mm 0,0 UV-I 0 W/m 0,2 C 9,3 C 9,7 km/h (2 Bft) 100,00 %
01.11.2015 18:52 9,2 C 53 % 1030,7 hPa 0,0 l/m 5,0 km/h (1 Bft) O 98 0 min 0,000 mm 0,0 UV-I 0 W/m 0,1 C 9,2 C 8,0 km/h (2 Bft) 100,00 %
01.11.2015 18:53 9,2 C 53 % 1030,8 hPa 0,0 l/m 6,0 km/h (2 Bft) O-NO 69 0 min 0,000 mm 0,0 UV-I 0 W/m 0,1 C 9,2 C 8,0 km/h (2 Bft) 100,00 %
01.11.2015 18:54 9,2 C 53 % 1030,7 hPa 0,0 l/m 6,3 km/h (2 Bft) O 100 0 min 0,000 mm 0,0 UV-I 0 W/m 0,1 C 9,2 C 9,7 km/h (2 Bft) 96,55 %
01.11.2015 18:55 9,2 C 53 % 1030,7 hPa 0,0 l/m 7,1 km/h (2 Bft) O 79 0 min 0,000 mm 0,0 UV-I 0 W/m 0,1 C 8,7 C 11,3 km/h (2 Bft) 100,00 %
01.11.2015 18:56 9,2 C 53 % 1030,7 hPa 0,0 l/m 7,6 km/h (2 Bft) O 88 0 min 0,000 mm 0,0 UV-I 0 W/m 0,1 C 8,3 C 11,3 km/h (2 Bft) 96,15 %
01.11.2015 18:57 9,2 C 53 % 1030,7 hPa 0,0 l/m 7,3 km/h (2 Bft) O 81 0 min 0,000 mm 0,0 UV-I 0 W/m 0,1 C 8,5 C 11,3 km/h (2 Bft) 100,00 %
01.11.2015 18:58 9,2 C 53 % 1030,7 hPa 0,0 l/m 8,2 km/h (2 Bft) O 80 0 min 0,000 mm 0,0 UV-I 0 W/m 0,1 C 7,9 C 11,3 km/h (2 Bft) 96,15 %
01.11.2015 18:59 9,2 C 53 % 1030,6 hPa 0,0 l/m 7,6 km/h (2 Bft) O-NO 68 0 min 0,000 mm 0,0 UV-I 0 W/m 0,1 C 8,3 C 11,3 km/h (2 Bft) 100,00 %
01.11.2015 19:00 9,2 C 53 % 1030,7 hPa 0,0 l/m 7,8 km/h (2 Bft) O-NO 73 0 min 0,000 mm 0,0 UV-I 0 W/m 0,1 C 8,2 C 11,3 km/h (2 Bft) 100,00 %
01.11.2015 19:01 9,2 C 53 % 1030,6 hPa 0,0 l/m 7,1 km/h (2 Bft) O 90 0 min 0,025 mm 0,0 UV-I 0 W/m 0,1 C 8,7 C 11,3 km/h (2 Bft) 100,00 %
01.11.2015 19:02 9,2 C 52 % 1030,7 hPa 0,0 l/m 7,2 km/h (2 Bft) O 80 0 min 0,000 mm 0,0 UV-I 0 W/m -0,1 C 8,6 C 9,7 km/h (2 Bft) 100,00 %
01.11.2015 19:03 9,2 C 52 % 1030,7 hPa 0,0 l/m 7,6 km/h (2 Bft) O 80 0 min 0,000 mm 0,0 UV-I 0 W/m -0,1 C 8,3 C 11,3 km/h (2 Bft) 100,00 %
01.11.2015 19:04 9,2 C 53 % 1030,6 hPa 0,0 l/m 6,6 km/h (2 Bft) O-NO 64 0 min 0,000 mm 0,0 UV-I 0 W/m 0,1 C 9,1 C 9,7 km/h (2 Bft) 100,00 %
01.11.2015 19:05 9,2 C 53 % 1030,7 hPa 0,0 l/m 5,5 km/h (1 Bft) NO 54 0 min 0,000 mm 0,0 UV-I 0 W/m 0,1 C 9,2 C 6,4 km/h (2 Bft) 100,00 %
01.11.2015 19:06 9,2 C 53 % 1030,6 hPa 0,0 l/m 6,4 km/h (2 Bft) O 88 0 min 0,000 mm 0,0 UV-I 0 W/m 0,1 C 9,2 C 9,7 km/h (2 Bft) 100,00 %
01.11.2015 19:07 9,2 C 53 % 1030,7 hPa 0,0 l/m 5,3 km/h (1 Bft) O-NO 69 0 min 0,000 mm 0,0 UV-I 0 W/m 0,1 C 9,2 C 6,4 km/h (2 Bft) 100,00 %
01.11.2015 19:08 9,2 C 53 % 1030,6 hPa 0,0 l/m 4,8 km/h (1 Bft) O 82 0 min 0,000 mm 0,0 UV-I 0 W/m 0,1 C 9,2 C 6,4 km/h (2 Bft) 100,00 %
01.11.2015 19:09 9,1 C 53 % 1030,6 hPa 0,0 l/m 5,0 km/h (1 Bft) O 82 0 min 0,000 mm 0,0 UV-I 0 W/m 0,0 C 9,1 C 6,4 km/h (2 Bft) 95,83 %
01.11.2015 19:10 9,1 C 53 % 1030,6 hPa 0,0 l/m 5,1 km/h (1 Bft) O-SO 103 0 min 0,000 mm 0,0 UV-I 0 W/m 0,0 C 9,1 C 6,4 km/h (2 Bft) 100,00 %
01.11.2015 19:11 9,1 C 54 % 1030,6 hPa 0,0 l/m 6,1 km/h (2 Bft) O 80 0 min 0,000 mm 0,0 UV-I 0 W/m 0,3 C 9,1 C 12,9 km/h (3 Bft) 100,00 %
01.11.2015 19:12 9,1 C 53 % 1030,6 hPa 0,0 l/m 6,9 km/h (2 Bft) O-NO 66 0 min 0,000 mm 0,0 UV-I 0 W/m 0,0 C 8,7 C 12,9 km/h (3 Bft) 100,00 %
01.11.2015 19:13 9,1 C 53 % 1030,6 hPa 0,0 l/m 4,5 km/h (1 Bft) O-NO 76 0 min 0,000 mm 0,0 UV-I 0 W/m 0,0 C 9,1 C 6,4 km/h (2 Bft) 100,00 %
01.11.2015 19:14 9,0 C 54 % 1030,6 hPa 0,0 l/m 3,1 km/h (1 Bft) O 82 0 min 0,000 mm 0,0 UV-I 0 W/m 0,2 C 9,0 C 6,4 km/h (2 Bft) 100,00 %
01.11.2015 19:15 9,0 C 53 % 1030,6 hPa 0,0 l/m 5,7 km/h (1 Bft) O 80 0 min 0,000 mm 0,0 UV-I 0 W/m -0,1 C 9,0 C 8,0 km/h (2 Bft) 100,00 %
01.11.2015 19:16 8,9 C 53 % 1030,6 hPa 0,0 l/m 4,1 km/h (1 Bft) O 80 0 min 0,000 mm 0,0 UV-I 0 W/m -0,1 C 8,9 C 4,8 km/h (1 Bft) 100,00 %
01.11.2015 19:17 8,9 C 54 % 1030,6 hPa 0,0 l/m 2,5 km/h (1 Bft) O 80 0 min 0,000 mm 0,0 UV-I 0 W/m 0,1 C 8,9 C 4,8 km/h (1 Bft) 96,15 %
01.11.2015 19:18 8,8 C 55 % 1030,6 hPa 0,0 l/m 1,9 km/h (1 Bft) O 100 0 min 0,000 mm 0,0 UV-I 0 W/m 0,3 C 8,8 C 4,8 km/h (1 Bft) 100,00 %
01.11.2015 19:19 8,7 C 55 % 1030,6 hPa 0,0 l/m 2,1 km/h (1 Bft) O-NO 74 0 min 0,000 mm 0,0 UV-I 0 W/m 0,2 C 8,7 C 4,8 km/h (1 Bft) 93,10 %
01.11.2015 19:20 8,5 C 55 % 1030,7 hPa 0,0 l/m 2,7 km/h (1 Bft) O-NO 57 0 min 0,000 mm 0,0 UV-I 0 W/m -0,0 C 8,5 C 6,4 km/h (2 Bft) 100,00 %
01.11.2015 19:21 8,4 C 55 % 1030,6 hPa 0,0 l/m 3,9 km/h (1 Bft) O 80 0 min 0,000 mm 0,0 UV-I 0 W/m -0,1 C 8,4 C 6,4 km/h (2 Bft) 92,86 %
01.11.2015 19:22 8,4 C 55 % 1030,6 hPa 0,0 l/m 4,4 km/h (1 Bft) O-NO 76 0 min 0,000 mm 0,0 UV-I 0 W/m -0,1 C 8,4 C 6,4 km/h (2 Bft) 100,00 %
01.11.2015 19:23 8,4 C 55 % 1030,6 hPa 0,0 l/m 2,6 km/h (1 Bft) O 89 0 min 0,000 mm 0,0 UV-I 0 W/m -0,1 C 8,4 C 4,8 km/h (1 Bft) 100,00 %
01.11.2015 19:24 8,5 C 55 % 1030,7 hPa 0,0 l/m 3,6 km/h (1 Bft) O 80 0 min 0,000 mm 0,0 UV-I 0 W/m -0,0 C 8,5 C 6,4 km/h (2 Bft) 100,00 %
01.11.2015 19:25 8,6 C 54 % 1030,7 hPa 0,0 l/m 4,4 km/h (1 Bft) O-NO 74 0 min 0,000 mm 0,0 UV-I 0 W/m -0,2 C 8,6 C 6,4 km/h (2 Bft) 100,00 %
01.11.2015 19:26 8,6 C 54 % 1030,7 hPa 0,0 l/m 5,2 km/h (1 Bft) O-NO 72 0 min 0,000 mm 0,0 UV-I 0 W/m -0,2 C 8,6 C 8,0 km/h (2 Bft) 95,83 %
01.11.2015 19:27 8,6 C 54 % 1030,6 hPa 0,0 l/m 4,6 km/h (1 Bft) O-NO 69 0 min 0,000 mm 0,0 UV-I 0 W/m -0,2 C 8,6 C 9,7 km/h (2 Bft) 100,00 %
01.11.2015 19:28 8,7 C 54 % 1030,7 hPa 0,0 l/m 3,3 km/h (1 Bft) O-NO 72 0 min 0,000 mm 0,0 UV-I 0 W/m -0,1 C 8,7 C 6,4 km/h (2 Bft) 96,15 %
01.11.2015 19:29 8,7 C 54 % 1030,6 hPa 0,0 l/m 4,4 km/h (1 Bft) O 84 0 min 0,000 mm 0,0 UV-I 0 W/m -0,1 C 8,7 C 6,4 km/h (2 Bft) 100,00 %
01.11.2015 19:30 8,7 C 54 % 1030,7 hPa 0,0 l/m 5,3 km/h (1 Bft) O-NO 74 0 min 0,000 mm 0,0 UV-I 0 W/m -0,1 C 8,7 C 9,7 km/h (2 Bft) 100,00 %
01.11.2015 19:31 8,7 C 54 % 1030,7 hPa 0,0 l/m 4,9 km/h (1 Bft) O 97 0 min 0,000 mm 0,0 UV-I 0 W/m -0,1 C 8,7 C 6,4 km/h (2 Bft) 100,00 %
01.11.2015 19:32 8,7 C 53 % 1030,7 hPa 0,0 l/m 6,4 km/h (2 Bft) O 90 0 min 0,000 mm 0,0 UV-I 0 W/m -0,3 C 8,7 C 9,7 km/h (2 Bft) 100,00 %
01.11.2015 19:33 8,7 C 53 % 1030,7 hPa 0,0 l/m 3,6 km/h (1 Bft) O 82 0 min 0,000 mm 0,0 UV-I 0 W/m -0,3 C 8,7 C 6,4 km/h (2 Bft) 100,00 %
01.11.2015 19:34 8,7 C 54 % 1030,6 hPa 0,0 l/m 3,5 km/h (1 Bft) O-NO 63 0 min 0,000 mm 0,0 UV-I 0 W/m -0,1 C 8,7 C 6,4 km/h (2 Bft) 100,00 %
01.11.2015 19:35 8,7 C 54 % 1030,7 hPa 0,0 l/m 2,5 km/h (1 Bft) O-NO 72 0 min 0,000 mm 0,0 UV-I 0 W/m -0,1 C 8,7 C 4,8 km/h (1 Bft) 100,00 %
01.11.2015 19:36 8,7 C 54 % 1030,7 hPa 0,0 l/m 2,8 km/h (1 Bft) O-NO 64 0 min 0,000 mm 0,0 UV-I 0 W/m -0,1 C 8,7 C 4,8 km/h (1 Bft) 100,00 %
01.11.2015 19:37 8,7 C 54 % 1030,7 hPa 0,0 l/m 1,9 km/h (1 Bft) O-NO 74 0 min 0,000 mm 0,0 UV-I 0 W/m -0,1 C 8,7 C 3,2 km/h (1 Bft) 100,00 %
01.11.2015 19:38 8,6 C 55 % 1030,7 hPa 0,0 l/m 1,6 km/h (1 Bft) O-NO 74 0 min 0,000 mm 0,0 UV-I 0 W/m 0,1 C 8,6 C 3,2 km/h (1 Bft) 100,00 %
01.11.2015 19:39 8,4 C 56 % 1030,7 hPa 0,0 l/m 2,0 km/h (1 Bft) O 92 0 min 0,000 mm 0,0 UV-I 0 W/m 0,1 C 8,4 C 3,2 km/h (1 Bft) 95,83 %
01.11.2015 19:40 8,3 C 55 % 1030,7 hPa 0,0 l/m 3,0 km/h (1 Bft) O-NO 74 0 min 0,000 mm 0,0 UV-I 0 W/m -0,2 C 8,3 C 4,8 km/h (1 Bft) 96,15 %
01.11.2015 19:41 8,3 C 55 % 1030,7 hPa 0,0 l/m 2,4 km/h (1 Bft) O 88 0 min 0,000 mm 0,0 UV-I 0 W/m -0,2 C 8,3 C 3,2 km/h (1 Bft) 95,83 %
01.11.2015 19:42 8,2 C 56 % 1030,7 hPa 0,0 l/m 0,5 km/h (0 Bft) O 88 0 min 0,000 mm 0,0 UV-I 0 W/m -0,0 C 8,2 C 3,2 km/h (1 Bft) 100,00 %
01.11.2015 19:43 8,2 C 56 % 1030,7 hPa 0,0 l/m 0,5 km/h (0 Bft) O 88 0 min 0,000 mm 0,0 UV-I 0 W/m -0,0 C 8,2 C 1,6 km/h (1 Bft) 100,00 %
01.11.2015 19:44 8,1 C 57 % 1030,7 hPa 0,0 l/m 0,2 km/h (0 Bft) O 88 0 min 0,000 mm 0,0 UV-I 0 W/m 0,1 C 8,1 C 1,6 km/h (1 Bft) 100,00 %
01.11.2015 19:45 8,0 C 57 % 1030,8 hPa 0,0 l/m 0,4 km/h (0 Bft) O 88 0 min 0,000 mm 0,0 UV-I 0 W/m 0,0 C 8,0 C 1,6 km/h (1 Bft) 95,83 %
01.11.2015 19:46 8,0 C 57 % 1030,8 hPa 0,0 l/m 0,6 km/h (0 Bft) O 88 0 min 0,000 mm 0,0 UV-I 0 W/m 0,0 C 8,0 C 1,6 km/h (1 Bft) 100,00 %
01.11.2015 19:47 7,9 C 57 % 1030,8 hPa 0,0 l/m 0,0 km/h (0 Bft) O 88 0 min 0,000 mm 0,0 UV-I 0 W/m -0,1 C 7,9 C 0,0 km/h (0 Bft) 100,00 %
01.11.2015 19:48 7,9 C 56 % 1030,8 hPa 0,0 l/m 0,0 km/h (0 Bft) O 88 0 min 0,000 mm 0,0 UV-I 0 W/m -0,3 C 7,9 C 0,0 km/h (0 Bft) 100,00 %
01.11.2015 19:49 7,9 C 56 % 1030,8 hPa 0,0 l/m 0,6 km/h (0 Bft) O 88 0 min 0,000 mm 0,0 UV-I 0 W/m -0,3 C 7,9 C 1,6 km/h (1 Bft) 100,00 %
01.11.2015 19:50 7,9 C 56 % 1030,7 hPa 0,0 l/m 0,0 km/h (0 Bft) O 88 0 min 0,000 mm 0,0 UV-I 0 W/m -0,3 C 7,9 C 0,0 km/h (0 Bft) 100,00 %
01.11.2015 19:51 7,9 C 56 % 1030,8 hPa 0,0 l/m 0,1 km/h (0 Bft) O 88 0 min 0,000 mm 0,0 UV-I 0 W/m -0,3 C 7,9 C 1,6 km/h (1 Bft) 100,00 %
01.11.2015 19:52 7,9 C 57 % 1030,8 hPa 0,0 l/m 0,6 km/h (0 Bft) O 88 0 min 0,000 mm 0,0 UV-I 0 W/m -0,1 C 7,9 C 1,6 km/h (1 Bft) 100,00 %
01.11.2015 19:53 7,8 C 58 % 1030,7 hPa 0,0 l/m 0,0 km/h (0 Bft) O 88 0 min 0,000 mm 0,0 UV-I 0 W/m 0,1 C 7,8 C 0,0 km/h (0 Bft) 91,30 %
01.11.2015 19:54 7,7 C 58 % 1030,7 hPa 0,0 l/m 0,0 km/h (0 Bft) O 88 0 min 0,000 mm 0,0 UV-I 0 W/m -0,0 C 7,7 C 0,0 km/h (0 Bft) 100,00 %
01.11.2015 19:55 7,6 C 60 % 1030,7 hPa 0,0 l/m 0,2 km/h (0 Bft) O 88 0 min 0,000 mm 0,0 UV-I 0 W/m 0,3 C 7,6 C 1,6 km/h (1 Bft) 86,96 %
01.11.2015 19:56 7,4 C 60 % 1030,7 hPa 0,0 l/m 0,0 km/h (0 Bft) O 88 0 min 0,000 mm 0,0 UV-I 0 W/m 0,2 C 7,4 C 0,0 km/h (0 Bft) 95,83 %
01.11.2015 19:57 7,2 C 60 % 1030,7 hPa 0,0 l/m 0,6 km/h (0 Bft) O 88 0 min 0,000 mm 0,0 UV-I 0 W/m -0,0 C 7,2 C 3,2 km/h (1 Bft) 95,00 %
01.11.2015 19:58 7,0 C 61 % 1030,7 hPa 0,0 l/m 1,1 km/h (1 Bft) O 88 0 min 0,000 mm 0,0 UV-I 0 W/m 0,0 C 7,0 C 1,6 km/h (1 Bft) 95,83 %
01.11.2015 19:59 6,9 C 62 % 1030,7 hPa 0,0 l/m 0,5 km/h (0 Bft) O 88 0 min 0,000 mm 0,0 UV-I 0 W/m 0,1 C 6,9 C 1,6 km/h (1 Bft) 95,65 %
01.11.2015 20:00 6,8 C 61 % 1030,7 hPa 0,0 l/m 1,3 km/h (1 Bft) O 88 0 min 0,000 mm 0,0 UV-I 0 W/m -0,2 C 6,8 C 3,2 km/h (1 Bft) 95,83 %
01.11.2015 20:01 6,7 C 61 % 1030,7 hPa 0,0 l/m 0,3 km/h (0 Bft) O 88 0 min 0,025 mm 0,0 UV-I 0 W/m -0,3 C 6,7 C 1,6 km/h (1 Bft) 95,65 %
01.11.2015 20:02 6,7 C 61 % 1030,7 hPa 0,0 l/m 1,0 km/h (0 Bft) O 88 0 min 0,001 mm 0,0 UV-I 0 W/m -0,3 C 6,7 C 1,6 km/h (1 Bft) 95,83 %
01.11.2015 20:03 6,7 C 62 % 1030,7 hPa 0,0 l/m 0,9 km/h (0 Bft) O 88 0 min 0,000 mm 0,0 UV-I 0 W/m -0,1 C 6,7 C 1,6 km/h (1 Bft) 100,00 %
01.11.2015 20:04 6,7 C 62 % 1030,7 hPa 0,0 l/m 0,0 km/h (0 Bft) O 88 0 min 0,000 mm 0,0 UV-I 0 W/m -0,1 C 6,7 C 0,0 km/h (0 Bft) 100,00 %
01.11.2015 20:05 6,7 C 62 % 1030,7 hPa 0,0 l/m 0,0 km/h (0 Bft) O 88 0 min 0,000 mm 0,0 UV-I 0 W/m -0,1 C 6,7 C 0,0 km/h (0 Bft) 100,00 %
01.11.2015 20:06 6,7 C 62 % 1030,7 hPa 0,0 l/m 0,7 km/h (0 Bft) O 88 0 min 0,000 mm 0,0 UV-I 0 W/m -0,1 C 6,7 C 1,6 km/h (1 Bft) 100,00 %
01.11.2015 20:07 6,7 C 62 % 1030,7 hPa 0,0 l/m 0,5 km/h (0 Bft) O 88 0 min 0,000 mm 0,0 UV-I 0 W/m -0,1 C 6,7 C 1,6 km/h (1 Bft) 98,96 %
01.11.2015 20:08 6,7 C 61 % 1030,7 hPa 0,0 l/m 0,3 km/h (0 Bft) O 88 0 min 0,000 mm 0,0 UV-I 0 W/m -0,3 C 6,7 C 1,6 km/h (1 Bft) 100,00 %
01.11.2015 20:09 6,7 C 62 % 1030,8 hPa 0,0 l/m 0,0 km/h (0 Bft) O 88 0 min 0,000 mm 0,0 UV-I 0 W/m -0,1 C 6,7 C 0,0 km/h (0 Bft) 100,00 %
01.11.2015 20:10 6,7 C 62 % 1030,7 hPa 0,0 l/m 0,3 km/h (0 Bft) O 88 0 min 0,000 mm 0,0 UV-I 0 W/m -0,1 C 6,7 C 1,6 km/h (1 Bft) 95,83 %
01.11.2015 20:11 6,8 C 61 % 1030,7 hPa 0,0 l/m 0,8 km/h (0 Bft) O 88 0 min 0,000 mm 0,0 UV-I 0 W/m -0,2 C 6,8 C 1,6 km/h (1 Bft) 100,00 %
01.11.2015 20:12 6,8 C 61 % 1030,7 hPa 0,0 l/m 0,2 km/h (0 Bft) O 88 0 min 0,000 mm 0,0 UV-I 0 W/m -0,2 C 6,8 C 1,6 km/h (1 Bft) 100,00 %
01.11.2015 20:13 6,8 C 61 % 1030,7 hPa 0,0 l/m 0,1 km/h (0 Bft) O 88 0 min 0,000 mm 0,0 UV-I 0 W/m -0,2 C 6,8 C 1,6 km/h (1 Bft) 95,65 %
01.11.2015 20:14 6,9 C 61 % 1030,7 hPa 0,0 l/m 0,4 km/h (0 Bft) O 88 0 min 0,000 mm 0,0 UV-I 0 W/m -0,1 C 6,9 C 1,6 km/h (1 Bft) 100,00 %
01.11.2015 20:15 6,9 C 60 % 1030,7 hPa 0,0 l/m 0,8 km/h (0 Bft) O 88 0 min 0,000 mm 0,0 UV-I 0 W/m -0,3 C 6,9 C 1,6 km/h (1 Bft) 100,00 %
01.11.2015 20:16 6,9 C 60 % 1030,7 hPa 0,0 l/m 0,5 km/h (0 Bft) O 88 0 min 0,000 mm 0,0 UV-I 0 W/m -0,3 C 6,9 C 1,6 km/h (1 Bft) 100,00 %
01.11.2015 20:17 6,9 C 60 % 1030,8 hPa 0,0 l/m 0,2 km/h (0 Bft) O 88 0 min 0,000 mm 0,0 UV-I 0 W/m -0,3 C 6,9 C 1,6 km/h (1 Bft) 100,00 %
01.11.2015 20:18 6,9 C 60 % 1030,7 hPa 0,0 l/m 0,0 km/h (0 Bft) O 88 0 min 0,000 mm 0,0 UV-I 0 W/m -0,3 C 6,9 C 0,0 km/h (0 Bft) 100,00 %
01.11.2015 20:19 6,9 C 60 % 1030,7 hPa 0,0 l/m 0,2 km/h (0 Bft) O 88 0 min 0,000 mm 0,0 UV-I 0 W/m -0,3 C 6,9 C 1,6 km/h (1 Bft) 100,00 %
01.11.2015 20:20 6,9 C 60 % 1030,7 hPa 0,0 l/m 0,0 km/h (0 Bft) O 88 0 min 0,000 mm 0,0 UV-I 0 W/m -0,3 C 6,9 C 0,0 km/h (0 Bft) 100,00 %
01.11.2015 20:21 6,9 C 60 % 1030,7 hPa 0,0 l/m 0,1 km/h (0 Bft) O 88 0 min 0,000 mm 0,0 UV-I 0 W/m -0,3 C 6,9 C 1,6 km/h (1 Bft) 100,00 %
01.11.2015 20:22 6,9 C 60 % 1030,7 hPa 0,0 l/m 0,2 km/h (0 Bft) O 88 0 min 0,000 mm 0,0 UV-I 0 W/m -0,3 C 6,9 C 1,6 km/h (1 Bft) 100,00 %
01.11.2015 20:23 6,8 C 60 % 1030,7 hPa 0,0 l/m 0,0 km/h (0 Bft) O 88 0 min 0,000 mm 0,0 UV-I 0 W/m -0,4 C 6,8 C 0,0 km/h (0 Bft) 100,00 %
01.11.2015 20:24 6,7 C 61 % 1030,7 hPa 0,0 l/m 0,0 km/h (0 Bft) O 88 0 min 0,000 mm 0,0 UV-I 0 W/m -0,3 C 6,7 C 0,0 km/h (0 Bft) 100,00 %
01.11.2015 20:25 6,6 C 61 % 1030,7 hPa 0,0 l/m 0,0 km/h (0 Bft) O 88 0 min 0,000 mm 0,0 UV-I 0 W/m -0,4 C 6,6 C 0,0 km/h (0 Bft) 100,00 %
01.11.2015 20:26 6,6 C 62 % 1030,7 hPa 0,0 l/m 0,0 km/h (0 Bft) O 88 0 min 0,000 mm 0,0 UV-I 0 W/m -0,1 C 6,6 C 0,0 km/h (0 Bft) 95,65 %
01.11.2015 20:27 6,4 C 62 % 1030,7 hPa 0,0 l/m 0,0 km/h (0 Bft) O 88 0 min 0,000 mm 0,0 UV-I 0 W/m -0,3 C 6,4 C 0,0 km/h (0 Bft) 100,00 %
01.11.2015 20:28 6,3 C 63 % 1030,7 hPa 0,0 l/m 0,0 km/h (0 Bft) O 88 0 min 0,000 mm 0,0 UV-I 0 W/m -0,2 C 6,3 C 0,0 km/h (0 Bft) 100,00 %
01.11.2015 20:29 6,3 C 63 % 1030,6 hPa 0,0 l/m 0,0 km/h (0 Bft) O 88 0 min 0,000 mm 0,0 UV-I 0 W/m -0,2 C 6,3 C 0,0 km/h (0 Bft) 96,30 %
01.11.2015 20:30 6,1 C 65 % 1030,6 hPa 0,0 l/m 0,0 km/h (0 Bft) O 88 0 min 0,000 mm 0,0 UV-I 0 W/m 0,0 C 6,1 C 0,0 km/h (0 Bft) 100,00 %
01.11.2015 20:31 5,9 C 65 % 1030,6 hPa 0,0 l/m 0,0 km/h (0 Bft) O 88 0 min 0,000 mm 0,0 UV-I 0 W/m -0,2 C 5,9 C 0,0 km/h (0 Bft) 96,15 %
01.11.2015 20:32 5,7 C 67 % 1030,6 hPa 0,0 l/m 0,0 km/h (0 Bft) O 88 0 min 0,000 mm 0,0 UV-I 0 W/m 0,1 C 5,7 C 0,0 km/h (0 Bft) 100,00 %
01.11.2015 20:33 5,4 C 68 % 1030,6 hPa 0,0 l/m 0,0 km/h (0 Bft) O 88 0 min 0,000 mm 0,0 UV-I 0 W/m -0,0 C 5,4 C 0,0 km/h (0 Bft) 100,00 %
01.11.2015 20:34 5,3 C 68 % 1030,6 hPa 0,0 l/m 0,0 km/h (0 Bft) O 88 0 min 0,000 mm 0,0 UV-I 0 W/m -0,1 C 5,3 C 0,0 km/h (0 Bft) 100,00 %
01.11.2015 20:35 5,1 C 69 % 1030,6 hPa 0,0 l/m 0,0 km/h (0 Bft) O 88 0 min 0,000 mm 0,0 UV-I 0 W/m -0,1 C 5,1 C 0,0 km/h (0 Bft) 96,15 %
01.11.2015 20:36 5,0 C 70 % 1030,6 hPa 0,0 l/m 0,0 km/h (0 Bft) O 88 0 min 0,000 mm 0,0 UV-I 0 W/m -0,0 C 5,0 C 0,0 km/h (0 Bft) 100,00 %
01.11.2015 20:37 4,8 C 70 % 1030,6 hPa 0,0 l/m 0,1 km/h (0 Bft) O 88 0 min 0,000 mm 0,0 UV-I 0 W/m -0,2 C 4,8 C 1,6 km/h (1 Bft) 100,00 %
01.11.2015 20:38 4,7 C 71 % 1030,6 hPa 0,0 l/m 0,0 km/h (0 Bft) O 88 0 min 0,000 mm 0,0 UV-I 0 W/m -0,1 C 4,7 C 0,0 km/h (0 Bft) 95,83 %
01.11.2015 20:39 4,6 C 71 % 1030,6 hPa 0,0 l/m 0,7 km/h (0 Bft) O 88 0 min 0,000 mm 0,0 UV-I 0 W/m -0,2 C 4,6 C 1,6 km/h (1 Bft) 100,00 %
01.11.2015 20:40 4,6 C 71 % 1030,6 hPa 0,0 l/m 0,3 km/h (0 Bft) O 88 0 min 0,000 mm 0,0 UV-I 0 W/m -0,2 C 4,6 C 1,6 km/h (1 Bft) 100,00 %
01.11.2015 20:41 4,5 C 71 % 1030,6 hPa 0,0 l/m 0,6 km/h (0 Bft) O 88 0 min 0,000 mm 0,0 UV-I 0 W/m -0,3 C 4,5 C 1,6 km/h (1 Bft) 86,96 %
01.11.2015 20:42 4,5 C 72 % 1030,6 hPa 0,0 l/m 0,3 km/h (0 Bft) O 88 0 min 0,000 mm 0,0 UV-I 0 W/m -0,1 C 4,5 C 1,6 km/h (1 Bft) 100,00 %
01.11.2015 20:43 4,5 C 71 % 1030,6 hPa 0,0 l/m 1,2 km/h (1 Bft) O 88 0 min 0,000 mm 0,0 UV-I 0 W/m -0,3 C 4,5 C 3,2 km/h (1 Bft) 96,55 %
01.11.2015 20:44 4,6 C 71 % 1030,6 hPa 0,0 l/m 1,3 km/h (1 Bft) O 88 0 min 0,000 mm 0,0 UV-I 0 W/m -0,2 C 4,6 C 3,2 km/h (1 Bft) 100,00 %
01.11.2015 20:45 4,6 C 71 % 1030,6 hPa 0,0 l/m 1,0 km/h (0 Bft) O 88 0 min 0,000 mm 0,0 UV-I 0 W/m -0,2 C 4,6 C 1,6 km/h (1 Bft) 100,00 %
01.11.2015 20:46 4,7 C 70 % 1030,6 hPa 0,0 l/m 1,2 km/h (1 Bft) O 88 0 min 0,000 mm 0,0 UV-I 0 W/m -0,3 C 4,7 C 3,2 km/h (1 Bft) 91,67 %
01.11.2015 20:47 4,8 C 69 % 1030,6 hPa 0,0 l/m 1,9 km/h (1 Bft) O 83 0 min 0,000 mm 0,0 UV-I 0 W/m -0,4 C 4,8 C 3,2 km/h (1 Bft) 100,00 %
01.11.2015 20:48 4,9 C 69 % 1030,6 hPa 0,0 l/m 0,5 km/h (0 Bft) O 83 0 min 0,000 mm 0,0 UV-I 0 W/m -0,3 C 4,9 C 1,6 km/h (1 Bft) 100,00 %
01.11.2015 20:49 5,1 C 68 % 1030,6 hPa 0,0 l/m 1,0 km/h (0 Bft) O 83 0 min 0,000 mm 0,0 UV-I 0 W/m -0,3 C 5,1 C 1,6 km/h (1 Bft) 100,00 %
01.11.2015 20:50 5,3 C 67 % 1030,7 hPa 0,0 l/m 1,0 km/h (0 Bft) O 83 0 min 0,000 mm 0,0 UV-I 0 W/m -0,3 C 5,3 C 1,6 km/h (1 Bft) 100,00 %
01.11.2015 20:51 5,6 C 67 % 1030,6 hPa 0,0 l/m 0,3 km/h (0 Bft) O 83 0 min 0,000 mm 0,0 UV-I 0 W/m -0,0 C 5,6 C 1,6 km/h (1 Bft) 100,00 %
01.11.2015 20:52 5,7 C 66 % 1030,6 hPa 0,0 l/m 0,2 km/h (0 Bft) O 83 0 min 0,000 mm 0,0 UV-I 0 W/m -0,1 C 5,7 C 1,6 km/h (1 Bft) 100,00 %
01.11.2015 20:53 5,8 C 65 % 1030,7 hPa 0,0 l/m 0,0 km/h (0 Bft) O 83 0 min 0,000 mm 0,0 UV-I 0 W/m -0,3 C 5,8 C 0,0 km/h (0 Bft) 100,00 %
01.11.2015 20:54 5,8 C 66 % 1030,7 hPa 0,0 l/m 0,0 km/h (0 Bft) O 83 0 min 0,000 mm 0,0 UV-I 0 W/m -0,0 C 5,8 C 0,0 km/h (0 Bft) 100,00 %
01.11.2015 20:55 5,7 C 67 % 1030,7 hPa 0,0 l/m 0,0 km/h (0 Bft) O 83 0 min 0,000 mm 0,0 UV-I 0 W/m 0,1 C 5,7 C 0,0 km/h (0 Bft) 100,00 %
01.11.2015 20:56 5,4 C 67 % 1030,7 hPa 0,0 l/m 0,0 km/h (0 Bft) O 83 0 min 0,000 mm 0,0 UV-I 0 W/m -0,2 C 5,4 C 0,0 km/h (0 Bft) 92,86 %
01.11.2015 20:57 5,2 C 69 % 1030,7 hPa 0,0 l/m 0,0 km/h (0 Bft) O 83 0 min 0,000 mm 0,0 UV-I 0 W/m -0,0 C 5,2 C 0,0 km/h (0 Bft) 100,00 %
01.11.2015 20:58 5,0 C 69 % 1030,7 hPa 0,0 l/m 0,5 km/h (0 Bft) O 83 0 min 0,000 mm 0,0 UV-I 0 W/m -0,2 C 5,0 C 1,6 km/h (1 Bft) 100,00 %
01.11.2015 20:59 4,8 C 70 % 1030,7 hPa 0,0 l/m 0,3 km/h (0 Bft) O 83 0 min 0,000 mm 0,0 UV-I 0 W/m -0,2 C 4,8 C 1,6 km/h (1 Bft) 95,83 %
01.11.2015 21:00 4,7 C 71 % 1030,7 hPa 0,0 l/m 0,0 km/h (0 Bft) O 83 0 min 0,000 mm 0,0 UV-I 0 W/m -0,1 C 4,7 C 0,0 km/h (0 Bft) 95,65 %
01.11.2015 21:01 4,6 C 71 % 1030,7 hPa 0,0 l/m 0,2 km/h (0 Bft) O 83 0 min 0,000 mm 0,0 UV-I 0 W/m -0,2 C 4,6 C 1,6 km/h (1 Bft) 100,00 %
01.11.2015 21:02 4,6 C 71 % 1030,7 hPa 0,0 l/m 0,0 km/h (0 Bft) O 83 0 min 0,000 mm 0,0 UV-I 0 W/m -0,2 C 4,6 C 0,0 km/h (0 Bft) 95,65 %
01.11.2015 21:03 4,5 C 71 % 1030,7 hPa 0,0 l/m 0,5 km/h (0 Bft) O 83 0 min 0,000 mm 0,0 UV-I 0 W/m -0,3 C 4,5 C 1,6 km/h (1 Bft) 100,00 %
01.11.2015 21:04 4,4 C 72 % 1030,7 hPa 0,0 l/m 0,5 km/h (0 Bft) O 83 0 min 0,000 mm 0,0 UV-I 0 W/m -0,2 C 4,4 C 1,6 km/h (1 Bft) 96,15 %
01.11.2015 21:05 4,4 C 71 % 1030,7 hPa 0,0 l/m 0,0 km/h (0 Bft) O 83 0 min 0,000 mm 0,0 UV-I 0 W/m -0,4 C 4,4 C 0,0 km/h (0 Bft) 100,00 %
01.11.2015 21:06 4,5 C 71 % 1030,7 hPa 0,0 l/m 0,1 km/h (0 Bft) O 83 0 min 0,000 mm 0,0 UV-I 0 W/m -0,3 C 4,5 C 1,6 km/h (1 Bft) 100,00 %
01.11.2015 21:07 4,6 C 71 % 1030,7 hPa 0,0 l/m 1,3 km/h (1 Bft) O 83 0 min 0,000 mm 0,0 UV-I 0 W/m -0,2 C 4,6 C 3,2 km/h (1 Bft) 100,00 %
01.11.2015 21:08 4,7 C 70 % 1030,6 hPa 0,0 l/m 0,2 km/h (0 Bft) O 83 0 min 0,000 mm 0,0 UV-I 0 W/m -0,3 C 4,7 C 1,6 km/h (1 Bft) 100,00 %
01.11.2015 21:09 4,9 C 70 % 1030,6 hPa 0,0 l/m 0,1 km/h (0 Bft) O 83 0 min 0,000 mm 0,0 UV-I 0 W/m -0,1 C 4,9 C 1,6 km/h (1 Bft) 100,00 %
01.11.2015 21:10 5,1 C 69 % 1030,6 hPa 0,0 l/m 0,0 km/h (0 Bft) O 83 0 min 0,000 mm 0,0 UV-I 0 W/m -0,1 C 5,1 C 0,0 km/h (0 Bft) 100,00 %
01.11.2015 21:11 5,2 C 68 % 1030,6 hPa 0,0 l/m 0,0 km/h (0 Bft) O 83 0 min 0,000 mm 0,0 UV-I 0 W/m -0,2 C 5,2 C 0,0 km/h (0 Bft) 100,00 %
01.11.2015 21:12 5,3 C 68 % 1030,6 hPa 0,0 l/m 0,0 km/h (0 Bft) O 83 0 min 0,000 mm 0,0 UV-I 0 W/m -0,1 C 5,3 C 0,0 km/h (0 Bft) 100,00 %
01.11.2015 21:13 5,2 C 68 % 1030,6 hPa 0,0 l/m 0,0 km/h (0 Bft) O 83 0 min 0,000 mm 0,0 UV-I 0 W/m -0,2 C 5,2 C 0,0 km/h (0 Bft) 100,00 %
01.11.2015 21:14 5,2 C 68 % 1030,6 hPa 0,0 l/m 0,0 km/h (0 Bft) O 83 0 min 0,000 mm 0,0 UV-I 0 W/m -0,2 C 5,2 C 0,0 km/h (0 Bft) 100,00 %
01.11.2015 21:15 5,1 C 69 % 1030,6 hPa 0,0 l/m 0,2 km/h (0 Bft) O 83 0 min 0,000 mm 0,0 UV-I 0 W/m -0,1 C 5,1 C 1,6 km/h (1 Bft) 100,00 %
01.11.2015 21:16 4,9 C 69 % 1030,6 hPa 0,0 l/m 0,3 km/h (0 Bft) O 83 0 min 0,000 mm 0,0 UV-I 0 W/m -0,3 C 4,9 C 1,6 km/h (1 Bft) 100,00 %
01.11.2015 21:17 4,8 C 70 % 1030,6 hPa 0,0 l/m 1,1 km/h (1 Bft) O 83 0 min 0,000 mm 0,0 UV-I 0 W/m -0,2 C 4,8 C 1,6 km/h (1 Bft) 100,00 %
01.11.2015 21:18 4,7 C 71 % 1030,6 hPa 0,0 l/m 0,8 km/h (0 Bft) O 83 0 min 0,000 mm 0,0 UV-I 0 W/m -0,1 C 4,7 C 1,6 km/h (1 Bft) 100,00 %
01.11.2015 21:19 4,6 C 71 % 1030,6 hPa 0,0 l/m 1,0 km/h (0 Bft) O 83 0 min 0,000 mm 0,0 UV-I 0 W/m -0,2 C 4,6 C 1,6 km/h (1 Bft) 100,00 %
01.11.2015 21:20 4,4 C 71 % 1030,6 hPa 0,0 l/m 1,0 km/h (0 Bft) O 83 0 min 0,000 mm 0,0 UV-I 0 W/m -0,4 C 4,4 C 1,6 km/h (1 Bft) 100,00 %
01.11.2015 21:21 4,4 C 71 % 1030,6 hPa 0,0 l/m 0,2 km/h (0 Bft) O 83 0 min 0,000 mm 0,0 UV-I 0 W/m -0,4 C 4,4 C 1,6 km/h (1 Bft) 96,15 %
01.11.2015 21:22 4,4 C 71 % 1030,6 hPa 0,0 l/m 0,2 km/h (0 Bft) O 83 0 min 0,000 mm 0,0 UV-I 0 W/m -0,4 C 4,4 C 1,6 km/h (1 Bft) 100,00 %
01.11.2015 21:23 4,4 C 71 % 1030,6 hPa 0,0 l/m 0,2 km/h (0 Bft) O 83 0 min 0,000 mm 0,0 UV-I 0 W/m -0,4 C 4,4 C 1,6 km/h (1 Bft) 100,00 %
01.11.2015 21:24 4,5 C 72 % 1030,6 hPa 0,0 l/m 0,0 km/h (0 Bft) O 83 0 min 0,000 mm 0,0 UV-I 0 W/m -0,1 C 4,5 C 0,0 km/h (0 Bft) 100,00 %
01.11.2015 21:25 4,6 C 71 % 1030,6 hPa 0,0 l/m 0,0 km/h (0 Bft) O 83 0 min 0,000 mm 0,0 UV-I 0 W/m -0,2 C 4,6 C 0,0 km/h (0 Bft) 100,00 %
01.11.2015 21:26 4,7 C 71 % 1030,6 hPa 0,0 l/m 0,1 km/h (0 Bft) O 83 0 min 0,000 mm 0,0 UV-I 0 W/m -0,1 C 4,7 C 1,6 km/h (1 Bft) 100,00 %
01.11.2015 21:27 4,8 C 70 % 1030,6 hPa 0,0 l/m 0,6 km/h (0 Bft) O 83 0 min 0,000 mm 0,0 UV-I 0 W/m -0,2 C 4,8 C 1,6 km/h (1 Bft) 96,15 %
01.11.2015 21:28 4,9 C 69 % 1030,6 hPa 0,0 l/m 1,0 km/h (0 Bft) O 83 0 min 0,000 mm 0,0 UV-I 0 W/m -0,3 C 4,9 C 1,6 km/h (1 Bft) 100,00 %
01.11.2015 21:29 5,0 C 69 % 1030,6 hPa 0,0 l/m 0,9 km/h (0 Bft) O 83 0 min 0,000 mm 0,0 UV-I 0 W/m -0,2 C 5,0 C 1,6 km/h (1 Bft) 100,00 %
01.11.2015 21:30 5,2 C 68 % 1030,7 hPa 0,0 l/m 0,3 km/h (0 Bft) O 83 0 min 0,000 mm 0,0 UV-I 0 W/m -0,2 C 5,2 C 1,6 km/h (1 Bft) 96,15 %
01.11.2015 21:31 5,3 C 67 % 1030,7 hPa 0,0 l/m 0,3 km/h (0 Bft) O 83 0 min 0,000 mm 0,0 UV-I 0 W/m -0,3 C 5,3 C 1,6 km/h (1 Bft) 100,00 %
01.11.2015 21:32 5,4 C 67 % 1030,7 hPa 0,0 l/m 1,7 km/h (1 Bft) O 80 0 min 0,000 mm 0,0 UV-I 0 W/m -0,2 C 5,4 C 4,8 km/h (1 Bft) 100,00 %
01.11.2015 21:33 5,4 C 67 % 1030,7 hPa 0,0 l/m 1,6 km/h (1 Bft) O 80 0 min 0,000 mm 0,0 UV-I 0 W/m -0,2 C 5,4 C 3,2 km/h (1 Bft) 100,00 %
01.11.2015 21:34 5,4 C 67 % 1030,7 hPa 0,0 l/m 1,1 km/h (1 Bft) O 80 0 min 0,000 mm 0,0 UV-I 0 W/m -0,2 C 5,4 C 3,2 km/h (1 Bft) 100,00 %
01.11.2015 21:35 5,4 C 67 % 1030,7 hPa 0,0 l/m 2,3 km/h (1 Bft) O 80 0 min 0,000 mm 0,0 UV-I 0 W/m -0,2 C 5,4 C 3,2 km/h (1 Bft) 100,00 %
01.11.2015 21:36 5,4 C 67 % 1030,7 hPa 0,0 l/m 0,4 km/h (0 Bft) O 80 0 min 0,000 mm 0,0 UV-I 0 W/m -0,2 C 5,4 C 1,6 km/h (1 Bft) 100,00 %
01.11.2015 21:37 5,4 C 67 % 1030,7 hPa 0,0 l/m 0,1 km/h (0 Bft) O 80 0 min 0,000 mm 0,0 UV-I 0 W/m -0,2 C 5,4 C 1,6 km/h (1 Bft) 100,00 %
01.11.2015 21:38 5,3 C 67 % 1030,7 hPa 0,0 l/m 1,1 km/h (1 Bft) O 80 0 min 0,000 mm 0,0 UV-I 0 W/m -0,3 C 5,3 C 1,6 km/h (1 Bft) 100,00 %
01.11.2015 21:39 5,3 C 67 % 1030,6 hPa 0,0 l/m 2,5 km/h (1 Bft) O-SO 103 0 min 0,000 mm 0,0 UV-I 0 W/m -0,3 C 5,3 C 4,8 km/h (1 Bft) 100,00 %
01.11.2015 21:40 5,3 C 67 % 1030,6 hPa 0,0 l/m 1,9 km/h (1 Bft) O-NO 67 0 min 0,000 mm 0,0 UV-I 0 W/m -0,3 C 5,3 C 3,2 km/h (1 Bft) 100,00 %
01.11.2015 21:41 5,3 C 67 % 1030,7 hPa 0,0 l/m 1,4 km/h (1 Bft) O-NO 70 0 min 0,000 mm 0,0 UV-I 0 W/m -0,3 C 5,3 C 3,2 km/h (1 Bft) 100,00 %
01.11.2015 21:42 5,4 C 67 % 1030,7 hPa 0,0 l/m 1,6 km/h (1 Bft) O-NO 76 0 min 0,000 mm 0,0 UV-I 0 W/m -0,2 C 5,4 C 3,2 km/h (1 Bft) 100,00 %
01.11.2015 21:43 5,4 C 67 % 1030,7 hPa 0,0 l/m 1,2 km/h (1 Bft) O-NO 76 0 min 0,000 mm 0,0 UV-I 0 W/m -0,2 C 5,4 C 3,2 km/h (1 Bft) 91,67 %
01.11.2015 21:44 5,4 C 67 % 1030,7 hPa 0,0 l/m 0,9 km/h (0 Bft) O-NO 76 0 min 0,000 mm 0,0 UV-I 0 W/m -0,2 C 5,4 C 1,6 km/h (1 Bft) 92,86 %
01.11.2015 21:45 5,4 C 67 % 1030,7 hPa 0,0 l/m 2,6 km/h (1 Bft) O-NO 76 0 min 0,000 mm 0,0 UV-I 0 W/m -0,2 C 5,4 C 4,8 km/h (1 Bft) 100,00 %
01.11.2015 21:46 5,4 C 67 % 1030,7 hPa 0,0 l/m 1,2 km/h (1 Bft) O-NO 76 0 min 0,000 mm 0,0 UV-I 0 W/m -0,2 C 5,4 C 1,6 km/h (1 Bft) 100,00 %
01.11.2015 21:47 5,4 C 68 % 1030,7 hPa 0,0 l/m 0,1 km/h (0 Bft) O-NO 76 0 min 0,000 mm 0,0 UV-I 0 W/m -0,0 C 5,4 C 1,6 km/h (1 Bft) 100,00 %
01.11.2015 21:48 5,3 C 68 % 1030,7 hPa 0,0 l/m 1,1 km/h (1 Bft) O-NO 76 0 min 0,000 mm 0,0 UV-I 0 W/m -0,1 C 5,3 C 1,6 km/h (1 Bft) 100,00 %
01.11.2015 21:49 5,2 C 69 % 1030,7 hPa 0,0 l/m 0,1 km/h (0 Bft) O-NO 76 0 min 0,000 mm 0,0 UV-I 0 W/m -0,0 C 5,2 C 1,6 km/h (1 Bft) 100,00 %
01.11.2015 21:50 5,1 C 69 % 1030,7 hPa 0,0 l/m 0,0 km/h (0 Bft) O-NO 76 0 min 0,000 mm 0,0 UV-I 0 W/m -0,1 C 5,1 C 0,0 km/h (0 Bft) 100,00 %
01.11.2015 21:51 4,9 C 70 % 1030,7 hPa 0,0 l/m 0,0 km/h (0 Bft) O-NO 76 0 min 0,000 mm 0,0 UV-I 0 W/m -0,1 C 4,9 C 0,0 km/h (0 Bft) 100,00 %
01.11.2015 21:52 4,8 C 70 % 1030,7 hPa 0,0 l/m 0,3 km/h (0 Bft) O-NO 76 0 min 0,000 mm 0,0 UV-I 0 W/m -0,2 C 4,8 C 1,6 km/h (1 Bft) 100,00 %
01.11.2015 21:53 4,7 C 70 % 1030,7 hPa 0,0 l/m 0,6 km/h (0 Bft) O-NO 76 0 min 0,000 mm 0,0 UV-I 0 W/m -0,3 C 4,7 C 1,6 km/h (1 Bft) 100,00 %
01.11.2015 21:54 4,7 C 71 % 1030,8 hPa 0,0 l/m 1,8 km/h (1 Bft) O-NO 76 0 min 0,000 mm 0,0 UV-I 0 W/m -0,1 C 4,7 C 3,2 km/h (1 Bft) 100,00 %
01.11.2015 21:55 4,5 C 71 % 1030,8 hPa 0,0 l/m 1,8 km/h (1 Bft) O 80 0 min 0,000 mm 0,0 UV-I 0 W/m -0,3 C 4,5 C 3,2 km/h (1 Bft) 100,00 %
01.11.2015 21:56 4,4 C 71 % 1030,7 hPa 0,0 l/m 0,9 km/h (0 Bft) O 80 0 min 0,000 mm 0,0 UV-I 0 W/m -0,4 C 4,4 C 1,6 km/h (1 Bft) 100,00 %
01.11.2015 21:57 4,3 C 71 % 1030,7 hPa 0,0 l/m 1,0 km/h (0 Bft) O 80 0 min 0,000 mm 0,0 UV-I 0 W/m -0,5 C 4,3 C 1,6 km/h (1 Bft) 100,00 %
01.11.2015 21:58 4,2 C 72 % 1030,7 hPa 0,0 l/m 0,9 km/h (0 Bft) O 80 0 min 0,000 mm 0,0 UV-I 0 W/m -0,4 C 4,2 C 1,6 km/h (1 Bft) 100,00 %
01.11.2015 21:59 4,2 C 72 % 1030,7 hPa 0,0 l/m 0,3 km/h (0 Bft) O 80 0 min 0,000 mm 0,0 UV-I 0 W/m -0,4 C 4,2 C 1,6 km/h (1 Bft) 95,65 %
01.11.2015 22:00 4,2 C 72 % 1030,7 hPa 0,0 l/m 0,0 km/h (0 Bft) O 80 0 min 0,000 mm 0,0 UV-I 0 W/m -0,4 C 4,2 C 0,0 km/h (0 Bft) 95,83 %
01.11.2015 22:02 4,2 C 72 % 1030,7 hPa 0,0 l/m 0,0 km/h (0 Bft) O 80 0 min 0,000 mm 0,0 UV-I 0 W/m -0,4 C 4,2 C 0,0 km/h (0 Bft) 100,00 %
01.11.2015 22:03 4,2 C 72 % 1030,7 hPa 0,0 l/m 0,0 km/h (0 Bft) O 80 0 min 0,000 mm 0,0 UV-I 0 W/m -0,4 C 4,2 C 0,0 km/h (0 Bft) 73,08 %
01.11.2015 22:04 4,2 C 71 % 1030,7 hPa 0,0 l/m 1,1 km/h (1 Bft) O 80 0 min 0,000 mm 0,0 UV-I 0 W/m -0,6 C 4,2 C 1,6 km/h (1 Bft) 100,00 %
01.11.2015 22:05 4,3 C 71 % 1030,7 hPa 0,0 l/m 0,2 km/h (0 Bft) O 80 0 min 0,000 mm 0,0 UV-I 0 W/m -0,5 C 4,3 C 1,6 km/h (1 Bft) 100,00 %
01.11.2015 22:06 4,3 C 71 % 1030,7 hPa 0,0 l/m 0,1 km/h (0 Bft) O 80 0 min 0,000 mm 0,0 UV-I 0 W/m -0,5 C 4,3 C 1,6 km/h (1 Bft) 100,00 %
01.11.2015 22:07 4,3 C 71 % 1030,6 hPa 0,0 l/m 0,0 km/h (0 Bft) O 80 0 min 0,000 mm 0,0 UV-I 0 W/m -0,5 C 4,3 C 0,0 km/h (0 Bft) 95,65 %
01.11.2015 22:08 4,3 C 71 % 1030,7 hPa 0,0 l/m 0,0 km/h (0 Bft) O 80 0 min 0,000 mm 0,0 UV-I 0 W/m -0,5 C 4,3 C 0,0 km/h (0 Bft) 95,83 %
01.11.2015 22:09 4,4 C 70 % 1030,7 hPa 0,0 l/m 0,0 km/h (0 Bft) O 80 0 min 0,000 mm 0,0 UV-I 0 W/m -0,6 C 4,4 C 0,0 km/h (0 Bft) 96,15 %
01.11.2015 22:10 4,4 C 71 % 1030,7 hPa 0,0 l/m 0,0 km/h (0 Bft) O 80 0 min 0,000 mm 0,0 UV-I 0 W/m -0,4 C 4,4 C 0,0 km/h (0 Bft) 100,00 %
01.11.2015 22:11 4,5 C 70 % 1030,7 hPa 0,0 l/m 0,0 km/h (0 Bft) O 80 0 min 0,000 mm 0,0 UV-I 0 W/m -0,5 C 4,5 C 0,0 km/h (0 Bft) 100,00 %
01.11.2015 22:12 4,5 C 71 % 1030,7 hPa 0,0 l/m 2,0 km/h (1 Bft) O 90 0 min 0,000 mm 0,0 UV-I 0 W/m -0,3 C 4,5 C 3,2 km/h (1 Bft) 95,83 %
01.11.2015 22:13 4,6 C 70 % 1030,7 hPa 0,0 l/m 3,0 km/h (1 Bft) O-NO 57 0 min 0,000 mm 0,0 UV-I 0 W/m -0,4 C 4,6 C 4,8 km/h (1 Bft) 100,00 %
01.11.2015 22:14 4,7 C 70 % 1030,6 hPa 0,0 l/m 3,4 km/h (1 Bft) O-SO 106 0 min 0,000 mm 0,0 UV-I 0 W/m -0,3 C 4,7 C 4,8 km/h (1 Bft) 100,00 %
01.11.2015 22:15 4,7 C 69 % 1030,6 hPa 0,0 l/m 4,3 km/h (1 Bft) O 86 0 min 0,000 mm 0,0 UV-I 0 W/m -0,5 C 4,7 C 6,4 km/h (2 Bft) 100,00 %
01.11.2015 22:16 4,8 C 69 % 1030,6 hPa 0,0 l/m 2,9 km/h (1 Bft) O 99 0 min 0,000 mm 0,0 UV-I 0 W/m -0,4 C 4,8 C 4,8 km/h (1 Bft) 100,00 %
01.11.2015 22:17 4,9 C 68 % 1030,6 hPa 0,0 l/m 3,8 km/h (1 Bft) O-NO 65 0 min 0,000 mm 0,0 UV-I 0 W/m -0,5 C 4,9 C 6,4 km/h (2 Bft) 95,83 %
01.11.2015 22:18 5,0 C 68 % 1030,6 hPa 0,0 l/m 4,0 km/h (1 Bft) O-NO 74 0 min 0,000 mm 0,0 UV-I 0 W/m -0,4 C 5,0 C 4,8 km/h (1 Bft) 100,00 %
01.11.2015 22:19 5,1 C 68 % 1030,6 hPa 0,0 l/m 3,4 km/h (1 Bft) O 94 0 min 0,000 mm 0,0 UV-I 0 W/m -0,3 C 5,1 C 4,8 km/h (1 Bft) 100,00 %
01.11.2015 22:20 5,2 C 67 % 1030,6 hPa 0,0 l/m 1,9 km/h (1 Bft) O 89 0 min 0,000 mm 0,0 UV-I 0 W/m -0,4 C 5,2 C 3,2 km/h (1 Bft) 100,00 %
01.11.2015 22:21 5,3 C 67 % 1030,6 hPa 0,0 l/m 1,8 km/h (1 Bft) O 84 0 min 0,000 mm 0,0 UV-I 0 W/m -0,3 C 5,3 C 3,2 km/h (1 Bft) 100,00 %
01.11.2015 22:22 5,3 C 67 % 1030,6 hPa 0,0 l/m 1,8 km/h (1 Bft) O-NO 67 0 min 0,000 mm 0,0 UV-I 0 W/m -0,3 C 5,3 C 3,2 km/h (1 Bft) 100,00 %
01.11.2015 22:23 5,3 C 67 % 1030,6 hPa 0,0 l/m 0,6 km/h (0 Bft) O-NO 67 0 min 0,000 mm 0,0 UV-I 0 W/m -0,3 C 5,3 C 3,2 km/h (1 Bft) 100,00 %
01.11.2015 22:24 5,3 C 67 % 1030,6 hPa 0,0 l/m 1,5 km/h (1 Bft) O-SO 118 0 min 0,000 mm 0,0 UV-I 0 W/m -0,3 C 5,3 C 3,2 km/h (1 Bft) 100,00 %
01.11.2015 22:25 5,3 C 66 % 1030,6 hPa 0,0 l/m 2,7 km/h (1 Bft) O 100 0 min 0,000 mm 0,0 UV-I 0 W/m -0,5 C 5,3 C 4,8 km/h (1 Bft) 100,00 %
01.11.2015 22:26 5,4 C 66 % 1030,7 hPa 0,0 l/m 0,7 km/h (0 Bft) O 100 0 min 0,000 mm 0,0 UV-I 0 W/m -0,4 C 5,4 C 1,6 km/h (1 Bft) 100,00 %
01.11.2015 22:27 5,3 C 67 % 1030,7 hPa 0,0 l/m 0,9 km/h (0 Bft) O 100 0 min 0,000 mm 0,0 UV-I 0 W/m -0,3 C 5,3 C 1,6 km/h (1 Bft) 100,00 %
01.11.2015 22:28 5,3 C 67 % 1030,7 hPa 0,0 l/m 1,2 km/h (1 Bft) O 94 0 min 0,000 mm 0,0 UV-I 0 W/m -0,3 C 5,3 C 3,2 km/h (1 Bft) 100,00 %
01.11.2015 22:29 5,3 C 67 % 1030,7 hPa 0,0 l/m 1,2 km/h (1 Bft) O 81 0 min 0,000 mm 0,0 UV-I 0 W/m -0,3 C 5,3 C 3,2 km/h (1 Bft) 100,00 %
01.11.2015 22:30 5,3 C 66 % 1030,7 hPa 0,0 l/m 3,2 km/h (1 Bft) O 97 0 min 0,000 mm 0,0 UV-I 0 W/m -0,5 C 5,3 C 4,8 km/h (1 Bft) 100,00 %
01.11.2015 22:31 5,3 C 66 % 1030,7 hPa 0,0 l/m 3,4 km/h (1 Bft) O 90 0 min 0,000 mm 0,0 UV-I 0 W/m -0,5 C 5,3 C 6,4 km/h (2 Bft) 100,00 %
01.11.2015 22:32 5,4 C 66 % 1030,7 hPa 0,0 l/m 4,7 km/h (1 Bft) O-SO 115 0 min 0,000 mm 0,0 UV-I 0 W/m -0,4 C 5,4 C 6,4 km/h (2 Bft) 100,00 %
01.11.2015 22:33 5,4 C 66 % 1030,7 hPa 0,0 l/m 3,2 km/h (1 Bft) O-SO 111 0 min 0,000 mm 0,0 UV-I 0 W/m -0,4 C 5,4 C 4,8 km/h (1 Bft) 100,00 %
01.11.2015 22:34 5,4 C 66 % 1030,7 hPa 0,0 l/m 2,3 km/h (1 Bft) O-SO 103 0 min 0,000 mm 0,0 UV-I 0 W/m -0,4 C 5,4 C 3,2 km/h (1 Bft) 100,00 %
01.11.2015 22:35 5,5 C 66 % 1030,7 hPa 0,0 l/m 3,3 km/h (1 Bft) O-SO 104 0 min 0,000 mm 0,0 UV-I 0 W/m -0,3 C 5,5 C 6,4 km/h (2 Bft) 100,00 %
01.11.2015 22:36 5,6 C 65 % 1030,7 hPa 0,0 l/m 4,0 km/h (1 Bft) O-SO 107 0 min 0,000 mm 0,0 UV-I 0 W/m -0,4 C 5,6 C 6,4 km/h (2 Bft) 100,00 %
01.11.2015 22:37 5,6 C 65 % 1030,7 hPa 0,0 l/m 3,1 km/h (1 Bft) O-SO 113 0 min 0,000 mm 0,0 UV-I 0 W/m -0,4 C 5,6 C 6,4 km/h (2 Bft) 100,00 %
01.11.2015 22:38 5,6 C 65 % 1030,7 hPa 0,0 l/m 2,1 km/h (1 Bft) O-SO 106 0 min 0,000 mm 0,0 UV-I 0 W/m -0,4 C 5,6 C 3,2 km/h (1 Bft) 100,00 %
01.11.2015 22:39 5,6 C 66 % 1030,7 hPa 0,0 l/m 2,2 km/h (1 Bft) O 85 0 min 0,000 mm 0,0 UV-I 0 W/m -0,2 C 5,6 C 4,8 km/h (1 Bft) 100,00 %
01.11.2015 22:40 5,6 C 65 % 1030,7 hPa 0,0 l/m 1,7 km/h (1 Bft) O-SO 112 0 min 0,000 mm 0,0 UV-I 0 W/m -0,4 C 5,6 C 3,2 km/h (1 Bft) 100,00 %
01.11.2015 22:41 5,6 C 65 % 1030,7 hPa 0,0 l/m 1,9 km/h (1 Bft) O 80 0 min 0,000 mm 0,0 UV-I 0 W/m -0,4 C 5,6 C 3,2 km/h (1 Bft) 100,00 %
01.11.2015 22:42 5,5 C 65 % 1030,7 hPa 0,0 l/m 0,3 km/h (0 Bft) O 80 0 min 0,000 mm 0,0 UV-I 0 W/m -0,5 C 5,5 C 1,6 km/h (1 Bft) 95,83 %
01.11.2015 22:43 5,5 C 66 % 1030,7 hPa 0,0 l/m 1,6 km/h (1 Bft) O 82 0 min 0,000 mm 0,0 UV-I 0 W/m -0,3 C 5,5 C 3,2 km/h (1 Bft) 100,00 %
01.11.2015 22:44 5,4 C 66 % 1030,7 hPa 0,0 l/m 1,1 km/h (1 Bft) O-NO 74 0 min 0,000 mm 0,0 UV-I 0 W/m -0,4 C 5,4 C 3,2 km/h (1 Bft) 100,00 %
01.11.2015 22:45 5,4 C 66 % 1030,7 hPa 0,0 l/m 3,2 km/h (1 Bft) O-NO 76 0 min 0,000 mm 0,0 UV-I 0 W/m -0,4 C 5,4 C 4,8 km/h (1 Bft) 100,00 %
01.11.2015 22:46 5,4 C 66 % 1030,6 hPa 0,0 l/m 1,5 km/h (1 Bft) O 90 0 min 0,000 mm 0,0 UV-I 0 W/m -0,4 C 5,4 C 3,2 km/h (1 Bft) 100,00 %
01.11.2015 22:47 5,4 C 66 % 1030,7 hPa 0,0 l/m 3,0 km/h (1 Bft) O-NO 77 0 min 0,000 mm 0,0 UV-I 0 W/m -0,4 C 5,4 C 4,8 km/h (1 Bft) 100,00 %
01.11.2015 22:48 5,4 C 66 % 1030,7 hPa 0,0 l/m 2,7 km/h (1 Bft) O 97 0 min 0,000 mm 0,0 UV-I 0 W/m -0,4 C 5,4 C 3,2 km/h (1 Bft) 100,00 %
01.11.2015 22:49 5,5 C 65 % 1030,7 hPa 0,0 l/m 1,8 km/h (1 Bft) O 97 0 min 0,000 mm 0,0 UV-I 0 W/m -0,5 C 5,5 C 3,2 km/h (1 Bft) 96,15 %
01.11.2015 22:50 5,5 C 65 % 1030,7 hPa 0,0 l/m 1,1 km/h (1 Bft) O 97 0 min 0,000 mm 0,0 UV-I 0 W/m -0,5 C 5,5 C 3,2 km/h (1 Bft) 100,00 %
01.11.2015 22:51 5,4 C 66 % 1030,7 hPa 0,0 l/m 0,8 km/h (0 Bft) O 97 0 min 0,000 mm 0,0 UV-I 0 W/m -0,4 C 5,4 C 1,6 km/h (1 Bft) 100,00 %
01.11.2015 22:52 5,4 C 66 % 1030,7 hPa 0,0 l/m 1,1 km/h (1 Bft) O 97 0 min 0,000 mm 0,0 UV-I 0 W/m -0,4 C 5,4 C 1,6 km/h (1 Bft) 100,00 %
01.11.2015 22:53 5,4 C 66 % 1030,7 hPa 0,0 l/m 0,8 km/h (0 Bft) O 97 0 min 0,000 mm 0,0 UV-I 0 W/m -0,4 C 5,4 C 1,6 km/h (1 Bft) 100,00 %
01.11.2015 22:54 5,3 C 66 % 1030,7 hPa 0,0 l/m 0,3 km/h (0 Bft) O 97 0 min 0,000 mm 0,0 UV-I 0 W/m -0,5 C 5,3 C 1,6 km/h (1 Bft) 100,00 %
01.11.2015 22:55 5,2 C 66 % 1030,7 hPa 0,0 l/m 0,0 km/h (0 Bft) O 97 0 min 0,000 mm 0,0 UV-I 0 W/m -0,6 C 5,2 C 0,0 km/h (0 Bft) 100,00 %
01.11.2015 22:56 5,0 C 67 % 1030,7 hPa 0,0 l/m 0,0 km/h (0 Bft) O 97 0 min 0,000 mm 0,0 UV-I 0 W/m -0,6 C 5,0 C 0,0 km/h (0 Bft) 100,00 %
01.11.2015 22:57 4,9 C 67 % 1030,7 hPa 0,0 l/m 0,0 km/h (0 Bft) O 97 0 min 0,000 mm 0,0 UV-I 0 W/m -0,7 C 4,9 C 0,0 km/h (0 Bft) 100,00 %
01.11.2015 22:58 4,8 C 68 % 1030,6 hPa 0,0 l/m 0,0 km/h (0 Bft) O 97 0 min 0,000 mm 0,0 UV-I 0 W/m -0,6 C 4,8 C 0,0 km/h (0 Bft) 100,00 %
01.11.2015 22:59 4,7 C 68 % 1030,6 hPa 0,0 l/m 0,0 km/h (0 Bft) O 97 0 min 0,000 mm 0,0 UV-I 0 W/m -0,7 C 4,7 C 0,0 km/h (0 Bft) 95,83 %
01.11.2015 23:00 4,7 C 68 % 1030,7 hPa 0,0 l/m 3,5 km/h (1 Bft) O-NO 68 0 min 0,000 mm 0,0 UV-I 0 W/m -0,7 C 4,7 C 4,8 km/h (1 Bft) 100,00 %
01.11.2015 23:01 4,7 C 68 % 1030,6 hPa 0,0 l/m 2,3 km/h (1 Bft) O 101 0 min 0,000 mm 0,0 UV-I 0 W/m -0,7 C 4,7 C 4,8 km/h (1 Bft) 100,00 %
01.11.2015 23:02 4,8 C 68 % 1030,7 hPa 0,0 l/m 3,4 km/h (1 Bft) O-NO 72 0 min 0,000 mm 0,0 UV-I 0 W/m -0,6 C 4,8 C 4,8 km/h (1 Bft) 100,00 %
01.11.2015 23:03 4,8 C 68 % 1030,7 hPa 0,0 l/m 3,6 km/h (1 Bft) O-NO 60 0 min 0,000 mm 0,0 UV-I 0 W/m -0,6 C 4,8 C 6,4 km/h (2 Bft) 100,00 %
01.11.2015 23:04 4,9 C 68 % 1030,8 hPa 0,0 l/m 2,4 km/h (1 Bft) O 86 0 min 0,000 mm 0,0 UV-I 0 W/m -0,5 C 4,9 C 4,8 km/h (1 Bft) 96,15 %
01.11.2015 23:05 5,0 C 67 % 1030,7 hPa 0,0 l/m 3,1 km/h (1 Bft) O 91 0 min 0,000 mm 0,0 UV-I 0 W/m -0,6 C 5,0 C 4,8 km/h (1 Bft) 100,00 %
01.11.2015 23:06 5,1 C 67 % 1030,7 hPa 0,0 l/m 1,4 km/h (1 Bft) O 84 0 min 0,000 mm 0,0 UV-I 0 W/m -0,5 C 5,1 C 3,2 km/h (1 Bft) 100,00 %
01.11.2015 23:07 5,1 C 67 % 1030,8 hPa 0,0 l/m 0,6 km/h (0 Bft) O 84 0 min 0,000 mm 0,0 UV-I 0 W/m -0,5 C 5,1 C 1,6 km/h (1 Bft) 100,00 %
01.11.2015 23:08 5,0 C 68 % 1030,7 hPa 0,0 l/m 1,8 km/h (1 Bft) O 84 0 min 0,000 mm 0,0 UV-I 0 W/m -0,4 C 5,0 C 3,2 km/h (1 Bft) 100,00 %
01.11.2015 23:09 4,8 C 68 % 1030,8 hPa 0,0 l/m 2,0 km/h (1 Bft) O-NO 75 0 min 0,000 mm 0,0 UV-I 0 W/m -0,6 C 4,8 C 3,2 km/h (1 Bft) 100,00 %
01.11.2015 23:10 4,6 C 69 % 1030,8 hPa 0,0 l/m 0,8 km/h (0 Bft) O-NO 75 0 min 0,000 mm 0,0 UV-I 0 W/m -0,6 C 4,6 C 1,6 km/h (1 Bft) 100,00 %
01.11.2015 23:11 4,4 C 69 % 1030,8 hPa 0,0 l/m 1,1 km/h (1 Bft) O-NO 74 0 min 0,000 mm 0,0 UV-I 0 W/m -0,8 C 4,4 C 1,6 km/h (1 Bft) 100,00 %
01.11.2015 23:12 4,3 C 69 % 1030,8 hPa 0,0 l/m 1,2 km/h (1 Bft) O-NO 74 0 min 0,000 mm 0,0 UV-I 0 W/m -0,9 C 4,3 C 3,2 km/h (1 Bft) 95,65 %
01.11.2015 23:13 4,2 C 70 % 1030,8 hPa 0,0 l/m 0,3 km/h (0 Bft) O-NO 74 0 min 0,000 mm 0,0 UV-I 0 W/m -0,8 C 4,2 C 1,6 km/h (1 Bft) 100,00 %
01.11.2015 23:14 4,2 C 70 % 1030,8 hPa 0,0 l/m 0,0 km/h (0 Bft) O-NO 74 0 min 0,000 mm 0,0 UV-I 0 W/m -0,8 C 4,2 C 0,0 km/h (0 Bft) 91,67 %
01.11.2015 23:15 4,1 C 71 % 1030,8 hPa 0,0 l/m 0,0 km/h (0 Bft) O-NO 74 0 min 0,000 mm 0,0 UV-I 0 W/m -0,7 C 4,1 C 0,0 km/h (0 Bft) 100,00 %
01.11.2015 23:16 4,0 C 71 % 1030,8 hPa 0,0 l/m 0,0 km/h (0 Bft) O-NO 74 0 min 0,000 mm 0,0 UV-I 0 W/m -0,8 C 4,0 C 0,0 km/h (0 Bft) 100,00 %
01.11.2015 23:17 3,9 C 71 % 1030,8 hPa 0,0 l/m 0,2 km/h (0 Bft) O-NO 74 0 min 0,000 mm 0,0 UV-I 0 W/m -0,9 C 3,9 C 1,6 km/h (1 Bft) 96,15 %
01.11.2015 23:18 3,9 C 71 % 1030,8 hPa 0,0 l/m 0,2 km/h (0 Bft) O-NO 74 0 min 0,000 mm 0,0 UV-I 0 W/m -0,9 C 3,9 C 1,6 km/h (1 Bft) 100,00 %
01.11.2015 23:19 4,0 C 71 % 1030,9 hPa 0,0 l/m 0,1 km/h (0 Bft) O-NO 74 0 min 0,000 mm 0,0 UV-I 0 W/m -0,8 C 4,0 C 1,6 km/h (1 Bft) 98,97 %
01.11.2015 23:20 4,1 C 71 % 1030,9 hPa 0,0 l/m 0,1 km/h (0 Bft) O-NO 74 0 min 0,000 mm 0,0 UV-I 0 W/m -0,7 C 4,1 C 1,6 km/h (1 Bft) 100,00 %
01.11.2015 23:21 4,1 C 71 % 1030,8 hPa 0,0 l/m 0,0 km/h (0 Bft) O-NO 74 0 min 0,000 mm 0,0 UV-I 0 W/m -0,7 C 4,1 C 0,0 km/h (0 Bft) 100,00 %
01.11.2015 23:22 4,1 C 71 % 1030,9 hPa 0,0 l/m 0,0 km/h (0 Bft) O-NO 74 0 min 0,000 mm 0,0 UV-I 0 W/m -0,7 C 4,1 C 0,0 km/h (0 Bft) 100,00 %
01.11.2015 23:23 4,1 C 71 % 1030,9 hPa 0,0 l/m 0,0 km/h (0 Bft) O-NO 74 0 min 0,000 mm 0,0 UV-I 0 W/m -0,7 C 4,1 C 0,0 km/h (0 Bft) 100,00 %
01.11.2015 23:24 4,1 C 71 % 1030,9 hPa 0,0 l/m 0,5 km/h (0 Bft) O-NO 75 0 min 0,000 mm 0,0 UV-I 0 W/m -0,7 C 4,1 C 1,6 km/h (1 Bft) 100,00 %
01.11.2015 23:25 4,0 C 71 % 1030,9 hPa 0,0 l/m 1,9 km/h (1 Bft) O-NO 74 0 min 0,000 mm 0,0 UV-I 0 W/m -0,8 C 4,0 C 3,2 km/h (1 Bft) 98,97 %
01.11.2015 23:26 3,9 C 72 % 1030,9 hPa 0,0 l/m 1,7 km/h (1 Bft) O-NO 74 0 min 0,000 mm 0,0 UV-I 0 W/m -0,7 C 3,9 C 3,2 km/h (1 Bft) 100,00 %
01.11.2015 23:27 3,7 C 73 % 1030,9 hPa 0,0 l/m 1,7 km/h (1 Bft) O-NO 74 0 min 0,000 mm 0,0 UV-I 0 W/m -0,7 C 3,7 C 3,2 km/h (1 Bft) 100,00 %
01.11.2015 23:28 3,5 C 74 % 1030,9 hPa 0,0 l/m 1,7 km/h (1 Bft) O-NO 74 0 min 0,000 mm 0,0 UV-I 0 W/m -0,7 C 3,5 C 3,2 km/h (1 Bft) 95,83 %
01.11.2015 23:29 3,3 C 75 % 1031,0 hPa 0,0 l/m 1,1 km/h (1 Bft) O-NO 74 0 min 0,000 mm 0,0 UV-I 0 W/m -0,7 C 3,3 C 1,6 km/h (1 Bft) 100,00 %
01.11.2015 23:30 3,2 C 75 % 1030,9 hPa 0,0 l/m 1,5 km/h (1 Bft) O-NO 75 0 min 0,000 mm 0,0 UV-I 0 W/m -0,8 C 3,2 C 3,2 km/h (1 Bft) 96,15 %
01.11.2015 23:31 3,1 C 76 % 1031,0 hPa 0,0 l/m 0,6 km/h (0 Bft) O-NO 74 0 min 0,000 mm 0,0 UV-I 0 W/m -0,7 C 3,1 C 1,6 km/h (1 Bft) 100,00 %
01.11.2015 23:32 3,1 C 76 % 1030,9 hPa 0,0 l/m 0,0 km/h (0 Bft) O-NO 75 0 min 0,000 mm 0,0 UV-I 0 W/m -0,7 C 3,1 C 0,0 km/h (0 Bft) 95,65 %
01.11.2015 23:33 3,1 C 76 % 1030,9 hPa 0,0 l/m 0,0 km/h (0 Bft) O-NO 74 0 min 0,000 mm 0,0 UV-I 0 W/m -0,7 C 3,1 C 0,0 km/h (0 Bft) 100,00 %
01.11.2015 23:34 3,0 C 77 % 1030,9 hPa 0,0 l/m 0,0 km/h (0 Bft) O-NO 74 0 min 0,000 mm 0,0 UV-I 0 W/m -0,6 C 3,0 C 0,0 km/h (0 Bft) 100,00 %
01.11.2015 23:35 2,9 C 77 % 1030,9 hPa 0,0 l/m 0,0 km/h (0 Bft) O-NO 74 0 min 0,000 mm 0,0 UV-I 0 W/m -0,7 C 2,9 C 0,0 km/h (0 Bft) 100,00 %
01.11.2015 23:36 2,8 C 77 % 1030,9 hPa 0,0 l/m 0,1 km/h (0 Bft) O-NO 74 0 min 0,000 mm 0,0 UV-I 0 W/m -0,8 C 2,8 C 1,6 km/h (1 Bft) 100,00 %
01.11.2015 23:37 2,7 C 78 % 1030,8 hPa 0,0 l/m 0,5 km/h (0 Bft) O-NO 74 0 min 0,000 mm 0,0 UV-I 0 W/m -0,7 C 2,7 C 1,6 km/h (1 Bft) 100,00 %
01.11.2015 23:38 2,6 C 78 % 1030,8 hPa 0,0 l/m 0,4 km/h (0 Bft) O-NO 75 0 min 0,000 mm 0,0 UV-I 0 W/m -0,8 C 2,6 C 1,6 km/h (1 Bft) 100,00 %
01.11.2015 23:39 2,4 C 79 % 1030,8 hPa 0,0 l/m 0,2 km/h (0 Bft) O-NO 74 0 min 0,000 mm 0,0 UV-I 0 W/m -0,9 C 2,4 C 1,6 km/h (1 Bft) 100,00 %
01.11.2015 23:40 2,3 C 79 % 1030,8 hPa 0,0 l/m 0,6 km/h (0 Bft) O-NO 75 0 min 0,000 mm 0,0 UV-I 0 W/m -1,0 C 2,3 C 1,6 km/h (1 Bft) 100,00 %
01.11.2015 23:41 2,2 C 79 % 1030,8 hPa 0,0 l/m 0,9 km/h (0 Bft) O-NO 74 0 min 0,000 mm 0,0 UV-I 0 W/m -1,1 C 2,2 C 1,6 km/h (1 Bft) 100,00 %
01.11.2015 23:42 2,1 C 79 % 1030,8 hPa 0,0 l/m 0,6 km/h (0 Bft) O-NO 74 0 min 0,000 mm 0,0 UV-I 0 W/m -1,2 C 2,1 C 1,6 km/h (1 Bft) 100,00 %
01.11.2015 23:43 2,1 C 79 % 1030,8 hPa 0,0 l/m 0,1 km/h (0 Bft) O-NO 74 0 min 0,000 mm 0,0 UV-I 0 W/m -1,2 C 2,1 C 1,6 km/h (1 Bft) 100,00 %
01.11.2015 23:44 2,1 C 79 % 1030,8 hPa 0,0 l/m 0,0 km/h (0 Bft) O-NO 74 0 min 0,000 mm 0,0 UV-I 0 W/m -1,2 C 2,1 C 0,0 km/h (0 Bft) 95,65 %
01.11.2015 23:45 2,0 C 80 % 1030,8 hPa 0,0 l/m 0,0 km/h (0 Bft) O-NO 74 0 min 0,000 mm 0,0 UV-I 0 W/m -1,1 C 2,0 C 0,0 km/h (0 Bft) 100,00 %
01.11.2015 23:46 2,0 C 80 % 1030,8 hPa 0,0 l/m 0,0 km/h (0 Bft) O-NO 74 0 min 0,000 mm 0,0 UV-I 0 W/m -1,1 C 2,0 C 0,0 km/h (0 Bft) 100,00 %
01.11.2015 23:47 2,0 C 80 % 1030,8 hPa 0,0 l/m 0,0 km/h (0 Bft) O-NO 74 0 min 0,000 mm 0,0 UV-I 0 W/m -1,1 C 2,0 C 0,0 km/h (0 Bft) 100,00 %
01.11.2015 23:48 2,0 C 80 % 1030,8 hPa 0,0 l/m 0,0 km/h (0 Bft) O-NO 74 0 min 0,000 mm 0,0 UV-I 0 W/m -1,1 C 2,0 C 0,0 km/h (0 Bft) 95,65 %
01.11.2015 23:49 2,0 C 80 % 1030,9 hPa 0,0 l/m 0,2 km/h (0 Bft) O-NO 74 0 min 0,000 mm 0,0 UV-I 0 W/m -1,1 C 2,0 C 1,6 km/h (1 Bft) 100,00 %
01.11.2015 23:50 2,0 C 80 % 1030,9 hPa 0,0 l/m 1,5 km/h (1 Bft) O-NO 74 0 min 0,000 mm 0,0 UV-I 0 W/m -1,1 C 2,0 C 3,2 km/h (1 Bft) 100,00 %
01.11.2015 23:51 2,0 C 80 % 1030,8 hPa 0,0 l/m 1,0 km/h (0 Bft) O-NO 74 0 min 0,000 mm 0,0 UV-I 0 W/m -1,1 C 2,0 C 1,6 km/h (1 Bft) 100,00 %
01.11.2015 23:52 2,0 C 80 % 1030,8 hPa 0,0 l/m 0,7 km/h (0 Bft) O-NO 74 0 min 0,000 mm 0,0 UV-I 0 W/m -1,1 C 2,0 C 1,6 km/h (1 Bft) 100,00 %
01.11.2015 23:53 2,1 C 80 % 1030,8 hPa 0,0 l/m 0,6 km/h (0 Bft) O-NO 74 0 min 0,000 mm 0,0 UV-I 0 W/m -1,0 C 2,1 C 1,6 km/h (1 Bft) 100,00 %
01.11.2015 23:54 2,2 C 80 % 1030,8 hPa 0,0 l/m 0,0 km/h (0 Bft) O-NO 74 0 min 0,000 mm 0,0 UV-I 0 W/m -0,9 C 2,2 C 0,0 km/h (0 Bft) 100,00 %
01.11.2015 23:55 2,3 C 79 % 1030,8 hPa 0,0 l/m 0,2 km/h (0 Bft) O-NO 74 0 min 0,000 mm 0,0 UV-I 0 W/m -1,0 C 2,3 C 1,6 km/h (1 Bft) 100,00 %
01.11.2015 23:56 2,6 C 79 % 1030,8 hPa 0,0 l/m 0,8 km/h (0 Bft) O-NO 74 0 min 0,000 mm 0,0 UV-I 0 W/m -0,7 C 2,6 C 1,6 km/h (1 Bft) 100,00 %
01.11.2015 23:57 2,8 C 78 % 1030,9 hPa 0,0 l/m 0,6 km/h (0 Bft) O-NO 74 0 min 0,000 mm 0,0 UV-I 0 W/m -0,6 C 2,8 C 1,6 km/h (1 Bft) 100,00 %
01.11.2015 23:58 3,0 C 77 % 1030,9 hPa 0,0 l/m 0,0 km/h (0 Bft) O-NO 74 0 min 0,000 mm 0,0 UV-I 0 W/m -0,6 C 3,0 C 0,0 km/h (0 Bft) 100,00 %
01.11.2015 23:59 3,2 C 76 % 1030,9 hPa 0,0 l/m 0,5 km/h (0 Bft) O-NO 74 0 min 0,000 mm 0,0 UV-I 0 W/m -0,6 C 3,2 C 1,6 km/h (1 Bft) 100,00 %
_ Min-Zeit 23:51 13:25 16:05 - 03:58 - - - - - - 23:42 23:45 03:58 22:03
Minimum _ 1,9 C 38 % 1030,5 hPa - 0,0 km/h (0 Bft) - - - - - - -1,2 C 2,0 C 0,0 km/h (0 Bft) 73,08 %
_ Max-Zeit 13:43 05:09 09:24 00:00 14:22 - - 13:20 12:01 11:13 11:44 00:27 13:35 14:19 00:00
Maximum _ 15,8 C 84 % 1032,2 hPa 0,0 l/m 17,4 km/h
O (3 Bft)
- - 5 min 0,305 mm 1,8 UV-I 476 W/m 4,4 C 15,7 C 24,1 km/h
NO (4 Bft)
100,00 %
Durchschnitt _ 9,0 C 63 % 1031,1 hPa #0,0 l/m 6,1 km/h (2 Bft) O - #8:18 h #2,134 mm 1,3 UV-I 275 W/m 1,9 C 8,2 C 9,6 km/h (2 Bft) 99,05 %